ECMWFNIL_850_spd_000.txt.gz
Wind_Speed
25 22 21 19 18 16 15 15 15 16 17 17 18 17 15 13 12 12 11 10 11 12 11 10 9 9 9 9 10 9 9 9 8 7 7 8 7 8 9 10 11 12
25 24 22 20 18 17 16 16 16 16 17 17 17 16 15 14 13 13 12 12 12 12 12 11 11 11 11 11 11 12 12 11 11 10 10 10 10 11 11 12 13 14
27 25 23 20 19 17 16 16 16 17 17 18 17 17 16 15 15 15 14 13 13 13 13 13 13 13 11 11 11 13 13 13 13 12 12 13 13 13 13 13 13 15
29 27 24 22 19 17 16 17 18 18 19 19 18 17 17 17 16 15 15 15 15 14 14 14 13 13 12 11 12 13 13 14 14 14 15 15 14 14 13 13 14 14
30 28 26 24 21 19 18 18 19 21 22 21 18 18 18 17 16 16 16 16 16 15 14 14 13 12 12 12 13 14 14 14 15 15 16 15 15 15 15 15 15 15
32 30 27 25 23 21 19 20 21 22 22 20 18 18 18 17 16 16 16 16 16 16 14 14 13 12 12 13 13 14 15 15 14 14 15 15 15 16 16 16 16 16
35 33 30 29 27 23 21 21 22 23 22 18 17 18 18 17 17 16 16 16 16 15 14 13 12 12 12 13 14 15 15 14 13 13 15 16 16 16 16 15 16 17
37 35 32 31 30 26 23 23 23 23 21 18 18 18 18 17 17 16 16 16 16 15 13 12 13 13 13 14 15 16 15 14 13 14 16 16 16 16 15 15 16 16
40 37 36 35 33 29 26 24 23 23 21 19 19 19 19 18 17 17 17 17 16 14 13 13 14 14 14 15 16 16 15 14 14 15 16 15 15 16 16 15 14 14
42 40 40 38 36 33 29 25 24 23 22 21 21 20 20 19 19 19 18 18 16 14 14 14 15 15 16 16 15 15 15 14 13 13 14 14 16 16 15 13 12 13
46 45 44 41 38 35 30 27 26 24 22 22 22 21 20 20 21 21 20 19 17 15 15 15 16 16 16 16 15 15 14 12 12 12 13 15 15 15 14 13 13 15
50 50 49 45 40 35 30 28 27 24 23 23 22 22 21 21 22 22 21 19 17 16 16 16 16 16 16 16 16 15 13 12 12 13 15 15 15 14 15 15 16 19
53 53 52 47 41 37 30 26 27 26 23 23 22 22 22 23 23 23 22 20 19 18 17 16 16 17 16 16 16 14 13 13 14 15 16 17 17 17 17 18 19 21
54 56 54 47 43 41 32 26 29 30 24 21 22 22 22 22 23 23 21 21 20 18 17 16 16 17 16 16 16 14 13 14 15 16 17 18 19 19 19 20 21 23
55 54 52 46 43 41 36 30 31 30 23 21 24 25 23 21 21 21 20 20 20 19 18 18 18 17 16 16 15 13 13 14 15 15 16 17 19 19 20 21 22 23
53 48 46 46 44 42 38 33 30 28 24 23 25 25 23 20 19 20 19 19 20 20 20 20 19 19 17 16 15 14 14 14 15 15 16 18 18 19 20 22 23 24
48 41 38 38 37 38 39 37 34 32 30 27 25 24 22 20 19 19 19 20 21 22 21 21 21 20 19 17 15 15 15 15 16 17 19 20 21 21 22 23 24 24
47 41 34 28 26 32 39 41 40 39 36 31 27 24 22 21 20 19 20 22 24 24 24 22 21 22 21 19 17 16 16 17 18 20 22 23 24 24 24 24 24 25
49 47 41 32 26 29 36 39 39 40 38 34 31 27 24 22 21 20 22 24 25 26 25 22 21 22 21 19 18 18 18 19 20 22 23 24 25 26 27 26 25 25
47 48 43 33 29 29 31 35 37 38 36 33 32 30 27 23 20 22 26 27 27 27 25 22 22 21 20 19 20 20 20 21 22 23 24 24 25 27 28 27 25 25
39 41 36 26 25 29 32 35 37 37 35 34 32 31 28 23 21 24 28 29 28 27 25 24 23 22 21 21 22 22 23 23 24 25 24 24 26 27 28 26 25 25
31 31 24 20 27 26 24 28 31 33 35 36 34 30 26 22 22 26 29 29 27 27 26 24 24 23 22 23 23 23 24 26 26 26 25 24 25 26 26 26 25 25
23 22 24 28 23 18 17 18 23 30 35 36 34 30 24 22 25 29 31 31 29 28 27 25 24 24 24 24 23 23 23 25 26 26 25 24 23 24 25 25 26 26
21 26 28 21 12 11 8 12 19 29 33 31 29 26 25 27 31 32 33 32 30 28 28 27 25 24 25 25 22 20 21 23 24 24 23 22 22 23 24 25 26 27
23 23 17 9 6 5 9 11 17 26 27 24 24 25 28 32 32 30 28 28 26 23 23 25 26 26 26 25 22 20 22 23 24 23 21 21 21 22 24 26 27 27
25 19 15 15 14 8 5 12 23 25 23 23 23 25 26 25 23 22 22 22 21 19 18 22 26 27 28 28 25 24 24 24 23 21 20 20 21 23 25 26 27 27

ECMWFNIL_850_spd_003.txt.gz
Wind_Speed
30 30 30 28 26 23 20 18 17 16 16 15 15 15 14 14 14 14 12 9 8 9 10 10 9 8 7 7 7 7 8 8 9 9 8 8 9 9 9 9 10 10
31 31 31 29 26 23 20 18 17 17 16 16 15 14 14 14 14 14 12 10 9 9 10 10 10 9 8 8 9 9 10 10 10 10 10 10 10 11 11 12 12 11
32 32 32 30 28 24 21 19 18 18 17 16 16 15 15 15 15 14 12 10 9 10 10 10 11 11 10 10 10 11 12 12 12 13 12 12 12 13 14 14 14 13
34 34 33 31 28 25 23 21 20 19 18 18 18 17 16 16 16 15 13 12 11 11 12 12 12 12 11 11 12 12 13 13 13 14 14 15 14 15 15 15 14 14
35 35 34 32 29 27 25 24 22 21 20 19 18 18 17 17 17 16 15 14 13 13 13 13 13 13 12 12 13 13 12 12 12 13 14 15 15 15 15 15 15 15
36 36 35 33 31 29 27 26 24 22 20 19 18 18 18 17 17 16 15 15 15 15 15 15 14 14 14 14 13 13 12 12 12 12 13 14 14 14 14 15 15 14
38 37 36 34 32 30 29 26 24 23 20 18 17 17 17 17 17 17 16 16 15 15 16 16 16 16 15 15 14 13 12 12 12 12 13 13 13 14 14 13 13 12
39 38 37 35 33 32 29 26 24 23 20 18 18 17 16 17 17 18 17 16 16 16 16 16 17 17 16 15 14 12 12 12 12 12 12 13 13 14 12 12 12 12
40 38 37 36 35 34 31 26 24 23 22 20 18 16 15 16 17 18 18 17 16 16 17 17 17 17 16 14 13 12 12 13 13 12 13 14 14 13 12 11 12 12
41 38 37 38 38 38 34 30 26 25 24 21 17 15 16 17 18 18 18 18 17 18 18 18 18 17 16 14 13 12 13 13 13 13 13 14 14 13 12 12 11 11
43 41 41 41 42 42 39 33 29 27 25 22 19 18 18 19 19 19 19 20 20 20 19 19 19 18 16 14 13 13 13 14 14 14 14 13 13 12 12 12 12 12
47 46 45 44 45 46 42 36 32 29 26 23 20 19 20 20 20 21 22 23 22 22 21 20 19 18 16 15 14 13 14 14 15 15 14 13 12 12 13 13 13 14
50 48 47 48 49 48 42 36 33 32 29 24 20 19 17 17 20 24 24 24 24 24 23 22 21 19 18 17 17 15 14 15 16 15 14 13 12 13 13 14 15 16
51 49 49 51 52 50 44 37 33 35 32 26 21 18 17 22 27 28 27 25 25 26 25 23 22 21 19 19 18 16 15 16 16 16 14 13 13 12 13 14 16 17
50 48 47 51 53 53 49 41 37 37 34 30 26 22 25 37 38 30 28 27 25 27 26 25 23 22 20 19 18 17 16 16 17 16 15 15 14 13 14 15 16 18
48 45 45 48 51 54 53 48 45 41 35 36 37 32 34 42 38 29 28 27 25 26 26 25 24 22 21 20 19 18 18 17 18 17 17 17 17 17 16 16 17 19
43 43 43 44 46 49 50 47 46 41 36 37 39 38 38 38 32 29 29 26 24 25 25 24 24 22 21 20 19 19 19 19 19 19 19 20 20 20 20 19 21 22
38 39 39 38 38 37 36 37 40 41 39 38 37 38 40 38 32 30 29 26 24 23 22 23 23 21 20 20 20 20 20 21 21 21 21 22 22 23 23 23 24 25
33 34 32 29 27 27 29 33 39 43 43 42 42 43 44 41 37 34 31 28 25 23 21 21 21 21 20 20 21 20 20 21 22 22 23 23 24 25 25 26 27 28
29 28 26 23 22 25 27 28 34 42 45 46 48 48 45 42 39 36 34 30 25 22 20 20 21 23 22 21 21 20 19 20 21 22 24 25 25 26 26 26 28 30
26 26 25 24 23 23 22 23 27 36 43 46 48 50 48 46 39 34 35 34 27 23 22 22 25 26 24 21 22 22 23 22 23 24 26 26 25 26 26 27 29 30
26 27 27 26 22 19 21 24 27 33 39 41 43 47 49 46 39 35 36 33 28 25 24 25 29 28 24 22 23 24 24 23 25 27 27 27 26 26 27 29 29 27
25 27 27 26 22 20 21 23 24 29 34 35 38 42 43 41 37 34 33 30 29 27 25 28 30 27 22 22 22 23 23 24 26 28 30 29 27 27 27 27 26 24
23 24 24 23 21 20 19 17 17 19 21 25 31 35 36 36 33 30 30 30 30 27 27 30 31 26 24 23 23 23 24 24 24 26 27 27 27 28 27 24 23 23
18 19 20 20 19 16 15 15 14 15 18 22 28 31 32 33 32 31 32 32 30 27 27 28 27 23 24 25 25 25 24 25 26 26 25 25 27 28 25 21 22 23
14 14 15 17 17 16 16 17 16 18 22 24 26 28 29 30 31 33 34 32 28 25 24 23 20 17 18 20 22 22 23 25 27 27 26 25 25 24 21 20 22 23

ECMWFNIL_850_spd_006.txt.gz
Wind_Speed
29 27 26 25 24 23 22 21 20 19 18 16 14 12 11 10 11 11 9 9 10 9 9 9 10 10 9 9 9 8 7 7 7 7 7 7 7 7 7 8 8 8
31 30 28 26 25 24 23 22 20 19 18 15 13 12 11 9 10 10 9 10 11 9 8 9 9 10 9 8 8 8 8 8 8 8 8 8 8 8 9 9 9 10
33 32 30 28 27 26 24 22 21 19 16 14 12 12 12 10 10 12 12 12 11 9 9 9 9 9 9 9 9 9 9 9 8 8 9 9 9 9 10 10 10 11
35 34 32 29 27 25 23 22 22 20 16 15 14 13 13 12 12 13 13 12 11 10 10 10 9 10 9 9 10 9 10 11 10 10 11 11 10 11 11 11 11 12
36 35 33 29 27 25 24 23 22 20 18 16 15 14 14 13 13 13 12 12 11 10 10 10 10 10 11 11 11 10 10 10 11 11 12 12 11 12 12 12 12 12
37 35 34 31 29 27 25 24 24 23 21 18 16 15 14 14 13 13 12 10 10 10 10 10 11 11 11 12 12 12 12 11 11 11 12 12 12 12 12 12 13 13
38 35 34 33 30 29 28 27 27 26 23 20 18 15 15 15 13 12 11 9 9 10 10 11 12 12 13 13 13 14 14 14 13 13 13 13 12 12 12 12 13 14
38 36 35 33 31 31 32 30 29 28 25 21 18 17 16 15 13 12 10 8 7 9 10 11 13 13 13 14 15 15 15 15 14 14 14 13 13 12 12 13 13 14
40 39 36 34 34 35 34 33 31 29 26 22 19 18 17 15 13 12 9 7 7 9 11 11 13 14 15 16 17 17 17 16 15 15 15 14 13 13 13 13 14 15
41 40 39 38 38 38 36 33 30 28 26 22 20 20 18 16 14 13 11 11 11 11 12 14 14 15 16 17 19 19 19 19 17 16 15 14 14 14 13 14 15 16
43 42 42 41 41 40 35 31 29 29 27 23 21 22 19 16 17 17 16 16 14 12 14 16 17 17 17 18 19 20 20 20 17 16 16 16 15 14 13 14 16 17
44 43 44 45 42 36 32 30 30 30 27 24 23 22 19 19 22 23 21 20 17 19 23 22 20 19 18 18 19 20 21 21 18 16 16 17 16 15 15 16 17 17
44 45 46 43 36 29 29 31 30 29 29 27 25 24 26 32 35 31 27 24 21 23 29 29 24 20 19 20 20 20 21 21 19 18 17 17 17 16 16 16 17 17
44 43 38 34 33 33 33 31 28 30 30 28 28 33 40 45 45 39 35 33 28 25 29 31 26 21 21 22 21 20 21 21 20 19 18 18 18 17 17 17 17 17
39 31 26 29 35 38 36 32 31 33 35 36 41 46 48 48 46 43 42 41 36 30 30 31 28 24 23 24 23 22 21 21 21 21 19 19 18 18 18 17 17 17
30 23 23 30 34 35 36 37 40 45 48 49 51 52 51 47 44 44 45 45 39 32 28 29 29 27 24 24 24 22 20 20 20 21 20 20 20 20 19 18 18 18
22 25 30 34 34 34 35 36 42 51 56 55 54 54 52 48 44 44 46 46 43 36 29 27 29 29 26 24 25 23 20 19 19 20 21 21 21 21 21 22 22 22
19 26 33 34 33 33 32 30 34 44 53 56 57 57 55 51 47 46 46 46 44 39 32 29 30 30 27 25 24 22 20 19 19 19 20 22 23 24 24 24 25 24
20 24 28 27 28 28 27 27 28 34 44 51 55 56 55 53 51 49 48 46 43 37 31 29 30 29 26 24 24 22 21 19 19 18 20 22 24 25 25 26 26 27
19 22 23 22 22 22 23 25 26 27 33 40 47 51 53 53 52 51 49 47 43 37 31 28 28 27 25 24 24 24 22 21 19 19 20 22 23 24 26 27 27 28
18 20 19 18 18 18 20 21 22 22 25 31 39 45 49 51 50 50 50 46 40 35 32 29 28 26 24 24 26 27 25 22 21 21 22 23 24 25 27 28 28 28
16 16 16 15 14 15 17 17 17 20 22 27 34 40 45 49 49 49 49 42 34 34 36 33 29 27 26 27 28 28 27 25 24 23 24 25 26 27 28 28 28 29
12 12 11 11 12 13 13 13 15 18 20 21 25 28 33 39 42 44 45 39 34 36 37 33 31 31 30 29 28 27 27 28 27 25 26 26 27 27 27 28 29 30
10 9 9 9 10 10 10 11 12 14 15 16 18 19 22 26 29 29 32 33 33 35 33 31 31 32 28 26 27 28 29 30 27 26 26 25 24 25 27 28 29 29
10 10 10 10 9 10 11 12 12 12 13 14 15 16 19 22 21 20 22 25 27 29 29 28 27 27 25 26 29 32 31 29 26 24 23 22 22 23 26 27 28 27
10 11 12 12 12 13 14 14 13 12 13 14 13 13 15 17 18 18 19 19 20 23 27 28 26 26 27 28 30 31 28 26 23 21 20 20 22 24 25 27 27 25

ECMWFNIL_850_spd_009.txt.gz
Wind_Speed
28 27 26 25 24 23 21 19 18 18 17 14 13 13 13 12 11 12 13 11 10 10 10 8 8 9 9 9 9 9 8 7 6 5 5 5 6 6 6 6 6 6
28 28 27 27 26 24 23 21 20 20 19 17 15 15 14 13 13 14 14 13 13 12 10 9 8 8 8 9 8 8 8 7 6 6 7 8 8 8 7 7 7 8
29 29 29 28 27 25 24 23 23 22 20 18 17 16 15 14 14 15 14 14 14 13 11 10 9 9 8 9 9 8 7 7 6 6 8 9 9 9 8 8 8 8
31 30 30 29 28 26 25 25 25 24 21 19 18 16 16 16 15 14 14 15 14 14 13 11 11 10 9 9 9 9 8 8 8 8 9 10 10 11 10 9 10 10
31 31 30 30 30 28 26 26 26 24 21 19 18 17 18 17 14 13 14 15 14 14 15 14 12 13 12 10 9 8 9 9 9 9 10 10 10 11 11 10 11 11
33 32 32 32 32 30 29 27 25 23 20 18 18 18 18 17 15 15 15 15 15 14 16 16 14 14 14 11 8 7 8 9 9 10 11 11 11 11 11 12 12 13
35 34 34 33 33 31 30 27 25 23 20 19 19 18 18 17 17 16 16 16 16 17 18 17 16 16 15 12 8 8 9 10 11 12 13 13 13 13 13 14 14 14
38 37 36 34 32 30 28 26 25 23 22 21 20 19 18 18 18 17 17 19 19 20 20 18 17 17 17 15 11 9 9 11 12 13 13 14 14 15 15 14 14 15
39 38 37 35 32 30 26 25 25 24 24 24 22 21 21 22 22 22 24 25 23 23 22 21 19 19 19 17 14 9 6 9 12 13 13 13 14 15 15 14 15 15
40 39 37 33 31 29 26 25 27 26 26 27 26 26 27 28 28 28 31 31 28 25 25 24 22 20 19 18 16 10 6 9 13 14 14 15 15 16 15 14 15 15
42 39 35 31 30 30 28 27 29 30 29 29 30 32 34 35 35 34 36 37 34 28 27 26 23 21 20 18 16 13 9 10 13 14 14 15 15 16 15 14 15 15
42 37 33 31 32 33 33 32 34 37 36 33 34 38 41 42 40 39 39 40 37 31 28 27 24 22 21 18 15 15 13 12 13 14 14 15 15 16 15 15 15 15
39 36 35 36 36 36 36 36 37 40 41 39 39 42 44 44 42 40 41 41 38 33 30 28 25 24 23 18 15 17 16 14 15 16 16 15 15 15 15 15 15 14
32 33 37 41 40 39 39 40 41 43 44 43 44 45 45 44 43 43 44 43 40 35 31 29 28 27 25 20 16 17 18 17 17 18 17 16 16 15 15 15 14 13
31 33 38 42 42 41 41 43 47 49 49 47 48 48 47 45 44 44 45 44 42 37 33 31 31 31 28 22 17 17 18 19 19 20 20 18 17 16 16 15 14 15
31 33 34 38 43 43 43 45 49 51 51 50 49 48 47 45 44 45 45 43 42 39 36 35 35 35 32 26 20 17 18 19 21 22 22 20 19 18 16 16 16 18
32 34 33 35 39 41 42 44 46 46 47 48 47 47 46 45 44 45 45 43 41 40 39 38 38 37 35 29 23 18 18 20 22 24 23 21 20 18 17 16 17 18
35 36 34 33 34 34 36 38 40 41 43 44 45 45 46 47 47 47 46 44 43 42 40 40 39 38 36 31 24 19 18 21 23 25 25 23 21 20 18 18 17 18
36 35 33 33 31 29 30 33 35 37 39 42 44 44 45 47 48 49 47 46 45 43 41 39 37 36 35 31 26 22 20 22 24 25 26 25 23 20 19 19 19 19
35 33 32 31 28 25 26 29 32 33 35 38 41 42 44 45 47 49 48 48 46 43 41 38 33 30 31 30 27 23 22 24 26 26 26 25 23 21 20 20 19 19
32 31 30 28 24 22 24 26 28 30 30 32 35 38 41 43 46 48 48 47 45 42 40 36 29 26 29 31 28 24 23 25 26 26 26 25 23 21 20 19 19 19
28 29 29 25 21 21 23 23 24 25 25 27 29 32 36 37 38 40 43 43 42 38 34 29 26 25 30 33 29 24 23 25 25 26 27 26 24 21 20 20 20 19
24 26 25 22 19 20 21 20 21 22 22 22 22 23 27 27 23 24 27 30 31 30 26 23 24 27 31 31 28 25 25 26 26 28 28 26 24 21 21 21 19 19
23 21 20 20 19 19 19 17 17 18 18 17 16 17 20 21 19 19 20 21 22 23 22 23 25 28 31 31 29 26 25 26 27 27 27 26 25 23 21 19 19 22
22 20 19 18 18 18 18 16 15 14 14 14 13 14 17 18 18 18 17 18 20 21 23 24 24 24 27 28 28 27 26 26 26 25 24 25 24 22 19 18 19 19
21 20 18 17 18 18 17 15 13 13 13 13 12 12 13 14 14 14 13 15 17 18 20 20 18 18 21 22 23 25 25 25 26 25 23 22 21 18 16 17 18 16

ECMWFNIL_850_spd_012.txt.gz
Wind_Speed
30 28 27 26 25 23 23 24 23 21 19 19 18 16 15 16 16 14 13 14 14 15 13 10 9 9 11 12 12 16 15 11 11 9 6 7 8 8 9 8 7 9
31 30 28 27 26 24 24 24 23 21 20 19 17 17 17 18 17 16 16 17 18 15 12 9 8 9 11 11 11 14 15 13 13 12 10 10 10 10 11 10 7 7
32 31 30 29 27 26 25 24 22 21 21 20 18 18 19 18 18 18 19 20 20 18 15 11 10 10 11 12 11 12 13 13 13 14 13 13 12 12 12 10 8 8
32 32 31 30 28 28 27 25 24 23 22 22 21 21 21 20 20 21 21 21 20 19 17 14 13 12 11 13 12 12 12 12 12 14 14 13 11 11 12 12 12 13
33 32 31 31 29 28 28 27 26 26 25 24 24 24 25 24 24 24 24 23 21 20 18 17 16 14 12 14 14 13 13 12 11 13 15 14 13 11 11 11 10 11
35 33 32 31 30 30 29 29 28 28 28 27 26 26 27 27 26 26 26 25 23 22 21 19 18 16 14 14 15 15 14 13 11 12 14 14 14 12 10 9 8 7
36 35 33 32 31 31 31 29 30 31 30 29 29 29 30 29 28 28 28 26 24 23 23 22 20 18 16 15 15 16 15 14 12 13 13 12 12 12 10 9 10 10
37 36 35 34 33 33 31 31 32 33 32 31 32 32 32 31 30 29 29 28 26 25 25 24 22 20 19 17 16 16 15 14 14 15 15 15 14 13 11 10 11 13
37 36 36 36 36 34 33 33 34 35 34 33 33 33 34 33 31 30 30 30 29 28 27 26 24 22 21 20 18 16 14 13 13 16 18 18 18 16 13 11 11 11
38 37 38 38 38 36 36 37 37 37 36 34 34 34 34 35 33 32 32 32 31 31 30 29 27 25 23 22 20 17 15 14 14 15 16 17 16 15 13 11 11 12
40 39 39 39 39 39 39 39 39 40 39 37 37 37 37 37 36 35 35 35 34 33 32 31 29 27 24 24 22 19 17 15 15 16 15 15 15 15 13 12 12 13
42 42 40 39 39 41 40 40 40 41 41 40 40 40 40 39 38 38 38 37 36 35 34 34 31 28 26 25 23 21 19 17 17 17 16 17 18 17 16 14 13 14
43 43 42 40 41 42 41 41 42 42 42 43 42 42 41 40 39 39 39 40 38 36 35 35 33 30 28 27 25 23 20 19 19 17 16 18 18 18 17 15 15 15
42 43 42 42 42 42 42 42 43 43 43 44 44 44 43 41 40 41 42 41 39 38 37 37 34 33 31 28 26 25 22 21 19 17 16 17 17 17 17 16 16 16
41 41 42 42 43 43 44 44 44 44 45 44 44 45 44 42 40 42 44 42 40 39 39 38 37 36 34 30 28 27 25 22 19 17 17 18 19 19 18 18 18 17
40 40 41 42 44 45 45 45 45 45 46 45 45 44 43 41 41 43 45 43 41 41 40 40 39 37 35 32 29 27 26 23 20 18 17 19 21 21 20 20 19 18
40 40 41 43 45 47 46 46 46 46 46 45 44 44 42 40 41 43 44 43 42 41 41 42 41 39 37 34 31 28 26 23 20 18 18 19 22 23 22 21 19 18
42 42 42 43 45 46 46 45 45 45 44 43 43 42 42 42 42 43 42 40 39 41 42 42 41 40 38 36 33 29 26 24 21 19 20 21 23 24 23 22 20 19
44 43 43 43 43 43 44 44 44 43 42 41 42 42 43 43 42 42 41 38 37 38 39 40 40 40 38 37 34 29 26 24 21 20 22 23 23 23 23 22 21 20
45 44 43 43 42 41 43 43 42 41 41 42 42 42 43 43 42 42 41 39 38 37 37 36 37 38 37 36 33 28 26 25 22 21 22 23 22 23 23 22 21 20
46 44 44 43 42 42 42 39 36 37 41 42 41 41 41 42 41 41 41 39 37 37 36 35 34 34 34 33 30 26 24 24 24 22 23 24 24 24 23 22 21 21
46 44 44 43 42 40 36 31 31 36 39 39 38 38 38 39 39 38 38 37 35 34 34 32 30 29 28 27 24 21 21 22 23 24 25 25 25 25 25 23 21 21
45 44 44 43 39 35 31 29 31 34 36 35 34 34 34 34 34 33 33 32 30 28 28 27 25 24 23 23 22 20 20 21 23 24 25 25 24 25 24 23 22 21
45 44 42 38 34 31 30 30 31 32 33 32 32 32 31 30 27 25 24 23 20 18 17 19 20 21 22 22 22 21 21 21 22 22 23 23 23 23 23 22 21 20
43 40 37 34 32 31 30 30 29 29 28 27 28 28 28 26 22 19 18 17 15 14 14 14 15 18 20 21 21 21 22 22 21 21 22 22 22 22 21 21 21 20
35 34 33 32 31 30 27 25 25 25 24 25 26 25 25 24 21 18 17 14 13 14 16 16 16 17 19 20 22 22 21 21 21 21 22 22 21 20 19 20 20 20

ECMWFNIL_850_spd_018.txt.gz
Wind_Speed
42 40 38 38 37 35 33 32 31 30 30 29 27 27 26 25 24 24 24 24 23 21 17 15 14 13 12 11 11 13 13 12 11 11 14 16 16 16 15 17 19 18
43 41 39 38 37 36 35 34 32 31 31 29 28 27 26 26 26 25 25 25 23 21 18 17 16 15 14 13 13 14 14 14 13 12 14 15 16 16 16 19 21 21
44 42 41 40 38 36 36 35 34 32 31 30 28 27 27 27 27 26 25 25 24 22 20 19 18 16 16 15 15 16 15 14 14 14 13 14 16 18 18 19 21 23
44 43 42 41 39 37 36 36 35 34 33 32 30 28 27 28 28 27 26 25 25 24 22 21 20 18 17 17 17 17 17 16 15 15 14 14 17 18 19 20 21 23
43 43 42 41 40 38 37 37 37 36 34 33 30 29 28 29 30 28 27 27 26 25 23 22 21 20 19 19 18 19 18 17 17 17 17 17 17 18 19 21 22 23
41 43 43 42 40 39 39 39 38 36 35 33 32 31 30 30 30 30 29 28 28 26 25 24 23 22 22 21 20 20 20 19 19 19 19 18 18 18 19 20 21 23
41 42 43 43 41 40 40 40 39 38 36 34 33 33 32 32 32 31 31 30 29 28 26 25 24 24 24 24 22 22 21 20 20 20 20 20 19 19 19 19 19 21
39 40 42 43 42 41 42 41 40 39 37 36 36 35 34 33 33 33 32 31 30 29 28 27 26 26 26 26 25 24 23 22 22 22 22 21 21 20 19 18 19 20
39 39 41 43 43 43 43 43 42 40 39 39 38 37 36 35 34 34 33 33 32 31 30 29 29 28 28 28 27 26 25 24 23 23 23 23 22 20 19 19 19 19
40 38 40 43 44 44 44 44 44 42 41 41 40 39 38 36 36 35 34 34 34 33 33 32 32 31 30 30 28 27 26 24 24 24 25 24 22 20 20 20 20 20
42 39 40 43 45 45 45 45 45 44 43 42 41 41 40 39 38 37 37 36 36 35 35 34 34 33 33 32 30 29 27 25 25 26 26 25 23 21 21 20 20 20
44 42 40 41 44 46 46 46 46 45 44 44 43 42 42 41 40 40 39 39 38 37 36 35 35 35 34 33 31 30 28 27 26 27 27 26 24 23 22 21 21 20
47 44 41 41 43 46 47 47 47 46 45 45 44 44 44 43 42 42 41 41 39 38 37 37 36 36 36 35 33 32 30 28 27 27 28 28 26 24 23 23 22 21
49 46 42 40 42 45 47 48 48 47 46 46 45 46 46 45 44 43 42 41 40 39 39 38 38 38 38 37 36 34 32 30 28 27 28 29 28 26 25 24 23 22
49 48 45 41 41 44 47 49 49 48 47 47 47 46 46 46 45 44 43 42 41 41 40 40 40 40 40 39 38 36 34 31 29 27 28 29 29 28 26 25 24 23
50 49 47 44 43 45 47 49 50 50 49 49 48 47 47 46 46 45 44 43 43 42 42 42 42 42 41 40 39 38 35 32 30 28 28 30 30 29 28 27 25 24
51 51 50 47 46 46 47 49 50 51 51 50 49 48 47 47 47 46 45 44 44 43 43 44 44 43 41 41 41 39 36 33 30 29 28 29 30 31 29 27 26 25
52 51 51 50 48 47 48 49 51 52 51 50 49 48 47 47 47 46 45 45 44 44 44 44 44 42 42 41 41 39 36 33 31 29 29 29 30 31 30 29 27 26
52 52 52 51 50 49 49 50 51 52 52 51 50 48 47 47 47 46 45 44 44 45 44 44 43 42 42 41 40 38 35 33 31 30 29 29 29 30 30 30 30 28
52 52 52 51 50 49 50 51 52 52 52 51 49 48 48 48 47 46 45 44 44 44 43 43 42 42 41 40 38 36 34 33 31 30 30 30 29 29 30 32 32 29
52 52 52 51 50 49 49 50 51 51 51 50 50 49 49 48 47 46 44 44 44 43 43 42 41 41 40 37 35 33 32 31 30 31 31 30 29 29 30 32 32 29
52 52 51 51 49 49 49 49 50 50 50 50 49 49 48 47 46 44 44 43 43 42 42 41 40 39 38 35 33 30 29 29 30 31 31 31 30 30 31 32 32 29
53 52 51 50 49 48 48 48 49 49 50 49 48 48 48 46 45 44 43 43 43 42 41 40 39 37 35 32 30 28 27 28 30 31 31 31 32 32 32 32 31 29
54 53 52 51 50 49 48 48 48 48 48 48 48 48 46 44 43 43 43 43 42 41 39 38 37 35 32 29 27 25 25 26 28 30 31 32 33 33 32 31 30 29
54 53 52 51 50 49 48 47 46 46 46 46 47 46 44 42 42 42 42 42 40 39 37 35 33 31 28 26 24 23 23 24 26 29 31 33 33 33 32 31 29 28
55 54 53 52 51 50 48 47 46 45 46 46 46 45 43 41 42 42 41 40 38 36 34 31 29 27 25 23 22 21 21 23 25 27 29 31 31 31 30 29 29 27

ECMWFNIL_850_spd_021.txt.gz
Wind_Speed
46 44 43 42 41 40 39 38 36 34 31 31 31 30 29 28 26 25 25 26 25 23 22 22 20 20 19 18 16 15 13 13 12 12 13 15 16 16 16 15 16 17
46 45 44 43 42 41 40 39 38 36 33 32 31 30 29 28 27 25 25 26 25 23 23 22 21 20 20 18 16 14 13 13 13 13 14 15 15 15 15 15 17 18
47 46 44 43 42 41 40 40 39 38 36 34 32 30 29 29 27 26 25 26 25 24 23 24 23 22 21 19 16 15 14 14 14 15 15 15 15 15 15 16 18 19
48 46 45 43 41 40 39 39 40 40 39 37 34 32 30 29 28 27 26 26 26 26 25 25 24 23 22 20 18 17 16 15 15 16 16 16 16 17 17 17 19 19
48 47 45 43 41 40 40 39 40 39 39 39 37 34 32 30 30 28 27 28 28 27 27 26 25 25 23 22 20 19 18 17 16 17 18 18 17 18 19 19 19 19
49 48 46 43 42 41 40 39 39 39 39 39 38 36 34 32 31 30 28 29 29 29 28 27 26 26 25 23 22 21 19 18 18 19 20 19 19 19 20 20 20 20
50 48 46 44 43 42 41 39 38 39 39 39 39 39 36 34 33 32 30 29 30 30 29 28 28 27 26 24 23 22 21 19 19 20 21 21 21 21 21 20 21 21
49 48 46 45 44 43 42 40 39 39 38 39 40 40 38 36 34 33 31 30 30 30 30 30 29 28 27 26 25 24 22 21 21 22 23 23 23 23 22 21 22 22
49 47 46 45 44 44 42 41 40 39 39 39 40 40 39 38 36 34 32 32 31 31 31 31 30 29 28 27 26 26 24 23 23 23 23 24 24 25 24 23 23 23
49 47 46 45 45 44 43 42 41 40 40 40 40 40 40 39 37 35 34 33 33 32 32 32 32 30 29 29 28 27 26 25 24 24 24 24 25 25 25 25 24 23
49 48 46 46 45 44 43 42 41 41 41 40 41 41 40 40 38 37 36 35 34 34 33 33 33 32 31 30 29 28 28 26 25 25 25 25 25 26 26 26 25 24
50 48 47 45 44 44 44 42 42 42 41 41 41 41 41 40 40 39 38 37 36 35 34 34 33 33 32 31 30 29 29 28 27 26 26 26 26 26 27 28 27 25
50 49 47 45 44 44 44 43 43 42 42 42 41 41 41 41 41 40 39 39 38 37 36 35 34 34 34 33 32 31 30 29 29 28 28 28 27 27 28 28 28 27
51 49 47 44 43 43 44 44 44 43 42 42 41 41 41 40 41 41 40 40 39 39 38 37 36 36 36 35 34 33 32 31 30 30 29 29 29 28 29 29 29 28
52 50 48 45 44 43 44 44 44 44 43 42 42 41 40 40 40 41 41 41 41 40 39 39 38 38 38 37 36 35 33 32 32 31 30 30 30 29 29 30 30 30
53 51 49 47 46 45 44 45 45 44 44 44 43 42 40 40 40 41 42 42 42 41 41 41 40 40 39 38 37 36 35 34 33 32 31 31 30 30 30 30 31 32
53 52 51 49 48 46 46 45 45 45 45 44 44 43 41 40 40 42 43 43 43 43 42 42 42 41 41 39 37 37 36 35 33 32 32 31 31 31 30 30 31 33
53 53 52 50 49 48 47 47 46 46 45 45 45 45 42 41 41 42 42 42 43 43 43 43 43 43 42 39 38 37 37 36 34 33 33 32 32 31 31 31 32 33
53 52 52 51 50 49 48 48 47 47 46 46 45 45 44 43 43 42 42 42 43 44 43 43 44 43 42 40 38 38 37 35 35 34 34 33 32 31 31 32 33 31
52 52 52 52 51 49 49 49 49 48 47 46 45 45 45 45 44 44 42 42 43 43 43 43 44 43 41 40 39 38 36 34 34 34 34 33 32 31 32 33 34 31
53 53 52 52 51 50 50 50 49 48 48 47 46 46 46 46 46 44 42 42 42 42 42 43 43 42 41 39 38 36 34 33 34 34 33 33 31 32 34 35 33 31
53 53 52 52 51 51 51 51 50 49 49 48 47 47 47 47 46 44 43 43 42 42 42 42 42 42 40 39 37 35 33 32 33 33 33 32 31 31 35 35 32 30
54 53 52 52 51 51 51 51 51 50 49 48 48 48 48 48 47 45 44 43 43 43 42 41 41 40 39 38 35 33 32 32 32 32 32 31 31 33 35 34 32 31
53 53 52 52 52 52 52 51 51 50 50 49 49 49 48 48 47 45 44 44 44 43 42 40 40 39 37 36 33 31 31 30 30 31 31 31 32 33 32 29 30 32
53 53 52 52 53 53 52 51 51 50 49 49 49 48 48 47 46 45 45 45 44 43 41 40 39 37 35 34 31 30 29 28 28 30 30 31 32 31 28 27 29 32
52 52 52 52 53 54 53 52 51 50 50 49 48 48 47 47 46 45 46 45 43 42 40 39 38 36 34 32 30 29 27 26 27 29 29 28 27 26 27 28 28 30

ECMWFNIL_850_spd_024.txt.gz
Wind_Speed
40 39 38 38 37 37 35 33 32 31 31 30 29 28 27 27 26 26 25 24 24 23 21 20 19 18 18 18 18 17 16 16 16 16 16 14 12 12 12 12 13 14
43 41 40 39 38 38 37 35 33 32 31 30 29 28 27 27 27 26 26 25 24 23 21 21 20 19 20 19 18 18 17 17 17 16 15 13 12 12 12 12 13 14
45 44 42 41 39 38 37 36 35 33 32 31 30 29 28 28 27 27 27 25 25 23 22 21 20 21 21 20 19 19 18 17 17 17 15 13 12 12 12 12 13 14
47 46 44 42 40 38 37 36 35 34 34 33 32 30 29 28 28 28 27 26 26 24 23 22 21 22 21 20 20 20 19 18 18 17 16 14 13 13 12 13 14 14
48 47 45 44 42 41 39 38 36 35 34 34 33 32 31 31 29 29 28 27 26 25 24 23 23 23 22 21 22 21 20 20 19 19 17 16 15 14 13 14 15 15
49 48 47 45 44 43 42 40 38 36 35 34 33 33 33 33 32 30 29 28 27 26 25 25 24 24 24 23 23 23 22 22 22 20 19 18 17 17 16 16 16 16
51 49 48 46 45 44 44 42 39 38 36 34 33 33 33 34 33 32 31 29 28 27 26 25 25 25 25 24 24 25 24 24 23 22 21 19 19 19 18 18 18 18
50 50 48 47 46 46 45 44 41 40 38 36 35 34 33 34 34 33 33 31 29 28 27 26 26 26 27 26 26 26 26 25 25 24 23 21 21 20 20 19 19 19
50 50 49 48 48 47 46 45 43 40 39 38 36 35 33 33 34 34 34 33 31 30 29 28 27 28 28 29 28 27 27 26 26 26 25 23 22 21 21 21 21 21
52 51 50 49 49 47 46 45 43 41 40 39 38 36 35 34 34 34 34 34 33 32 31 29 29 29 29 30 30 29 28 28 27 27 26 24 23 22 21 22 22 23
53 52 51 51 49 48 46 44 42 41 40 39 39 38 36 35 35 35 35 35 35 34 33 31 30 30 30 31 31 30 29 29 28 28 28 26 24 23 22 22 23 24
54 53 52 51 50 48 46 44 42 41 40 40 39 38 37 37 36 36 37 36 36 35 34 32 31 31 31 31 31 30 30 29 29 29 29 27 26 24 24 23 23 24
55 54 53 51 49 47 45 43 42 41 41 40 39 38 38 38 38 38 38 37 37 36 35 34 32 32 31 31 31 31 30 29 29 30 29 28 27 26 25 25 24 24
55 54 52 51 49 47 46 44 42 42 41 40 39 38 38 39 39 39 38 39 39 38 37 35 34 33 32 31 31 31 31 30 30 31 30 29 29 28 27 27 26 25
54 53 52 51 49 48 47 45 43 42 41 40 39 39 39 39 40 40 39 40 40 40 39 37 35 34 33 32 32 32 32 32 31 31 31 30 30 30 29 28 27 26
53 53 52 51 50 49 47 46 44 43 42 41 40 40 39 40 40 41 41 42 42 41 41 39 37 36 34 33 33 33 32 32 31 31 31 31 31 31 30 29 27 27
53 53 53 52 50 48 47 46 45 44 43 41 40 41 41 41 41 42 43 43 43 43 42 41 39 37 35 34 33 33 33 32 32 31 31 32 32 32 31 29 28 27
53 53 53 52 51 49 47 46 46 45 44 42 42 42 42 42 43 44 44 44 44 44 43 42 40 38 36 35 34 33 33 32 32 31 31 32 32 32 31 29 28 28
54 53 53 53 52 50 48 47 47 46 45 44 43 43 43 44 44 45 45 46 46 45 44 42 41 38 37 36 35 33 32 32 31 31 30 30 31 31 30 28 28 31
54 53 53 53 52 50 49 49 48 47 46 44 44 44 44 45 45 45 46 47 47 46 44 43 41 39 38 37 35 33 31 31 31 30 29 29 29 29 28 27 29 32
54 54 53 52 51 51 50 50 49 48 47 46 45 45 46 46 46 46 46 47 47 47 45 44 41 40 39 38 36 33 30 30 30 29 28 28 27 27 27 27 29 31
54 53 53 52 51 51 50 50 50 49 48 47 47 46 47 47 47 47 47 48 47 47 46 45 43 42 40 38 35 32 30 30 30 29 28 28 26 25 26 27 29 30
53 52 51 50 50 50 51 50 50 49 49 48 48 48 48 48 48 48 48 48 47 47 47 46 45 43 41 38 35 33 31 30 30 29 28 27 24 24 26 28 28 29
51 50 49 49 50 51 51 50 49 49 49 49 49 49 49 48 48 48 48 48 48 48 47 46 46 45 42 38 36 33 31 30 28 28 27 26 24 25 27 28 28 28
50 50 49 50 50 51 51 50 48 47 47 48 48 49 49 48 49 49 49 49 49 48 46 45 46 46 43 40 37 33 30 28 27 27 27 25 24 26 27 27 28 28
49 50 50 50 50 50 50 49 48 47 46 47 48 49 49 49 49 50 50 49 49 47 46 45 46 47 45 42 37 33 29 27 27 28 26 24 24 26 27 28 28 27

ECMWFNIL_850_spd_027.txt.gz
Wind_Speed
38 36 35 35 35 34 34 34 33 33 31 30 29 28 26 24 22 21 21 21 21 21 21 22 21 20 19 18 17 16 16 15 15 14 13 13 12 12 13 13 14 14
39 38 37 36 36 34 33 32 32 32 31 29 29 28 27 26 24 22 21 20 21 21 22 22 22 21 20 19 18 17 17 16 16 15 15 14 13 13 14 14 14 13
40 40 39 38 37 36 34 33 33 31 30 29 28 28 27 27 26 24 22 21 21 21 22 23 22 22 21 19 18 18 18 18 17 17 16 16 14 14 14 14 14 13
42 41 40 39 38 37 35 35 34 32 31 31 30 28 27 27 27 26 24 23 22 22 23 23 23 22 21 20 19 19 19 19 18 18 18 18 16 15 15 14 14 13
43 42 41 41 40 38 37 36 35 33 32 31 31 30 29 28 27 27 26 25 24 24 24 24 24 23 22 20 20 20 20 20 20 19 20 19 18 16 16 15 14 13
45 44 43 42 41 40 39 38 36 35 34 32 31 30 30 30 29 29 28 27 26 25 25 25 25 24 24 22 21 22 22 22 22 21 21 20 19 19 18 16 15 14
46 45 44 43 43 42 41 40 39 37 35 33 32 31 30 31 30 31 30 29 28 27 26 26 26 25 25 23 23 23 23 23 23 23 23 22 21 21 20 18 17 16
46 46 45 45 44 44 43 42 41 39 37 35 34 33 31 31 31 31 32 32 31 30 29 28 27 26 25 24 24 24 24 24 25 25 25 24 23 22 21 20 19 18
46 46 45 45 45 45 45 44 42 40 39 37 36 35 33 33 32 31 32 33 33 33 32 31 30 28 27 26 25 25 25 25 26 26 26 26 25 24 23 22 21 20
47 47 46 46 46 47 46 45 44 42 41 39 38 37 36 34 33 32 32 33 35 35 35 34 33 31 29 28 26 26 26 26 27 27 27 27 26 25 23 23 23 22
49 48 47 47 47 47 46 44 44 43 42 41 40 39 38 36 34 33 33 34 36 37 37 36 36 34 32 29 28 28 27 28 28 28 28 28 27 25 24 23 23 23
51 50 49 49 48 47 45 44 44 43 42 41 40 40 40 38 36 35 34 35 36 37 38 37 37 36 34 31 30 29 29 29 30 30 29 29 28 26 25 24 24 23
53 52 51 50 48 46 45 44 44 44 43 41 40 41 41 40 38 36 35 36 36 37 38 38 38 38 35 32 31 31 31 30 31 31 31 31 29 27 26 26 25 24
54 53 51 50 49 47 46 46 45 44 43 42 41 41 42 40 38 37 36 36 36 37 38 39 39 39 37 35 34 33 33 32 32 32 32 32 31 29 28 28 27 26
54 53 52 51 50 48 48 47 47 45 44 43 42 42 42 40 39 37 37 37 37 37 39 40 41 41 39 37 36 35 35 34 33 33 33 33 32 30 29 29 29 29
53 52 52 52 51 50 50 49 48 47 45 44 43 42 42 42 40 39 39 39 38 38 40 41 43 43 41 39 37 36 36 36 35 34 34 33 32 31 30 30 30 30
52 51 52 52 52 51 51 49 49 48 46 45 44 44 44 43 42 41 40 40 39 39 40 43 45 45 43 40 38 37 37 37 36 35 34 34 33 32 32 31 30 30
51 52 52 51 51 51 51 50 49 48 47 46 45 45 44 44 44 43 41 40 40 41 42 44 46 46 44 41 39 38 38 38 38 36 35 35 34 33 32 31 31 30
51 52 52 52 51 51 50 50 49 49 48 47 46 45 45 45 45 43 42 41 42 42 43 44 46 47 45 42 40 39 39 39 39 38 37 36 34 33 32 31 31 31
51 51 52 52 51 51 50 50 50 49 49 48 48 47 46 47 47 45 44 43 43 43 43 44 46 48 46 43 42 41 40 40 40 39 37 36 35 34 33 32 31 31
52 52 52 52 51 51 50 50 50 49 49 49 49 49 49 48 47 46 45 45 44 43 43 44 46 48 47 45 43 42 41 41 41 40 38 37 36 35 34 33 32 31
50 50 51 51 50 50 50 50 50 50 49 49 49 50 49 48 48 48 47 46 45 44 44 45 46 48 47 46 44 43 42 42 42 41 40 39 37 36 35 34 33 30
49 49 49 49 49 50 50 50 50 49 49 48 48 49 49 49 49 47 45 45 46 45 45 45 46 47 48 46 45 44 44 43 43 42 41 41 38 36 35 35 33 31
46 47 48 49 50 50 50 49 49 49 49 48 48 48 50 51 49 45 43 45 48 47 46 46 45 46 47 46 45 45 45 45 43 42 42 41 39 37 36 35 33 31
44 46 48 48 49 49 49 49 49 49 49 49 49 49 49 48 45 43 43 45 47 48 47 46 45 45 46 46 45 46 46 45 43 42 42 41 39 37 36 35 34 32
43 45 47 47 47 47 48 48 48 48 49 48 49 50 50 47 44 42 42 44 47 48 47 47 46 46 46 47 46 45 45 44 43 43 42 41 40 38 37 36 35 34

ECMWFNIL_850_spd_030.txt.gz
Wind_Speed
40 40 39 39 38 36 35 34 33 32 31 29 29 28 26 26 25 25 24 23 23 23 22 22 20 19 17 15 14 14 13 13 11 9 9 10 10 10 11 12 12 12
41 41 40 39 39 38 37 36 34 33 32 30 29 28 27 27 27 26 25 24 23 23 23 22 21 20 18 17 16 15 15 15 13 10 10 11 12 12 13 13 13 13
41 41 41 40 40 39 37 36 35 34 33 31 30 30 29 29 28 27 26 25 24 23 22 21 20 20 20 18 18 17 17 17 14 11 11 12 13 13 14 14 13 14
43 42 41 41 41 39 36 36 35 34 33 32 31 31 31 30 30 29 28 27 26 25 23 21 21 21 21 20 20 19 20 18 14 12 12 12 14 15 15 15 15 15
45 44 43 42 41 39 37 37 36 34 33 32 32 31 31 31 31 30 30 29 28 28 26 24 23 23 22 22 21 21 22 19 16 16 15 13 14 17 17 17 17 17
47 46 45 42 41 41 40 39 38 36 34 32 32 32 31 31 31 31 31 30 30 29 28 27 26 25 24 24 23 23 23 21 17 18 19 17 15 17 19 20 19 19
48 48 47 45 44 42 41 40 39 38 36 34 33 32 32 32 31 31 32 31 31 30 30 29 28 27 26 25 25 24 24 24 20 19 21 21 18 19 22 22 21 20
49 48 47 47 45 43 42 42 40 39 37 36 35 34 33 33 32 32 33 33 32 32 32 31 30 30 28 26 27 26 25 26 24 23 24 25 23 23 24 24 23 22
48 48 47 46 46 45 44 43 42 40 38 37 37 35 34 34 33 33 34 34 35 34 33 33 32 31 30 28 27 28 27 26 26 26 27 28 27 26 26 25 25 24
48 48 48 47 47 46 46 44 43 42 40 39 38 37 37 36 35 34 34 35 36 36 35 35 34 33 32 30 28 29 28 27 27 28 28 29 29 28 28 27 27 26
48 48 49 48 48 48 47 46 45 45 44 42 40 39 40 39 37 36 36 35 36 37 37 37 36 35 35 33 31 29 29 29 28 29 29 30 30 30 30 29 28 27
48 48 48 48 48 48 48 47 46 46 46 45 43 41 41 41 40 39 38 37 36 37 37 37 37 37 37 37 34 32 31 30 30 30 30 31 31 31 31 31 30 29
49 48 48 47 46 47 47 46 45 45 46 45 43 42 42 43 43 42 39 38 37 37 37 37 37 38 38 39 38 34 33 33 32 32 32 32 33 33 32 32 31 30
51 49 48 47 47 47 46 45 45 44 44 45 43 42 41 42 43 42 40 39 38 38 38 38 38 38 38 40 40 36 35 36 35 34 34 34 34 34 34 33 32 31
50 50 49 48 48 48 47 46 46 45 44 45 45 43 41 41 41 41 40 40 39 39 39 39 40 40 40 41 41 38 37 39 38 37 36 35 35 35 35 35 34 33
50 49 49 49 49 49 49 48 47 46 46 46 46 45 43 42 41 41 41 40 40 39 40 40 41 42 42 42 42 41 41 41 40 40 38 37 36 36 36 37 36 35
49 49 48 48 47 48 49 48 48 48 47 47 47 47 46 44 43 43 42 41 41 39 40 41 43 43 43 43 43 43 43 42 41 41 40 39 38 38 38 38 37 37
49 48 48 47 47 47 48 47 47 48 48 48 48 48 47 46 45 45 43 42 42 41 41 41 43 45 44 44 44 44 43 43 42 42 42 41 41 40 39 39 38 37
47 47 46 46 46 46 46 46 47 47 48 48 48 48 46 45 45 45 44 44 44 42 43 43 43 44 45 44 45 45 44 44 44 44 45 44 42 41 40 40 39 38
46 46 45 45 46 46 45 46 46 46 47 47 48 48 46 43 41 38 39 44 41 36 39 44 45 45 46 45 46 46 46 45 44 45 46 46 44 43 42 41 40 39
44 45 45 45 45 45 45 46 46 45 46 47 47 48 48 45 42 38 38 40 35 28 32 39 42 45 47 46 46 48 47 45 44 45 46 47 47 45 43 42 41 40
43 43 44 44 44 44 45 45 45 45 45 47 47 48 48 47 46 45 41 34 29 29 33 35 37 43 47 47 47 49 48 46 45 45 46 48 49 47 45 44 43 42
41 42 43 42 42 43 44 43 43 44 45 46 47 47 48 48 47 47 44 35 31 34 36 34 35 41 45 47 48 48 47 47 46 46 47 48 49 49 47 45 44 44
41 42 42 41 41 42 42 42 42 43 44 45 46 46 47 46 44 43 43 41 37 34 34 34 36 38 40 45 48 47 47 47 46 46 48 48 49 50 49 47 44 44
41 41 40 40 40 41 41 42 42 43 43 43 44 45 45 44 40 37 39 40 36 32 32 34 35 35 37 42 46 47 47 47 46 47 48 49 50 51 50 48 45 43
40 38 37 38 40 41 41 41 41 42 43 43 43 44 43 42 40 37 36 36 34 32 32 33 33 33 35 39 43 45 47 47 46 48 50 51 51 50 50 49 44 39

ECMWFNIL_850_spd_033.txt.gz
Wind_Speed
38 38 37 37 36 36 34 33 33 32 30 29 28 27 27 27 25 24 24 24 22 21 20 20 19 17 17 16 16 15 14 14 14 13 13 13 12 13 14 15 14 14
39 39 38 38 37 37 36 35 35 34 33 31 29 27 27 27 27 26 26 26 24 22 21 21 21 19 19 18 18 17 16 16 16 14 12 12 13 14 15 15 15 16
41 40 40 40 39 38 37 36 36 35 34 33 31 29 28 27 28 28 27 27 26 24 22 22 22 21 21 20 20 19 18 17 18 17 14 13 14 15 15 16 16 17
43 42 41 41 40 39 38 38 38 37 36 35 34 32 30 28 28 29 29 28 27 27 25 24 24 23 22 22 21 20 20 18 19 19 16 14 16 17 17 17 17 17
44 43 43 42 42 41 40 40 40 39 38 37 35 34 33 31 30 30 30 30 29 28 27 26 25 25 24 23 22 21 22 20 19 21 19 17 18 18 18 19 19 18
45 45 44 44 43 43 42 42 41 40 39 38 37 35 34 34 33 33 32 32 31 30 29 29 28 27 26 25 24 23 23 22 21 22 20 17 17 19 19 20 21 21
47 46 46 45 45 44 44 43 42 41 40 38 37 36 35 35 35 35 34 33 32 31 30 30 30 29 28 27 26 24 24 24 23 22 21 18 17 19 20 22 23 23
49 48 47 47 46 46 45 45 44 42 41 39 38 37 37 36 36 35 35 34 33 33 31 30 31 31 30 29 29 28 26 25 25 25 25 21 18 19 21 23 25 25
49 49 48 48 47 47 46 46 44 43 42 41 40 38 37 37 37 36 35 34 33 33 33 32 32 33 32 31 31 31 28 26 24 25 27 25 22 22 23 23 26 27
50 50 49 49 48 48 47 46 44 43 44 43 41 40 38 38 37 37 36 35 34 34 34 34 34 35 34 33 33 32 31 29 24 24 27 28 26 27 26 25 27 29
50 50 50 50 50 49 48 47 45 42 42 43 43 41 39 38 38 38 38 37 37 36 36 36 37 37 36 35 35 34 33 32 28 25 27 29 29 29 29 28 30 31
50 50 51 51 50 50 49 48 47 43 39 39 42 43 41 39 40 40 40 39 39 37 37 38 38 39 39 37 36 36 35 34 32 29 28 29 30 30 30 31 32 32
49 50 50 50 50 49 49 48 47 43 39 37 39 43 43 41 41 42 42 40 40 39 38 38 39 40 40 40 38 37 37 36 35 33 31 30 30 31 32 32 33 33
48 48 48 48 48 48 48 47 46 43 40 38 38 41 43 42 41 42 43 42 41 40 39 39 40 40 41 42 41 40 39 38 38 37 35 33 31 31 32 33 34 34
46 47 47 47 46 46 46 46 45 43 41 40 39 41 41 41 39 39 41 43 42 41 41 40 41 42 42 43 43 42 42 41 40 40 39 36 34 33 33 33 34 35
45 45 47 47 47 46 46 46 45 44 43 42 41 40 40 40 39 36 36 40 43 43 43 42 43 44 44 44 44 43 43 42 42 42 41 39 38 37 35 34 35 36
46 47 47 47 47 46 47 47 46 45 46 45 43 41 39 39 40 38 36 36 39 42 43 44 45 45 45 45 45 44 43 43 43 43 43 42 41 40 38 37 38 39
46 48 47 47 48 46 47 47 46 47 47 46 46 44 42 42 42 42 40 37 36 39 41 43 44 45 45 45 45 45 44 43 43 43 43 43 42 42 40 39 40 41
45 46 47 47 48 46 46 45 46 46 47 46 46 45 44 45 45 45 45 42 40 39 39 41 42 43 45 45 45 45 44 44 44 43 43 44 43 43 42 42 42 43
45 45 45 45 46 45 45 45 45 45 45 45 46 45 45 46 47 46 46 46 44 42 41 42 42 42 43 44 44 44 44 45 45 44 45 45 44 39 38 42 46 45
45 45 43 43 44 43 43 43 43 43 43 43 44 44 45 46 46 46 46 46 46 44 43 43 42 41 43 44 44 43 44 44 45 46 47 47 45 39 34 38 45 48
44 43 43 43 43 42 42 41 41 42 42 42 42 42 42 43 45 45 45 45 46 46 46 44 41 40 42 45 46 44 43 43 45 47 48 48 48 45 41 41 44 43
43 43 43 43 43 42 42 41 41 41 41 41 42 42 41 41 42 43 42 44 45 45 46 45 41 39 41 43 45 45 43 44 46 47 49 49 50 49 47 47 44 38
41 42 42 42 42 42 41 41 41 41 40 40 41 41 40 38 37 37 38 40 42 43 44 44 42 41 41 42 42 43 44 44 46 48 49 50 51 51 51 52 50 43
39 40 41 41 41 41 41 40 40 40 39 39 40 40 38 35 33 33 34 36 37 38 40 42 42 41 42 42 42 44 44 44 45 47 49 52 52 47 44 47 51 50
38 38 39 40 40 39 39 39 38 38 37 37 37 36 34 34 33 32 32 32 33 35 36 39 41 41 42 43 43 44 45 44 45 46 49 54 51 40 34 38 44 48

ECMWFNIL_850_spd_036.txt.gz
Wind_Speed
36 35 35 34 33 33 32 31 30 29 28 28 28 27 27 26 24 22 22 22 21 20 20 19 19 17 16 15 16 16 16 15 15 15 14 15 16 14 14 16 17 16
38 37 36 35 34 34 34 33 32 31 30 28 27 26 26 25 25 23 22 22 22 21 20 20 20 19 18 18 17 17 18 17 16 16 16 16 16 15 14 16 16 18
40 39 38 37 36 36 35 34 34 33 31 29 28 27 25 24 25 25 24 24 23 22 21 20 20 21 20 20 19 18 19 19 18 17 17 17 17 16 16 16 16 17
41 40 40 39 38 37 36 36 36 35 33 31 30 29 26 25 24 25 26 25 26 25 24 22 21 21 21 21 21 20 20 20 19 19 19 18 18 17 17 17 17 18
42 41 41 40 40 39 38 38 37 36 35 33 31 30 29 27 26 25 25 26 27 27 26 24 23 22 22 21 22 22 22 21 21 21 21 21 20 19 18 18 19 20
44 43 43 42 41 40 40 39 39 38 37 35 33 31 30 29 28 27 26 27 27 28 27 26 25 24 23 23 23 23 23 23 22 23 23 23 23 22 21 21 21 22
45 44 44 43 43 42 42 41 40 39 37 36 35 34 32 31 31 30 29 28 28 28 28 28 27 26 26 26 25 25 24 24 24 25 25 25 25 25 24 23 23 24
46 45 45 44 44 43 43 42 40 39 38 37 35 35 34 33 32 32 31 30 29 29 29 29 28 28 28 28 28 27 26 26 26 27 27 27 27 28 28 26 24 25
46 46 46 45 45 45 45 44 42 41 39 38 37 35 35 35 34 33 33 32 31 31 30 30 30 30 30 30 31 30 29 28 28 28 29 29 29 30 29 28 27 27
47 47 47 46 47 47 46 45 45 44 42 40 39 37 36 35 35 34 33 34 33 33 33 32 32 32 32 32 32 32 31 30 29 29 30 31 30 30 30 30 29 29
48 48 48 47 47 47 47 46 46 45 44 42 41 39 37 36 36 36 35 35 35 35 35 34 34 33 33 33 34 34 33 33 31 31 31 32 32 31 31 31 31 31
49 49 49 48 47 47 47 46 46 45 44 43 42 41 39 37 37 37 37 37 37 37 36 36 35 35 35 35 35 35 35 34 34 33 33 33 33 33 32 32 32 32
50 49 48 48 48 47 46 45 45 44 43 42 41 40 40 38 38 39 39 39 39 38 38 38 37 36 36 37 36 36 36 36 35 35 34 34 34 34 33 33 33 33
48 48 48 48 47 47 46 45 44 43 41 40 39 39 39 38 39 39 40 40 40 40 39 39 38 38 38 38 38 38 37 37 37 36 36 36 36 35 35 35 35 34
45 46 46 47 47 47 46 45 44 43 42 40 40 39 39 38 37 38 38 40 40 41 40 40 40 41 40 40 40 40 39 39 38 38 37 37 37 37 37 37 36 35
43 44 44 45 46 46 46 46 45 44 43 42 42 41 40 39 37 36 37 39 40 41 41 42 42 42 42 42 42 41 41 40 40 39 39 39 39 39 39 39 38 37
42 43 43 44 45 46 46 46 45 45 44 44 44 43 42 40 39 38 37 38 39 41 42 43 43 44 44 43 43 42 41 41 41 41 41 41 41 41 41 40 40 39
44 44 44 43 44 44 45 45 45 45 45 45 45 44 43 42 41 41 40 38 38 40 41 43 43 44 44 44 44 43 42 41 42 42 42 43 43 43 42 42 41 41
44 44 44 44 44 44 44 45 45 46 46 46 46 45 44 44 44 44 43 42 41 41 41 42 42 43 43 44 44 43 43 42 42 43 44 44 45 45 44 44 43 43
44 45 45 45 44 44 44 45 46 46 46 46 46 45 45 46 46 46 45 45 44 44 44 43 43 42 43 43 43 43 42 42 42 44 45 45 46 46 46 46 46 45
43 44 44 44 44 44 44 45 46 47 46 46 45 45 46 47 47 47 47 47 46 46 46 46 45 44 44 44 44 42 42 41 42 43 45 47 47 47 47 47 47 46
42 42 43 44 44 44 45 46 46 46 46 45 45 45 45 46 47 47 47 47 47 46 47 48 48 47 46 46 45 43 42 41 41 43 45 47 48 48 48 47 47 46
42 42 42 43 43 44 46 46 46 45 44 44 44 44 44 45 47 47 47 48 48 48 49 50 50 49 48 47 46 44 43 42 42 42 44 47 49 49 49 48 47 47
41 41 41 42 43 44 45 45 44 43 43 43 43 43 44 44 44 45 46 47 48 49 50 51 50 49 48 47 46 44 44 44 44 43 44 46 49 50 49 48 48 49
40 40 41 42 43 43 43 42 42 42 41 42 42 43 43 41 39 39 41 43 45 46 47 48 48 48 48 47 46 45 44 44 44 43 45 47 49 50 49 49 49 49
37 39 40 40 40 41 41 40 39 40 40 40 40 41 42 40 38 37 37 38 39 40 42 44 45 44 45 46 46 45 45 45 44 45 48 48 48 48 49 50 50 50

ECMWFNIL_850_spd_039.txt.gz
Wind_Speed
39 38 38 37 36 35 34 33 31 30 30 29 28 27 24 23 21 21 20 19 18 18 19 19 18 18 16 15 15 15 15 15 15 15 14 14 14 13 14 16 15 13
40 39 38 38 37 36 36 35 33 32 31 30 30 29 27 25 24 22 21 20 19 19 19 19 19 19 18 17 17 17 16 16 16 16 16 15 15 15 14 14 15 16
42 40 39 38 38 37 36 36 34 33 31 30 30 30 29 28 26 24 22 21 20 19 19 20 20 20 20 19 18 18 18 18 18 17 17 16 16 16 15 15 14 17
43 41 40 39 38 37 36 36 36 34 32 31 30 29 29 29 28 26 24 22 21 20 20 20 21 21 21 20 20 20 19 19 19 18 18 18 18 17 17 17 15 16
43 42 41 40 38 38 37 37 37 36 34 33 31 30 29 28 28 26 25 24 23 23 21 21 21 21 22 22 21 21 21 22 21 20 20 20 20 19 18 18 17 15
44 43 42 40 39 39 39 39 38 37 36 34 32 31 30 29 28 27 26 25 24 24 23 23 22 22 22 22 22 22 23 24 23 22 22 22 22 21 20 20 19 17
47 46 44 42 40 40 40 39 38 37 36 35 34 33 32 31 30 28 27 26 25 25 25 25 24 24 23 23 24 24 24 24 25 25 24 24 23 23 23 22 22 21
49 47 46 44 43 41 41 40 39 38 37 36 36 35 34 32 31 30 29 28 27 27 27 26 26 26 25 25 25 25 25 25 25 26 26 26 26 26 25 25 24 24
50 49 48 47 45 44 42 41 40 39 38 38 37 36 35 34 33 32 31 31 30 29 29 28 28 28 28 28 27 27 27 27 26 27 27 27 28 28 27 27 27 27
50 49 49 48 47 46 44 43 41 40 39 39 38 37 37 36 35 33 32 32 32 32 32 31 31 30 30 30 30 29 29 29 28 28 28 28 28 28 28 29 29 29
51 50 49 49 48 47 45 44 42 41 41 40 39 39 38 37 36 35 34 34 34 34 34 34 33 33 32 32 31 31 30 30 30 30 31 30 29 28 28 29 31 31
52 51 50 49 48 47 46 45 43 43 42 42 41 40 39 39 38 37 36 36 36 36 36 36 35 35 35 34 33 32 32 32 31 32 32 33 32 30 29 30 31 32
52 52 51 50 49 47 46 45 45 44 44 43 42 41 41 40 39 39 38 37 37 37 37 37 37 37 37 36 35 35 34 34 33 33 33 34 34 34 32 32 32 33
52 51 50 49 48 47 47 46 45 45 45 44 43 42 42 41 41 40 39 39 38 38 38 38 38 39 39 38 37 37 36 36 35 35 35 35 36 36 35 34 34 34
51 50 50 49 48 48 47 46 46 46 45 44 44 44 43 42 42 41 41 41 40 39 39 40 40 41 41 40 39 39 38 38 38 37 37 36 37 37 37 37 37 37
50 50 50 49 49 49 48 46 46 46 46 45 45 44 44 43 42 42 42 42 42 42 41 41 42 43 42 42 41 40 40 40 40 39 39 38 38 38 38 39 39 39
48 49 50 50 49 49 48 47 46 46 46 45 45 44 44 43 42 42 43 43 43 42 43 43 44 43 43 43 42 42 41 41 41 41 41 40 40 39 39 40 40 40
47 47 48 49 49 49 48 47 46 46 46 46 46 45 44 43 43 43 43 42 42 42 42 43 43 43 43 43 43 43 42 42 43 43 43 42 42 41 40 40 40 40
46 46 46 47 48 48 48 48 47 47 47 47 46 45 44 44 44 44 43 42 43 43 43 43 43 42 42 42 42 42 42 42 43 44 45 44 44 43 42 41 41 41
47 46 46 45 46 46 47 48 48 48 48 47 46 45 46 45 45 44 44 44 44 44 44 44 43 43 43 42 42 41 41 41 43 44 45 45 45 45 44 43 43 42
48 47 46 45 44 44 45 46 47 48 48 47 47 47 47 46 45 45 44 45 45 45 45 45 45 44 44 44 43 42 41 41 41 43 45 46 47 47 46 46 45 44
49 48 47 45 44 43 44 45 45 46 47 47 47 47 47 47 46 46 46 45 45 45 46 47 47 46 46 45 44 42 41 40 41 41 43 45 47 47 48 47 47 47
48 48 47 46 45 44 44 44 44 44 45 46 47 47 47 48 48 48 47 47 46 47 47 48 48 47 47 47 45 43 41 40 40 40 41 43 44 45 47 47 47 48
44 47 47 46 46 45 44 43 43 43 43 43 45 46 47 47 47 47 47 48 48 48 48 49 49 48 47 46 45 42 40 40 40 40 41 42 42 42 44 45 47 48
39 43 46 46 46 45 44 42 42 42 42 42 43 44 45 46 46 46 47 47 48 49 49 49 49 47 46 46 45 42 39 38 37 39 41 42 41 40 41 43 45 47
37 39 42 44 45 44 43 42 41 41 41 41 41 42 43 43 44 45 46 46 46 47 47 47 47 45 45 44 43 41 40 38 38 40 41 41 40 41 41 42 43 45

ECMWFNIL_850_spd_042.txt.gz
Wind_Speed
43 42 41 41 40 38 36 35 33 31 29 27 27 26 24 24 23 23 23 22 22 22 21 20 19 18 18 18 18 17 17 16 16 15 15 16 15 14 14 13 13 14
44 42 41 41 41 40 38 36 34 32 30 28 28 26 24 23 23 23 24 23 22 22 22 21 20 19 19 19 19 19 18 18 17 16 16 16 16 16 15 14 13 13
45 43 42 41 41 41 39 38 36 34 32 30 29 27 25 24 22 22 23 22 22 21 21 22 21 20 20 19 19 20 19 19 18 17 17 16 16 16 16 15 15 14
45 44 43 41 40 40 39 39 38 36 34 32 30 29 27 26 24 23 23 22 22 21 21 22 23 22 21 20 20 20 20 19 19 18 18 17 17 17 16 16 16 16
45 44 43 41 39 39 39 40 39 37 35 34 32 30 29 28 26 25 25 24 23 22 22 22 23 24 23 23 22 22 21 21 20 20 20 19 19 18 18 17 18 18
47 46 44 42 40 40 40 40 39 38 36 35 33 32 31 30 28 27 26 25 24 24 23 23 23 24 25 25 25 24 23 23 22 22 22 21 20 20 20 19 20 19
49 48 46 44 43 42 41 40 39 39 38 36 35 34 33 32 30 28 27 26 25 25 24 24 24 24 24 25 26 26 25 25 24 24 24 23 22 22 22 22 22 21
49 48 47 45 44 44 43 42 41 40 39 38 37 35 34 33 31 29 28 27 26 26 25 25 25 25 25 25 26 26 26 26 26 26 26 25 25 24 24 24 24 23
49 49 47 46 46 45 45 44 43 41 40 39 37 36 35 34 32 31 30 29 28 27 27 26 26 26 26 27 27 27 27 27 27 27 27 27 27 26 25 25 25 25
49 49 48 47 46 46 46 45 44 42 42 41 39 38 37 35 34 33 32 31 30 30 29 29 28 27 27 28 28 28 28 28 27 28 28 28 28 27 26 26 27 27
48 48 47 47 46 46 46 45 44 44 43 42 41 40 39 37 36 35 34 34 33 32 32 31 30 30 29 29 29 29 29 29 29 30 30 30 29 28 28 28 28 28
47 47 47 46 46 45 45 45 44 44 44 44 43 42 41 40 38 37 36 36 35 34 33 33 32 32 32 31 31 31 31 31 31 31 32 32 32 32 31 30 30 29
47 46 44 44 45 45 45 45 45 45 45 44 43 43 42 41 40 39 38 37 36 36 35 35 35 34 34 33 33 33 33 33 33 33 33 33 33 34 34 34 33 32
47 44 42 42 42 44 45 45 45 45 45 44 43 44 43 42 42 41 40 39 38 38 37 37 37 37 36 36 35 35 35 35 35 35 35 34 34 34 35 35 36 35
46 44 42 41 42 44 45 46 47 46 46 45 45 44 44 43 42 42 41 41 40 40 39 39 39 39 39 38 38 37 37 37 37 37 37 37 36 36 35 36 36 36
45 45 44 43 43 44 45 46 47 47 47 47 46 45 44 43 43 43 43 42 42 42 42 41 42 41 41 40 39 39 38 38 38 38 38 39 39 38 38 37 37 36
44 44 44 44 45 45 45 46 46 47 48 48 47 46 45 44 44 44 44 44 43 44 44 44 44 43 42 41 40 40 40 40 40 40 40 40 41 40 40 39 38 38
42 42 43 44 45 46 46 46 46 47 48 48 48 48 47 46 46 46 45 45 44 45 45 45 45 44 42 42 41 41 41 41 42 42 42 42 42 42 41 41 40 40
40 39 40 41 42 44 45 46 47 48 48 49 49 48 47 47 47 46 45 45 45 46 46 46 45 44 43 42 42 41 41 41 42 43 43 43 43 43 42 42 42 42
39 38 38 38 38 40 42 45 47 48 48 48 48 48 48 48 48 47 46 46 46 46 46 46 45 44 43 42 42 41 40 41 42 42 43 44 43 43 43 43 42 43
39 38 37 37 36 38 40 42 44 45 46 47 47 48 49 49 48 48 48 47 47 46 47 46 45 44 43 42 41 40 40 40 41 42 43 44 44 43 43 43 42 43
40 39 38 38 37 38 39 41 41 42 43 44 46 47 48 48 49 49 49 48 48 48 48 48 46 44 44 43 42 40 40 40 40 41 42 44 44 44 44 43 43 43
41 40 40 39 39 39 40 40 40 40 39 41 43 45 47 48 49 49 49 49 49 49 49 48 47 45 45 44 43 41 40 40 40 41 42 43 44 44 44 44 43 43
41 41 40 40 40 41 41 40 39 39 38 39 41 42 43 44 46 47 47 48 49 49 49 49 48 46 45 45 43 42 40 39 40 40 41 42 42 42 43 43 43 43
41 41 41 41 40 40 39 39 39 39 38 38 39 40 40 41 42 44 45 46 47 48 48 48 48 46 45 45 43 41 40 40 39 40 41 42 41 41 42 42 42 42
41 42 42 41 40 39 38 37 38 39 40 40 40 40 40 40 41 43 44 44 44 45 46 46 47 46 45 44 42 41 40 39 39 40 41 41 41 41 42 42 42 42

ECMWFNIL_850_spd_045.txt.gz
Wind_Speed
41 42 42 42 40 38 36 34 34 34 33 32 30 28 26 24 23 22 21 21 22 22 21 20 19 18 18 18 17 17 16 15 15 15 15 15 15 15 14 14 14 14
42 41 41 41 41 39 37 35 34 34 34 32 30 28 26 25 24 24 22 22 23 22 21 21 20 19 19 19 19 19 18 17 16 16 16 16 16 16 15 14 15 15
44 42 41 40 40 39 38 36 35 35 34 33 31 29 26 24 24 24 23 23 24 23 22 22 21 21 20 20 20 20 19 19 18 17 17 17 17 17 16 15 15 16
46 44 43 41 39 38 38 37 36 35 35 35 33 30 26 24 23 23 23 23 24 23 22 22 22 21 21 21 21 21 21 20 19 19 19 18 18 18 17 17 16 16
45 44 43 41 40 39 38 38 37 36 36 36 34 31 28 25 23 22 23 23 23 23 23 23 23 23 22 22 23 23 22 22 21 20 21 20 19 19 18 18 18 18
45 45 43 42 41 40 40 39 37 36 36 36 35 33 31 28 25 24 24 23 23 23 23 24 24 24 24 23 24 24 24 23 23 22 22 21 20 20 19 20 20 19
45 45 44 43 42 41 41 39 38 37 36 36 36 34 32 30 28 26 26 25 24 23 23 24 25 25 25 25 25 25 25 25 24 24 24 23 21 21 21 21 21 21
43 43 43 43 43 42 41 40 39 38 37 37 37 36 33 32 30 28 28 27 27 26 25 25 25 26 26 26 27 27 27 26 25 25 25 25 24 23 22 22 22 22
42 42 42 43 43 43 41 40 40 38 38 38 37 36 35 33 32 30 29 29 29 28 27 27 26 26 27 27 27 28 27 27 26 26 26 25 25 24 23 23 23 23
43 42 42 43 43 43 42 41 40 40 39 38 37 37 36 35 34 33 32 31 31 30 29 28 27 27 27 28 28 28 28 27 27 26 26 26 25 25 24 23 24 24
43 42 42 43 43 43 42 42 41 40 40 39 38 38 37 36 35 35 34 34 33 32 30 29 28 28 28 28 28 28 28 28 27 27 27 26 26 25 25 24 24 24
44 43 42 42 42 42 42 42 42 41 40 39 38 38 37 37 37 36 36 35 34 33 32 31 30 29 29 29 28 28 28 28 28 28 28 28 28 27 27 26 26 26
44 42 40 40 40 40 41 42 42 42 41 40 38 38 38 37 37 37 36 36 35 34 34 33 32 32 31 31 30 30 30 29 29 29 30 30 30 29 29 29 29 29
43 41 40 38 37 38 39 41 42 43 42 41 39 39 38 38 37 37 37 36 36 36 35 35 34 34 34 33 33 32 31 32 31 31 32 31 31 31 31 31 31 32
43 41 40 39 37 37 38 40 41 42 42 42 41 40 39 38 38 38 38 38 38 38 37 37 38 37 36 35 35 34 34 33 33 33 33 33 33 33 33 33 33 33
43 42 41 40 39 38 37 38 40 41 42 42 43 41 39 38 38 38 39 39 39 39 39 40 40 39 38 37 36 36 35 35 35 35 34 34 34 34 34 34 34 34
44 43 42 41 40 39 37 37 37 39 40 41 42 42 40 39 38 39 39 40 40 40 40 41 42 40 39 38 37 37 37 36 36 36 36 36 36 36 36 36 36 36
43 43 42 42 41 40 38 37 37 38 39 40 42 42 41 40 40 39 39 40 40 41 42 43 43 41 40 39 38 38 37 38 38 38 38 38 38 38 38 37 38 38
42 42 41 41 40 39 38 38 38 39 39 40 40 41 41 41 40 40 39 39 41 42 43 43 43 42 41 41 40 39 38 39 39 39 40 40 40 39 39 39 39 39
41 40 40 39 38 37 37 38 38 39 39 39 39 40 41 41 40 40 40 40 41 42 43 43 43 43 42 42 41 40 40 40 41 40 41 41 40 40 40 40 40 40
39 39 38 38 37 36 37 37 37 37 37 37 38 39 39 39 39 39 39 39 40 41 42 43 43 42 42 42 42 41 41 42 42 41 41 41 41 41 41 41 41 41
38 37 37 36 35 36 36 37 36 35 34 34 35 36 36 37 37 38 38 39 39 40 42 43 42 41 41 41 41 41 42 42 42 41 41 41 41 40 40 40 40 40
36 36 35 35 35 36 36 35 34 33 32 32 34 35 34 34 34 35 35 36 38 39 41 42 41 40 40 40 40 41 42 42 42 41 41 41 40 39 39 39 39 39
35 35 35 34 35 35 35 34 33 32 31 31 33 33 32 31 30 31 32 33 35 37 38 40 40 38 38 39 39 40 41 41 41 40 40 41 40 39 38 38 38 38
36 36 35 35 35 34 33 32 31 30 30 31 33 33 32 31 30 31 31 31 32 34 36 38 38 37 37 38 39 39 39 39 39 39 40 40 39 38 38 38 38 38
38 37 37 35 34 33 31 31 31 31 31 32 34 34 33 33 33 33 33 31 31 33 34 35 36 35 35 36 37 37 37 37 38 39 39 39 38 38 38 37 38 38

ECMWFNIL_850_spd_048.txt.gz
Wind_Speed
37 37 37 36 36 36 35 34 32 31 29 28 26 24 23 22 21 20 20 19 18 18 18 18 17 16 15 15 16 17 16 16 14 14 14 14 13 12 12 12 12 13
37 37 37 36 36 35 35 34 33 32 30 28 27 25 24 22 21 21 21 19 19 18 18 19 19 18 17 16 17 18 18 17 16 15 14 14 14 14 13 12 13 13
36 37 37 37 36 35 34 34 34 33 31 29 28 26 25 24 22 22 21 21 21 20 19 19 20 20 19 18 18 18 19 18 17 16 16 15 15 14 14 14 14 14
36 36 37 37 36 34 34 34 34 33 32 30 28 27 26 25 24 23 22 22 22 22 21 21 21 21 21 20 19 19 19 19 18 18 18 17 16 16 15 15 16 16
37 36 36 36 35 34 33 33 33 33 32 31 29 28 27 26 25 24 23 22 22 22 22 22 23 23 22 21 21 21 20 20 20 19 19 19 18 17 16 17 17 17
38 37 36 36 36 35 34 33 32 32 32 31 30 29 28 28 26 25 23 22 21 21 22 23 24 24 23 23 22 22 22 22 21 21 21 20 19 18 18 18 18 18
39 37 36 36 36 36 35 34 32 32 31 31 30 30 29 29 28 26 25 23 22 21 21 23 24 24 24 24 24 23 23 23 22 22 22 21 20 20 19 19 19 19
39 37 36 36 36 37 36 35 34 33 32 31 31 31 30 30 29 27 26 25 24 22 22 23 24 24 23 24 24 24 23 23 23 23 23 22 21 21 20 20 20 20
40 38 37 36 36 37 36 36 36 35 34 33 32 32 31 30 30 29 28 28 27 25 24 24 24 24 24 24 24 24 24 23 23 23 23 23 23 22 22 22 22 22
42 40 38 37 36 36 35 35 35 35 35 35 34 34 32 31 31 31 30 30 29 27 26 26 26 25 25 25 25 25 25 24 24 24 24 24 24 23 23 23 23 23
43 42 40 38 37 35 34 33 34 34 34 34 34 34 34 32 32 32 32 31 30 29 28 28 28 27 27 27 26 26 26 26 26 25 25 25 25 24 24 24 24 23
44 43 41 39 38 36 34 33 33 33 33 33 33 34 34 34 33 32 32 31 31 30 29 29 28 28 29 28 27 26 26 26 26 26 26 26 26 25 24 24 24 24
45 43 41 40 38 36 34 33 33 33 33 33 32 33 33 34 34 33 32 31 31 30 30 30 29 30 30 29 29 28 27 27 26 27 27 27 27 26 26 25 25 25
45 43 41 40 37 35 34 33 33 33 33 32 32 33 33 34 34 34 33 32 32 31 31 31 31 31 31 31 30 29 28 28 27 27 27 27 28 28 28 28 28 27
44 43 42 40 39 37 35 34 33 32 32 32 32 33 34 34 34 34 33 33 33 32 32 32 33 33 32 32 31 30 29 28 28 28 28 28 28 29 29 30 30 30
44 43 43 42 40 38 36 35 33 32 32 32 33 34 34 34 35 35 35 35 34 34 34 34 34 34 33 33 32 31 30 29 29 29 29 29 30 30 31 32 32 32
45 44 43 42 41 39 37 36 34 33 32 32 32 33 34 34 35 36 36 36 35 35 35 35 35 34 33 33 32 32 31 31 31 30 30 31 31 32 33 33 33 33
45 44 44 43 41 40 38 36 35 34 33 32 31 32 32 34 35 36 36 36 36 36 37 37 36 35 34 34 33 33 32 32 32 32 32 32 33 33 34 34 34 34
45 44 44 43 41 40 38 37 36 36 35 33 32 31 31 33 34 35 36 36 36 37 37 37 37 36 35 35 34 34 33 33 33 33 34 34 34 34 35 35 35 35
43 43 43 41 40 39 38 37 37 36 35 34 33 32 32 33 33 34 35 35 36 37 37 37 37 36 35 35 35 34 34 34 34 35 35 36 35 35 35 35 35 35
43 42 41 40 39 39 38 38 37 36 35 34 34 34 33 33 32 33 33 34 34 35 36 37 37 36 35 35 35 34 35 35 36 36 36 36 36 36 36 36 35 35
42 41 40 39 39 39 39 38 37 36 35 34 34 34 34 33 33 33 33 33 33 34 35 36 36 35 35 35 34 34 34 35 36 36 36 36 36 35 35 35 34 35
40 39 38 38 38 39 39 38 36 35 33 33 34 34 34 33 34 33 33 32 33 33 34 35 34 33 33 33 33 33 34 35 36 36 36 36 35 34 33 33 33 33
37 36 36 35 36 37 36 34 33 32 31 31 32 32 31 31 31 31 31 31 32 33 33 33 33 32 31 32 31 31 33 34 34 34 34 34 33 32 31 31 31 30
33 34 33 34 34 33 31 31 30 29 28 29 31 30 29 28 28 29 29 29 29 29 30 31 31 29 28 29 29 29 31 32 32 32 33 32 31 30 30 29 29 29
32 32 33 33 32 30 29 28 28 28 28 30 31 30 28 28 29 29 29 27 27 27 27 28 28 26 24 24 24 25 27 28 29 30 30 29 29 28 28 27 27 27

ECMWFNIL_850_spd_051.txt.gz
Wind_Speed
32 32 31 31 31 32 31 30 29 29 28 26 24 23 22 21 20 19 19 18 18 17 16 15 14 13 12 12 13 13 13 13 13 12 11 11 10 10 10 10 10 10
32 32 32 31 31 31 31 30 29 29 28 27 26 24 23 21 20 19 19 18 18 18 17 16 15 14 14 13 13 14 14 14 14 13 12 12 11 11 11 10 10 11
32 33 33 32 32 31 31 30 30 29 28 27 27 25 24 22 21 20 19 18 18 18 17 17 16 15 15 15 14 15 15 15 15 14 14 13 13 12 11 11 11 11
33 32 33 33 33 32 31 31 30 30 29 29 28 27 25 24 22 21 20 19 19 19 18 17 17 16 16 16 16 16 16 16 16 15 15 15 15 14 12 11 11 11
34 32 32 32 33 33 32 31 31 30 30 29 29 28 27 25 24 22 22 21 20 19 19 19 18 18 17 17 17 18 18 18 17 17 17 16 16 16 14 13 12 12
35 34 32 32 32 33 32 31 31 30 29 29 29 29 28 26 25 24 23 21 20 20 20 20 20 19 19 19 19 20 20 19 19 18 18 17 17 17 16 15 14 13
36 35 33 32 31 31 32 32 31 30 29 28 28 28 28 27 26 25 23 22 21 21 20 20 20 20 20 21 21 22 21 21 20 20 19 19 18 18 17 16 15 15
36 36 34 33 32 31 31 31 31 30 29 28 28 28 28 27 27 25 24 23 23 22 22 21 20 20 21 21 22 23 23 22 21 20 20 20 20 19 18 17 17 16
36 36 35 34 33 32 31 31 31 30 29 28 27 27 27 27 27 26 26 25 25 24 23 22 21 21 21 22 23 23 23 23 22 21 21 20 20 20 19 18 18 17
37 35 35 35 34 33 32 31 31 31 31 29 28 27 27 27 27 27 27 27 27 26 25 24 23 22 21 22 22 23 23 23 23 22 21 21 21 20 20 19 19 18
38 36 36 36 35 34 33 31 31 31 31 31 30 29 28 28 27 28 28 29 29 28 27 26 26 24 23 23 22 23 23 23 23 23 22 22 22 21 21 21 20 20
40 39 38 36 35 34 33 32 31 31 31 31 31 31 30 30 29 29 30 30 29 29 28 28 27 27 26 24 24 24 24 23 23 23 23 24 24 23 23 22 21 21
42 40 38 37 35 34 33 32 32 31 30 30 30 31 31 31 31 32 32 31 30 30 29 29 29 28 28 27 26 26 25 25 24 24 25 25 25 25 24 23 22 21
43 40 38 36 35 34 34 33 32 31 30 29 29 30 31 31 32 33 33 32 31 31 30 29 29 29 29 28 28 27 27 26 26 26 26 26 26 25 24 24 23 22
43 41 38 37 36 35 34 33 32 31 30 29 29 29 29 30 30 31 31 31 31 31 31 30 30 30 30 30 29 28 28 27 27 27 27 27 27 26 25 25 24 24
42 41 38 38 37 36 35 34 33 32 31 30 29 29 29 29 29 29 29 30 30 31 31 31 31 31 31 30 29 28 28 28 28 28 28 28 28 27 27 26 25 25
42 41 39 38 38 37 36 35 34 33 32 32 31 30 30 30 30 30 30 30 31 31 32 33 33 32 31 30 29 29 28 28 29 29 29 29 29 29 28 27 27 27
41 41 41 40 39 38 37 36 35 34 34 33 32 32 31 31 31 31 31 31 31 32 33 34 34 33 32 31 30 29 29 28 29 29 30 30 30 30 29 29 28 28
41 41 40 40 39 38 37 36 36 36 35 35 34 33 33 33 33 32 32 32 33 33 34 34 35 34 32 31 31 30 29 29 29 30 31 31 31 31 31 30 30 29
41 40 40 39 38 37 37 36 36 36 36 35 34 34 34 34 33 33 33 33 33 34 35 35 35 35 33 32 31 31 30 30 30 31 32 32 32 32 32 31 31 30
40 39 38 38 37 37 36 37 37 37 36 35 35 35 35 33 33 33 33 33 33 34 35 36 36 35 34 33 32 32 31 31 31 32 33 33 34 33 33 33 32 31
39 37 37 36 35 36 36 36 37 36 35 35 35 35 35 34 33 33 33 33 32 33 34 35 36 35 34 33 32 32 31 31 32 33 34 34 34 34 34 33 33 32
38 36 35 34 34 35 35 35 35 35 34 34 35 35 35 35 34 33 33 32 32 33 33 34 34 34 34 33 32 31 31 31 33 33 34 35 35 34 34 34 33 32
38 36 34 34 34 34 34 34 35 34 34 34 35 35 35 34 33 32 32 33 33 33 33 33 33 33 33 32 31 31 30 31 33 34 34 35 35 34 34 34 33 31
36 35 34 33 34 33 33 33 32 32 32 33 33 33 33 33 32 32 33 32 32 31 31 31 31 31 32 31 30 30 30 31 32 33 34 35 34 34 34 33 32 30
33 33 33 33 32 31 30 29 29 28 30 31 31 31 31 31 32 32 32 31 30 30 30 30 29 29 29 29 28 27 28 29 30 32 33 33 33 32 32 30 29 28

ECMWFNIL_850_spd_054.txt.gz
Wind_Speed
33 33 33 32 33 32 32 31 29 28 27 26 25 24 23 23 22 20 18 16 15 15 15 14 13 12 11 11 10 10 9 9 8 7 6 6 6 6 6 6 7 7
33 33 32 32 32 32 31 31 30 28 27 26 26 25 24 23 21 19 18 17 16 16 15 15 14 13 12 12 11 11 10 10 9 8 7 7 7 7 7 7 7 8
33 31 30 31 32 32 30 30 30 28 27 26 26 26 26 24 21 19 19 18 17 17 16 16 15 14 13 13 12 12 11 11 11 10 9 8 8 7 7 8 8 9
34 32 30 29 31 31 30 30 29 28 28 27 26 26 26 25 22 20 20 19 18 18 17 16 16 15 14 14 13 13 12 12 12 12 10 9 9 9 8 8 9 9
34 33 31 29 30 31 31 30 30 29 28 28 27 27 27 26 24 22 21 20 19 19 18 17 17 16 15 15 14 14 13 13 14 14 13 12 11 10 10 10 9 10
34 34 33 30 31 32 32 31 30 29 29 28 28 27 27 26 25 24 23 22 21 20 19 19 18 18 17 16 15 15 15 14 15 14 13 13 12 11 11 11 10 10
36 34 33 32 31 32 32 32 32 31 30 29 28 28 28 27 26 25 25 23 22 21 21 20 20 19 19 18 17 16 17 16 16 16 14 13 13 13 13 12 12 11
37 35 34 33 32 32 32 33 33 32 31 30 29 29 29 28 27 26 26 25 24 23 22 22 22 21 19 19 19 18 18 18 19 19 18 16 15 14 14 14 13 13
38 37 35 34 33 32 32 32 32 32 32 31 30 29 29 28 27 27 27 27 25 25 24 23 23 22 20 21 21 20 20 20 20 20 20 19 17 16 15 14 14 15
38 37 36 35 34 33 32 31 30 30 32 32 30 29 29 28 28 28 28 28 28 27 26 25 24 23 22 22 22 21 21 21 21 21 20 19 19 18 16 15 15 15
39 38 37 36 34 34 33 31 29 29 30 31 31 29 29 29 29 29 29 29 29 29 28 27 26 25 24 23 22 22 22 22 22 22 21 20 19 19 18 16 16 16
40 39 38 36 35 34 32 31 30 28 29 30 30 30 29 29 29 30 30 30 30 30 29 29 27 26 26 25 24 23 23 22 22 22 22 21 20 20 19 18 18 18
40 40 40 38 36 34 33 31 30 29 28 29 30 30 30 30 30 30 30 30 31 31 30 29 28 28 28 27 26 25 25 24 23 23 23 22 21 21 21 20 20 20
40 40 40 39 38 36 34 33 32 31 29 29 30 31 30 30 31 31 30 30 31 31 31 30 30 30 29 29 28 27 27 26 25 24 24 23 23 23 22 22 22 22
40 40 40 40 39 38 36 35 34 34 32 31 32 31 30 30 31 31 31 31 32 32 31 31 31 31 31 31 30 29 29 28 27 27 26 26 26 25 24 24 23 23
41 41 41 41 40 39 37 36 36 35 34 34 33 31 30 30 30 31 31 32 33 33 32 32 32 33 33 32 30 30 29 29 29 29 28 28 28 28 26 25 25 24
42 41 41 41 41 40 38 37 36 36 35 34 33 31 30 30 30 31 31 31 32 33 33 33 34 34 34 32 30 29 29 29 30 30 30 30 30 29 28 27 26 26
43 42 41 41 41 40 39 37 36 36 35 34 33 31 31 30 30 31 31 30 30 31 32 33 34 34 34 32 30 29 29 29 29 30 30 31 30 30 29 29 28 28
43 42 42 42 42 41 39 38 37 37 36 35 34 32 32 32 32 32 32 32 31 32 32 32 32 33 33 32 30 29 29 29 29 30 31 32 31 31 30 30 30 29
42 42 42 42 42 41 40 39 38 37 37 35 34 34 34 34 34 33 33 33 33 33 33 32 32 33 33 32 30 30 29 29 29 30 31 32 32 32 32 31 31 31
41 42 42 42 42 42 41 40 39 38 37 37 36 35 35 35 35 34 34 34 34 34 34 34 34 34 34 33 31 30 30 29 30 31 32 33 34 33 33 33 32 32
41 41 42 42 42 42 42 41 40 39 39 38 37 36 36 36 35 35 35 34 34 34 34 35 35 35 35 34 32 31 30 30 31 32 33 34 35 35 34 34 34 34
40 41 42 42 42 42 42 42 41 40 39 38 37 37 36 36 36 35 34 34 34 34 35 35 35 36 36 35 33 33 32 31 32 33 34 36 36 36 35 35 35 35
40 40 40 40 41 42 42 42 41 40 39 38 37 37 36 35 34 34 34 34 34 34 34 35 35 35 36 35 34 34 33 32 32 33 34 36 36 36 36 36 36 36
38 37 37 38 40 41 41 41 40 39 38 37 36 35 34 34 33 33 33 33 34 34 33 34 33 33 35 35 34 34 33 32 32 33 35 36 36 36 36 36 36 36
34 34 35 36 38 39 40 40 39 38 37 36 35 34 34 34 33 33 33 33 33 32 33 33 32 32 33 34 34 33 32 32 33 34 35 36 36 35 35 35 36 36

ECMWFNIL_850_spd_060.txt.gz
Wind_Speed
37 36 35 33 32 30 29 27 25 24 22 21 20 19 18 17 16 15 14 13 13 14 13 12 11 10 10 10 10 11 10 8 8 7 7 7 6 6 5 6 8 10
38 37 36 35 33 32 30 29 27 25 24 23 21 19 18 18 18 17 17 15 13 14 14 13 12 12 11 11 11 11 10 9 9 8 8 7 7 6 6 7 6 8
40 39 38 37 35 33 32 30 28 27 25 24 22 20 18 18 19 20 20 18 15 14 15 14 13 13 13 12 11 11 11 10 10 9 9 8 8 8 7 7 7 6
41 40 39 38 36 35 32 31 30 29 27 25 24 23 20 19 20 21 21 20 17 16 15 15 15 14 14 13 13 12 11 11 11 10 10 10 9 9 8 8 8 7
41 40 39 38 36 35 33 31 31 30 28 27 26 24 23 21 21 22 22 22 20 18 17 17 16 15 15 14 14 14 13 12 12 11 11 11 10 10 9 9 9 10
42 40 39 38 36 34 33 32 32 31 30 28 27 26 25 24 23 23 23 23 22 21 20 20 19 17 16 16 15 15 14 13 13 12 12 12 11 11 10 10 10 11
42 41 40 39 37 35 34 33 32 32 30 29 28 27 26 26 26 25 25 24 22 22 22 22 21 20 19 18 17 16 16 15 14 14 13 13 13 12 11 11 11 11
42 41 41 40 38 37 36 34 33 33 32 30 28 28 27 27 28 28 28 26 24 23 23 23 22 21 20 20 19 18 17 16 16 16 14 14 14 14 13 12 12 13
43 42 41 41 40 39 38 36 35 34 33 31 29 28 28 28 29 30 30 28 26 24 24 24 23 22 21 21 20 19 18 18 18 18 16 15 15 15 14 14 14 14
43 42 42 42 41 40 39 38 36 35 34 33 31 29 29 30 30 30 30 29 28 27 26 25 25 24 22 22 21 20 20 19 19 19 18 17 16 15 15 15 15 15
44 43 43 43 42 41 41 38 36 34 34 34 33 31 30 30 31 31 31 30 29 29 28 27 27 26 25 23 22 21 20 21 21 20 20 19 17 17 16 16 16 16
45 45 44 44 43 42 41 38 35 34 34 34 34 33 31 30 32 32 32 31 31 30 30 29 28 29 28 26 24 23 21 21 22 22 22 21 19 18 17 17 17 17
46 46 45 44 43 42 40 38 36 35 34 35 35 34 33 31 32 33 32 32 32 32 31 30 30 30 30 28 26 25 24 23 23 23 23 23 22 20 19 19 18 18
46 45 44 44 43 41 40 38 37 36 34 34 35 35 35 33 32 32 33 32 33 33 33 32 32 32 31 30 28 27 26 25 24 24 23 23 23 22 21 20 19 19
45 44 43 43 42 41 41 39 38 37 36 35 35 35 35 34 32 32 32 33 33 33 33 33 33 34 34 33 30 29 28 28 27 26 25 24 23 22 22 21 20 20
44 44 43 43 42 42 42 41 39 38 37 37 36 35 35 35 33 32 32 32 33 33 34 33 34 34 35 34 32 31 30 29 29 28 26 26 25 24 23 22 21 20
44 44 44 44 43 42 42 42 40 39 39 38 37 37 35 35 35 34 32 32 33 33 34 34 34 34 35 34 33 32 31 30 30 30 28 26 26 25 24 23 22 21
44 44 44 45 45 44 43 43 42 40 40 40 39 38 37 36 36 37 35 32 32 33 33 33 33 33 34 34 34 32 31 31 31 31 30 29 27 27 27 26 24 23
44 45 45 45 46 45 44 44 43 42 41 41 40 39 38 37 37 37 38 35 33 32 32 32 31 32 33 33 33 32 30 30 30 31 31 31 29 29 28 28 27 26
44 45 46 45 46 46 45 45 45 45 43 42 41 40 38 38 37 37 38 38 36 33 32 32 30 30 32 32 32 32 30 29 30 30 31 31 30 30 28 28 28 28
43 45 46 46 46 46 46 46 46 46 45 43 42 41 40 40 38 37 38 39 38 36 33 32 31 30 31 31 32 31 29 28 29 29 30 29 29 29 28 28 28 27
44 45 46 46 46 46 46 47 47 47 46 44 42 40 39 40 39 38 37 38 39 38 35 33 32 31 31 31 31 30 29 28 28 28 29 29 28 28 28 28 28 28
44 45 46 46 46 47 47 47 47 47 47 45 43 39 37 39 40 39 37 37 38 39 38 35 33 32 32 31 31 30 29 29 28 28 29 31 32 31 30 30 30 31
45 45 46 46 47 48 48 47 47 47 47 46 45 40 36 36 39 39 37 36 37 38 39 38 35 34 33 33 32 32 31 30 29 29 30 31 33 35 35 34 34 34
44 45 46 47 47 48 47 47 47 47 46 46 45 42 36 34 35 37 36 35 35 36 37 38 37 36 35 35 34 34 33 32 31 30 30 31 32 34 36 37 37 36
43 44 46 47 47 46 46 46 46 45 45 45 45 43 38 34 33 33 33 33 33 34 35 36 36 36 37 36 36 36 35 34 33 33 32 32 31 32 34 36 37 37

ECMWFNIL_850_spd_066.txt.gz
Wind_Speed
39 37 35 34 33 31 29 28 27 25 23 21 20 18 16 14 14 15 15 15 15 15 15 15 15 15 15 14 14 14 13 12 12 13 14 14 15 16 14 13 16 16
41 40 38 36 35 33 31 29 28 26 24 22 20 18 16 14 14 14 14 15 15 15 16 16 16 16 15 15 15 15 14 13 13 13 13 13 14 14 14 16 18 18
43 42 41 39 38 36 33 31 29 28 25 23 22 20 18 17 15 15 14 15 16 16 17 17 17 17 17 16 16 15 15 14 14 13 13 13 14 14 15 19 20 19
45 44 44 43 41 38 35 34 32 31 29 26 25 23 21 20 19 17 16 16 17 18 18 19 18 18 18 17 17 16 16 15 14 14 14 14 14 13 15 18 20 20
46 45 45 45 44 41 39 37 36 34 32 30 28 26 24 23 22 21 19 18 18 19 20 21 20 19 19 19 18 18 17 17 15 15 15 15 15 14 14 16 18 20
47 46 46 46 45 44 42 41 39 37 35 33 31 29 27 26 25 23 22 20 20 20 21 22 22 22 21 20 20 19 19 19 18 17 17 16 16 15 15 15 15 18
49 47 46 46 46 46 45 43 41 40 38 36 34 32 30 28 27 26 24 22 22 21 21 22 23 23 23 22 21 21 20 20 19 19 19 18 17 17 17 16 16 16
50 49 47 46 47 47 46 44 42 41 39 38 37 35 32 31 29 28 26 25 24 23 23 23 24 23 24 24 24 23 22 22 21 21 21 20 19 19 18 18 17 17
51 50 49 48 47 47 47 45 43 42 40 40 38 36 35 33 31 30 28 27 26 25 24 24 25 25 25 25 25 24 23 23 23 22 22 21 21 20 19 19 19 18
50 51 51 50 49 48 47 46 45 43 42 41 39 38 37 35 34 32 31 30 29 28 27 26 26 27 27 27 26 26 25 24 24 23 23 22 21 20 20 20 20 20
48 50 51 52 51 50 48 47 46 45 44 43 41 40 39 37 36 35 34 33 32 30 29 29 28 28 29 30 29 27 26 25 25 24 24 23 22 21 21 21 21 21
46 47 50 51 52 51 50 48 48 47 46 45 44 43 41 40 39 38 37 36 34 33 31 31 30 29 29 30 31 30 29 27 26 25 25 24 23 22 22 21 22 21
47 46 47 49 51 51 50 49 49 49 49 48 46 45 44 43 42 41 39 38 36 35 34 32 31 30 30 30 31 31 31 30 29 28 27 26 25 24 23 23 22 22
48 46 45 46 47 49 50 50 49 49 49 49 48 47 47 45 44 42 41 39 38 37 36 34 33 33 32 30 31 32 32 31 30 30 29 28 27 26 25 24 24 23
47 46 45 45 45 47 49 50 50 49 49 49 49 49 48 47 45 43 42 41 40 39 38 37 36 36 34 32 31 32 32 32 30 30 30 30 29 28 27 26 25 24
43 44 45 45 45 46 48 49 49 49 49 49 49 50 49 48 46 45 44 42 41 40 39 39 39 38 36 34 33 32 32 32 32 31 30 31 31 30 30 28 27 26
37 39 42 44 45 45 46 48 49 49 49 49 49 49 49 49 48 47 46 44 43 42 41 41 40 39 37 36 34 33 32 33 33 32 31 31 31 31 31 29 28 27
36 37 40 44 46 46 45 46 48 48 49 49 49 49 49 49 49 48 47 46 44 43 43 42 41 39 38 36 35 33 33 33 33 33 32 31 31 30 30 30 28 27
40 38 38 42 46 46 45 44 46 48 49 50 50 49 49 49 50 49 48 47 46 45 44 44 43 41 39 38 36 34 34 34 34 33 32 31 30 30 29 29 28 28
45 41 38 39 43 45 45 44 45 47 48 49 49 49 49 50 50 50 49 48 47 46 46 45 44 42 41 39 37 36 35 35 35 34 33 32 31 30 29 28 28 27
46 45 43 41 39 42 46 46 44 45 46 48 49 49 50 50 50 50 50 49 48 47 47 46 45 44 42 41 39 37 36 36 36 36 35 34 32 31 30 29 28 27
44 45 46 45 41 41 44 47 46 44 44 46 48 48 49 50 50 51 50 50 49 48 48 47 46 44 43 42 40 38 37 37 37 37 37 37 35 33 32 31 29 29
43 43 45 46 45 43 44 47 48 46 44 44 46 48 49 50 50 51 50 50 50 49 49 48 46 45 44 43 41 39 38 37 37 38 38 38 37 35 34 33 32 31
43 43 44 45 47 47 47 47 47 47 45 43 44 47 49 50 50 50 50 50 50 50 50 48 47 45 44 42 41 39 38 38 37 37 38 38 37 36 35 35 34 33
42 42 42 45 48 49 48 48 47 47 45 44 44 45 47 49 49 49 50 50 50 51 50 49 48 46 45 43 41 40 39 38 37 37 37 37 37 36 36 36 35 34
39 40 41 43 47 49 48 48 48 47 46 45 44 45 46 48 49 49 50 50 50 50 50 50 49 48 46 44 42 41 40 38 37 37 37 36 35 35 35 34 33 33

ECMWFNIL_850_spd_069.txt.gz
Wind_Speed
33 33 33 33 31 29 27 26 26 25 23 23 22 21 19 17 17 17 17 16 15 14 14 14 14 14 13 13 13 13 12 12 11 11 12 13 14 15 14 14 14 13
35 34 34 33 33 31 29 28 27 26 24 24 23 21 19 17 17 17 17 16 15 15 14 14 15 15 14 14 15 14 14 13 12 12 12 13 14 15 16 16 15 14
37 36 36 35 34 33 31 29 28 27 26 25 24 23 20 17 17 16 16 16 16 15 15 15 15 16 15 15 16 16 15 15 13 13 13 13 13 14 15 16 15 15
38 38 38 37 36 35 33 31 29 28 27 26 25 23 21 19 18 17 15 15 16 16 16 16 15 16 16 16 16 17 16 15 14 14 14 13 13 13 13 14 14 15
39 40 39 39 38 36 35 33 31 29 28 27 26 24 22 20 19 18 17 16 15 15 16 17 17 16 17 17 17 17 16 15 14 14 14 13 13 12 12 12 14 16
40 40 40 40 40 38 37 36 33 31 29 28 27 26 24 22 21 20 19 18 17 16 16 17 18 18 18 19 19 18 17 16 15 15 15 14 13 13 13 13 14 16
40 40 41 42 41 40 39 38 36 34 32 30 29 28 27 25 24 22 21 20 20 19 18 17 18 19 19 20 20 20 18 18 17 17 17 15 14 14 14 14 14 15
40 40 41 42 43 43 42 40 39 37 35 34 32 31 30 29 27 25 24 23 22 21 20 19 19 19 20 21 22 21 20 19 19 19 18 17 17 16 16 15 15 15
41 41 41 41 43 44 45 43 42 41 39 38 36 34 33 32 30 29 27 26 25 24 23 22 21 20 20 21 22 22 22 21 21 20 20 19 18 17 17 16 17 16
41 41 41 41 42 44 46 46 45 44 43 42 40 38 36 35 33 32 31 30 29 27 26 25 24 22 22 22 23 23 23 23 22 22 22 21 20 19 18 18 18 18
42 41 41 42 43 44 45 46 46 46 46 45 44 42 40 38 36 35 34 33 32 30 29 28 27 25 23 23 24 24 24 24 23 23 23 23 22 21 20 19 19 19
43 42 41 41 42 43 44 45 46 47 47 47 47 45 43 41 39 37 36 35 33 32 31 30 29 28 26 25 24 25 25 25 25 25 24 24 24 23 22 22 21 20
45 43 41 40 40 41 42 43 45 46 47 47 47 47 46 45 42 40 37 36 34 33 33 32 32 31 30 27 26 26 26 26 27 27 26 25 25 24 24 23 23 22
46 44 42 40 39 39 39 40 42 44 45 46 47 47 47 46 44 42 39 37 36 35 34 34 34 34 33 31 29 28 27 27 27 28 28 27 26 26 25 24 24 23
46 45 44 42 40 39 39 39 39 40 42 44 45 47 47 46 45 44 42 41 39 38 37 37 36 36 35 34 32 30 29 28 27 27 28 29 28 28 27 26 25 24
47 46 45 44 42 41 40 39 38 38 40 41 43 45 45 46 45 45 45 44 42 41 40 39 39 38 37 35 33 32 30 30 28 27 27 28 29 29 29 28 27 26
47 47 46 45 44 43 42 41 40 39 39 39 40 42 43 44 45 45 46 45 44 43 42 41 40 39 38 37 35 33 32 31 30 28 27 27 28 29 29 28 28 28
46 47 46 45 44 43 43 43 42 42 41 40 40 40 41 42 43 44 45 45 44 44 43 42 41 39 39 38 36 34 33 32 31 30 29 28 28 29 29 28 28 28
46 46 46 45 45 44 43 43 43 43 43 42 40 39 39 41 42 43 44 44 44 44 43 42 40 39 38 38 37 35 34 33 33 32 31 30 29 29 29 29 29 29
44 44 44 46 46 46 44 43 43 43 43 42 40 39 39 40 41 42 43 43 44 44 43 42 40 38 38 37 37 35 34 34 34 33 33 32 31 30 30 30 31 31
42 41 41 45 47 48 47 46 44 43 42 42 41 38 37 37 38 40 41 43 43 43 43 43 41 38 37 37 36 36 35 35 35 35 35 34 33 32 32 31 31 31
43 41 39 43 46 48 48 48 47 45 42 41 41 39 36 34 35 37 39 41 42 43 43 44 41 39 37 37 36 36 36 36 36 36 36 36 35 34 33 32 31 31
42 42 41 41 44 47 48 48 48 47 44 42 42 42 40 36 33 33 35 38 40 42 43 43 41 39 37 36 36 36 37 37 37 37 37 37 36 35 34 34 33 32
39 41 42 42 44 46 48 48 47 47 46 44 42 42 41 39 35 33 33 34 37 40 42 42 41 39 37 36 36 36 37 38 38 38 38 38 36 35 34 34 34 34
32 37 40 42 44 47 48 49 48 46 45 44 44 43 41 39 38 36 35 34 35 38 40 42 42 40 38 37 36 36 37 38 39 39 39 38 37 36 35 34 34 34
23 28 34 39 42 45 47 48 47 45 44 43 43 43 42 40 39 38 38 37 36 37 39 41 42 41 39 38 36 36 37 38 39 40 40 38 37 36 36 35 35 34

ECMWFNIL_850_spd_072.txt.gz
Wind_Speed
30 28 26 25 24 24 23 23 22 22 22 20 19 17 16 15 14 14 14 14 13 13 12 12 11 10 10 10 10 10 9 9 8 7 8 8 8 9 10 10 10 9
31 30 28 26 25 24 24 24 23 22 22 21 19 17 16 15 14 14 14 14 14 13 13 13 12 12 11 10 10 10 10 10 8 8 8 7 7 7 9 10 11 11
31 31 30 27 26 25 24 24 24 23 22 22 20 18 16 15 14 14 14 14 14 14 13 13 13 12 12 11 11 11 11 11 10 9 9 8 7 7 8 9 11 12
31 31 30 29 27 25 24 25 26 25 23 23 21 19 18 17 15 14 13 13 14 13 13 13 13 12 12 12 12 11 12 12 11 11 11 10 9 9 8 9 10 11
31 31 31 30 28 27 26 26 26 26 25 24 23 21 20 19 18 16 14 13 13 12 13 13 13 13 13 13 13 12 12 12 12 12 12 11 11 10 10 10 10 10
31 31 31 31 30 29 29 28 27 27 26 25 24 23 22 21 20 19 17 15 13 12 12 12 12 13 13 13 13 13 12 12 12 12 13 12 11 11 11 11 10 10
32 32 31 31 31 31 31 30 28 28 27 26 25 24 23 23 22 21 20 17 16 14 13 13 12 12 13 14 14 14 13 13 12 12 12 12 11 11 11 11 11 10
33 33 32 32 32 32 33 32 31 30 29 29 28 26 25 24 23 22 21 20 18 16 15 14 14 13 13 14 15 15 15 14 14 13 13 13 13 12 12 12 12 11
35 34 33 33 33 33 33 34 33 32 31 31 30 28 27 26 25 24 23 22 21 19 18 17 16 15 15 15 15 15 16 16 15 15 15 14 14 13 13 13 13 13
37 36 35 34 34 34 34 34 34 34 34 33 32 32 31 29 28 27 26 25 24 23 22 21 19 17 17 16 16 16 16 17 17 17 17 16 15 14 13 14 14 14
40 38 37 36 35 34 34 34 35 35 35 35 34 34 34 32 31 30 29 28 28 27 26 25 23 21 20 18 18 17 17 17 18 18 18 18 17 16 15 15 15 14
41 40 39 38 36 35 34 34 34 35 36 36 36 36 35 34 34 33 32 31 31 30 29 28 27 25 24 22 20 19 19 18 19 19 20 20 19 18 18 17 16 16
42 41 40 39 37 35 34 34 34 35 35 36 37 37 37 37 36 35 35 34 33 32 32 31 30 29 28 26 23 22 21 20 19 20 20 21 21 20 20 19 19 18
42 42 41 39 38 36 35 34 33 33 33 34 35 37 38 38 38 37 37 36 35 35 34 33 33 32 31 29 27 24 23 22 21 21 21 22 23 23 22 21 21 20
42 41 40 39 38 37 36 35 34 33 32 32 33 35 36 37 38 38 39 39 38 38 37 36 36 35 32 30 29 27 25 24 24 23 22 22 23 24 24 24 23 22
41 41 40 39 39 39 37 36 35 34 34 33 32 32 33 34 36 37 38 39 39 39 39 39 38 37 34 32 31 29 28 27 26 25 24 24 24 24 25 25 24 24
41 41 41 40 39 38 38 37 36 35 35 34 34 33 32 32 33 34 35 37 37 38 38 38 38 37 36 34 33 32 31 30 29 28 26 26 25 25 25 26 26 25
39 39 41 42 41 38 36 35 35 36 35 35 34 33 32 32 32 32 32 33 34 35 36 37 37 37 36 36 35 34 33 32 31 29 28 27 27 26 26 26 26 26
38 36 37 41 44 43 39 34 33 34 34 34 33 32 32 32 32 31 31 31 32 32 33 34 35 35 35 35 35 34 33 32 31 30 29 28 28 27 27 27 27 27
39 37 36 37 40 43 44 41 38 34 32 32 32 32 33 33 32 32 31 31 31 32 32 33 34 35 35 35 34 33 32 32 31 31 30 29 28 28 28 27 27 28
40 40 39 38 39 41 43 44 43 40 35 32 31 32 32 33 33 34 33 32 31 31 32 33 33 34 34 34 34 32 32 31 31 31 31 30 29 28 28 28 27 27
38 41 42 42 42 42 43 43 43 43 40 37 34 32 31 31 33 34 34 34 33 32 33 33 32 32 32 33 32 32 31 31 31 31 31 31 30 29 28 28 28 28
36 40 42 42 43 44 44 42 41 41 41 40 38 36 33 32 31 32 33 33 34 34 34 33 31 30 31 31 31 31 31 31 31 32 32 32 30 29 28 29 28 28
36 39 39 40 41 43 44 43 41 40 40 40 40 39 36 33 32 32 32 33 33 33 33 33 31 29 29 30 31 31 31 32 32 32 32 32 31 30 29 29 29 29
32 34 35 35 37 39 40 41 41 39 38 38 39 40 39 37 36 35 35 34 34 33 33 33 32 29 28 29 30 31 32 32 32 33 33 33 32 31 30 30 29 29
24 27 29 30 32 34 36 38 38 38 37 37 38 39 39 40 39 38 38 36 35 35 34 34 33 30 29 28 29 30 32 33 33 34 34 33 32 32 31 31 30 29

ECMWFNIL_850_spd_075.txt.gz
Wind_Speed
25 24 23 22 21 20 19 19 19 19 19 18 17 15 13 12 11 11 11 10 9 9 8 8 8 7 7 7 7 7 6 6 6 6 6 7 7 8 8 9 9 8
26 26 25 24 22 21 20 20 19 19 19 19 18 16 14 12 12 12 12 11 10 10 9 9 9 9 8 8 8 8 7 7 7 7 7 7 7 8 8 9 9 9
27 27 26 25 24 22 21 20 20 20 20 20 19 17 15 13 12 12 12 11 11 10 10 10 10 10 10 9 9 9 9 8 8 8 8 7 7 7 8 9 9 10
26 26 26 26 25 23 22 21 20 20 20 20 20 18 17 15 13 12 12 11 11 11 11 11 10 11 11 10 10 10 9 9 10 10 9 9 8 7 8 8 9 10
24 25 25 26 26 25 23 23 22 20 20 20 20 19 18 17 15 14 13 12 11 10 11 11 11 11 11 11 11 10 10 10 10 11 11 10 10 9 8 8 8 9
24 24 24 24 25 26 25 24 23 22 21 20 20 20 19 19 18 16 14 13 12 11 11 11 11 11 11 11 11 11 10 10 10 11 11 11 11 11 10 10 9 9
25 24 24 24 24 25 26 26 25 23 22 21 21 21 20 20 19 18 16 15 14 13 12 11 11 11 11 11 11 11 11 11 11 11 11 11 11 11 11 11 10 9
26 25 25 24 24 25 25 26 26 25 24 22 22 21 21 21 21 19 18 17 16 16 15 14 13 12 11 11 11 11 10 11 12 12 12 11 11 12 12 12 11 10
28 27 26 25 25 25 25 25 26 26 25 24 23 22 22 22 21 21 20 19 19 19 18 17 16 14 13 12 12 11 11 11 12 12 13 13 12 12 12 13 13 12
31 29 28 27 26 26 25 25 25 26 27 26 25 24 24 23 22 21 20 20 21 21 20 19 18 16 15 14 13 12 12 12 12 13 13 13 13 13 13 14 14 14
33 32 31 30 28 27 25 25 25 26 27 27 27 27 26 25 24 24 22 22 23 23 22 22 20 19 18 17 16 15 14 14 14 14 14 14 14 14 14 14 14 15
35 34 33 32 30 29 27 26 25 26 26 26 28 29 29 28 27 27 26 25 24 25 24 24 23 22 21 20 19 18 18 17 16 16 16 15 15 15 16 16 15 15
36 35 35 34 32 30 29 28 27 26 26 26 27 28 29 30 30 29 28 27 27 27 27 27 25 24 24 23 22 21 21 20 19 19 18 17 17 16 16 17 17 17
35 35 36 35 33 31 30 29 29 28 27 27 27 27 28 29 30 31 30 30 29 29 29 28 28 27 27 25 24 24 23 22 22 21 20 20 19 18 17 18 18 18
34 35 35 35 35 34 32 31 31 30 29 29 28 27 28 29 30 30 31 31 31 31 31 30 30 29 28 27 25 25 24 23 23 23 22 22 21 20 19 19 18 19
35 34 34 35 35 35 34 33 33 32 31 31 29 28 28 28 29 29 31 31 32 32 32 33 32 31 29 28 26 26 25 25 25 24 24 24 24 23 22 20 19 20
35 34 35 35 35 35 34 33 33 33 33 32 31 30 29 29 29 29 30 30 32 33 33 34 34 32 30 29 28 28 27 27 27 26 26 26 26 25 24 23 22 21
34 34 35 35 34 35 35 34 33 34 33 33 33 33 31 30 30 30 29 29 30 31 32 34 35 34 32 31 30 30 29 29 29 28 28 28 28 28 27 25 24 23
35 35 35 35 34 34 35 35 36 36 34 33 32 33 34 33 32 31 30 29 29 30 31 32 34 34 33 33 32 32 31 31 31 31 31 30 30 30 29 28 27 26
35 36 36 36 36 35 35 36 37 37 37 35 34 34 34 34 34 34 33 32 31 31 30 30 31 33 33 33 33 33 33 32 32 32 32 32 32 31 30 29 28 27
34 35 36 37 37 36 36 37 37 37 37 36 37 37 35 34 33 34 35 34 33 33 33 32 31 31 31 31 32 33 33 32 32 32 32 32 32 31 31 30 29 29
31 31 33 35 36 36 36 38 38 38 36 35 36 37 37 36 35 34 34 33 33 33 35 34 32 31 31 31 31 32 31 31 32 32 32 33 32 31 31 30 30 30
28 28 28 30 32 33 35 37 38 38 37 36 37 37 37 38 37 35 34 33 32 33 34 34 33 31 30 30 30 30 30 31 32 33 33 33 33 32 31 30 30 30
26 26 26 27 28 31 33 35 36 35 33 33 35 36 37 38 38 37 36 34 32 32 31 32 31 30 30 29 29 29 29 30 32 33 33 34 33 32 32 31 30 30
21 23 24 26 27 29 31 32 34 34 32 31 31 31 33 35 37 38 39 37 35 32 31 31 30 29 29 30 29 29 29 29 30 32 33 34 34 33 33 32 31 31
15 19 22 24 26 28 29 29 29 30 31 31 30 29 28 28 29 33 36 37 37 35 33 32 31 31 30 30 29 29 29 29 30 31 33 34 35 34 33 33 33 33

ECMWFNIL_850_spd_078.txt.gz
Wind_Speed
21 20 19 17 17 17 17 17 16 16 15 13 11 10 10 9 8 8 8 7 7 7 6 6 6 5 5 4 5 4 4 5 5 4 5 5 6 6 7 7 7 7
22 21 20 19 18 17 17 17 16 16 16 16 13 11 11 10 9 8 9 8 8 7 7 7 6 6 6 5 5 4 4 4 4 4 5 5 5 5 7 7 7 8
22 22 22 20 19 18 17 17 17 17 16 16 16 15 12 11 10 10 9 9 8 8 8 7 7 7 7 6 6 5 5 4 4 5 5 5 5 5 6 6 6 7
20 21 22 22 21 20 18 17 18 17 17 16 17 16 15 13 12 11 10 10 9 9 9 8 8 8 7 7 7 6 6 6 5 6 6 5 5 5 6 6 7 7
19 19 21 22 22 22 21 19 18 17 17 17 17 17 17 16 14 12 11 10 10 9 9 9 9 8 8 8 8 7 7 7 7 7 6 6 6 6 6 6 7 7
20 19 19 20 22 23 22 21 20 19 18 18 17 17 18 18 16 15 14 12 11 10 9 10 9 9 9 9 8 8 8 8 8 8 7 7 7 7 7 7 8 8
22 21 19 19 20 22 23 22 21 20 19 18 18 18 19 19 18 18 17 15 13 12 11 11 10 10 10 10 10 9 8 8 9 9 8 8 8 8 8 9 9 9
23 22 21 20 20 21 21 22 22 22 21 20 20 20 20 20 20 19 18 18 16 15 14 13 12 11 11 11 10 10 9 9 9 9 9 9 9 9 9 10 10 10
25 24 23 22 21 21 21 21 22 22 23 22 21 20 20 21 21 20 20 20 19 18 17 16 15 14 13 13 12 10 10 9 10 10 9 9 10 10 10 10 11 11
27 27 26 24 23 22 21 20 20 21 22 23 22 21 21 21 22 22 22 22 21 21 20 19 18 17 16 15 14 12 11 10 10 10 10 9 10 10 11 11 12 12
26 27 27 27 25 24 22 21 20 20 21 22 23 23 22 22 22 23 24 24 23 22 22 21 20 20 19 18 16 14 13 12 11 11 10 10 10 10 11 12 13 13
23 25 26 27 26 25 23 22 21 21 21 21 22 23 24 24 24 24 24 24 24 23 23 23 23 22 21 20 18 17 15 14 13 13 12 12 12 12 12 12 13 14
21 22 24 26 27 26 24 23 22 22 21 21 21 21 23 24 25 25 25 25 25 24 24 24 24 24 24 22 21 20 19 17 16 16 15 15 15 14 14 13 14 14
21 21 22 24 26 27 26 25 24 24 23 23 23 22 22 23 24 26 26 26 26 26 26 26 26 26 26 26 25 23 22 21 20 19 18 18 18 17 16 16 16 16
23 23 23 25 26 27 27 27 26 26 26 26 26 25 24 23 23 24 25 27 27 28 28 28 29 29 29 29 28 27 25 25 23 22 21 20 20 20 19 19 18 18
24 25 25 26 28 28 27 26 26 27 28 29 29 29 27 25 25 25 25 26 28 29 30 30 31 32 32 32 30 29 28 27 26 25 24 23 22 22 22 22 21 20
22 24 25 25 26 27 27 26 25 26 28 29 30 30 29 28 27 27 27 27 27 28 29 31 32 33 34 33 32 31 29 29 28 27 26 25 24 24 25 24 24 23
22 23 23 23 23 24 25 26 26 27 28 29 29 29 30 30 29 29 29 28 28 28 28 29 31 33 35 34 32 31 30 30 30 29 28 28 27 27 27 26 26 26
21 21 20 20 21 23 23 25 27 28 27 27 27 28 29 29 29 29 29 29 29 30 29 29 30 32 34 34 33 32 31 31 31 31 31 30 29 29 29 28 28 28
22 21 19 18 18 19 19 21 24 26 26 26 26 26 27 29 28 28 29 29 29 29 30 30 31 31 33 34 34 33 33 32 32 32 32 32 32 32 31 31 30 30
25 22 20 18 17 16 15 16 18 19 21 24 24 23 24 26 27 27 28 29 29 29 29 30 32 32 32 33 33 33 32 32 32 32 33 34 35 35 35 34 33 33
25 24 21 19 18 17 16 16 17 17 18 20 22 22 21 22 24 25 27 28 29 29 29 30 31 32 32 32 32 32 30 30 30 31 32 34 35 36 37 37 37 36
23 25 24 22 20 18 17 17 18 18 18 18 20 20 20 21 22 23 24 25 26 28 30 31 31 32 33 33 32 32 31 30 30 31 32 34 35 36 37 39 39 39
18 23 24 24 24 22 20 19 19 20 19 19 19 19 20 21 22 23 23 23 24 26 28 30 32 32 33 33 33 32 31 31 31 31 32 34 35 36 37 39 40 40
9 13 16 19 23 25 24 23 23 23 21 21 22 22 22 23 24 24 25 24 25 26 27 29 31 32 33 33 33 33 32 31 31 32 33 34 35 35 37 38 40 41
6 7 9 13 16 19 21 23 24 26 27 28 27 26 26 26 26 27 27 27 27 27 27 28 30 32 33 34 34 33 32 32 31 32 34 34 34 35 36 37 39 41

ECMWFNIL_850_spd_081.txt.gz
Wind_Speed
19 17 17 17 16 15 14 14 14 14 13 11 10 10 10 9 10 10 10 9 8 8 8 8 7 8 7 7 8 7 7 7 7 6 6 6 7 7 7 7 7 7
19 18 18 17 17 16 15 15 14 14 14 13 11 10 11 11 11 11 11 10 8 8 9 8 8 7 7 7 7 7 7 8 7 6 5 6 6 7 7 7 7 8
19 20 19 18 17 17 16 15 15 14 14 14 13 12 12 12 12 12 11 10 9 9 9 9 8 8 7 7 7 7 7 7 7 6 6 6 6 6 6 6 7 7
18 20 20 19 17 17 16 16 16 16 15 14 15 14 13 12 13 12 12 11 11 11 10 10 9 9 8 7 7 6 6 6 7 7 7 7 6 6 5 6 7 7
16 18 20 19 18 17 17 17 17 16 16 15 15 15 15 14 13 13 13 12 12 12 11 11 10 10 9 8 7 7 7 6 6 7 7 6 6 6 5 6 7 7
17 16 18 19 20 19 18 18 17 17 17 16 16 15 16 16 16 14 13 13 12 12 11 11 11 11 10 9 8 8 8 7 7 6 6 7 7 6 6 6 7 7
18 17 17 18 20 21 20 19 18 18 17 17 16 16 16 16 17 16 15 13 13 12 12 12 12 12 12 11 10 9 9 9 9 9 7 7 7 7 7 8 8 8
19 18 18 18 19 21 21 21 20 20 19 18 17 17 17 17 16 16 16 15 14 14 13 13 14 13 13 12 11 11 10 10 10 10 8 7 8 7 8 9 8 8
20 20 19 19 20 20 21 21 21 20 20 20 19 18 18 18 17 16 17 17 17 16 15 15 15 14 13 13 13 12 11 11 11 11 10 9 9 9 9 9 9 9
21 21 20 20 21 21 21 21 21 21 21 21 20 19 18 18 19 18 18 19 19 18 18 17 17 16 14 14 14 13 13 12 11 12 11 11 11 10 11 11 11 11
21 21 21 21 21 21 21 21 21 21 21 22 21 20 19 19 20 20 20 21 21 21 21 20 19 18 17 16 14 14 14 13 12 13 12 12 12 11 12 12 13 13
21 21 22 22 22 22 21 21 21 21 22 22 22 22 21 21 20 21 22 23 23 22 22 22 21 20 20 19 17 15 15 14 14 14 13 13 13 12 12 12 13 14
20 21 21 22 22 22 22 22 21 22 22 22 21 22 23 23 22 22 23 25 25 24 23 23 23 23 22 22 20 18 17 16 15 15 15 14 14 13 13 13 14 14
19 20 21 22 22 22 22 23 22 22 22 22 22 22 23 23 23 23 23 24 25 25 25 24 25 25 25 25 24 22 20 18 18 17 16 16 15 15 15 15 15 15
17 18 19 21 22 22 22 23 23 23 23 23 23 23 23 23 23 23 23 23 24 25 25 25 25 25 26 26 27 26 24 21 20 20 19 18 17 17 16 16 17 16
16 17 16 17 19 20 22 22 22 23 23 24 24 24 23 23 23 23 23 23 23 24 25 25 25 25 26 27 28 28 26 24 22 21 21 21 20 20 19 19 18 18
18 16 14 15 16 17 19 20 21 23 23 24 25 25 25 25 24 24 24 23 23 23 24 25 25 25 27 28 29 29 28 27 25 24 23 23 23 23 23 22 21 21
17 15 13 14 16 16 17 19 20 21 23 24 25 26 26 27 27 26 25 25 24 23 24 24 25 25 27 29 30 31 30 29 27 25 24 24 24 25 25 25 24 23
16 15 14 15 17 18 19 20 20 21 22 23 24 24 25 26 27 27 27 27 26 26 25 25 24 25 26 28 30 32 32 31 30 28 26 24 24 25 25 26 26 26
19 19 18 18 19 20 22 21 21 22 22 22 23 23 23 24 25 25 26 27 27 28 28 27 26 26 26 28 30 32 32 32 31 31 30 29 28 26 25 25 26 27
24 26 26 23 22 23 23 21 22 22 21 21 23 21 20 22 23 22 23 25 26 27 28 29 29 29 29 29 30 32 33 33 32 32 33 34 33 33 31 29 28 27
20 24 25 22 21 22 22 22 23 23 21 21 21 19 20 22 22 22 23 24 25 25 27 28 29 30 32 33 33 34 34 33 32 32 33 34 36 37 37 37 36 34
13 17 19 19 20 22 23 23 23 22 21 20 20 21 23 25 23 22 22 23 24 25 26 28 28 29 32 34 35 35 35 33 33 32 33 34 36 37 39 40 41 41
7 10 14 16 17 18 19 21 21 20 20 20 20 23 25 25 24 24 24 24 25 25 26 27 28 29 31 33 34 35 35 34 33 33 33 34 36 37 38 40 41 42
8 8 8 9 10 11 13 15 19 21 21 19 20 23 24 25 26 26 26 27 27 26 26 27 28 29 31 33 34 34 34 34 33 33 34 35 36 37 38 39 40 42
12 11 9 9 9 8 7 9 13 18 20 20 21 23 23 24 26 27 27 27 27 25 26 27 28 28 30 32 33 35 35 34 33 33 34 35 36 37 38 38 39 40

ECMWFNIL_850_spd_084.txt.gz
Wind_Speed
19 19 19 19 17 16 15 15 15 14 13 12 12 11 10 10 11 11 11 10 10 10 9 9 9 9 10 11 11 9 9 10 8 7 8 8 9 8 7 8 8 9
19 19 19 19 18 17 16 15 14 13 13 13 13 12 11 11 12 12 11 11 10 10 10 9 9 9 9 11 11 8 9 9 8 7 7 7 9 9 7 7 7 9
20 20 19 20 19 19 17 15 15 14 13 13 13 14 13 12 12 12 11 11 10 10 10 10 9 9 9 9 9 8 8 8 8 8 7 7 8 9 9 8 7 7
22 21 20 20 19 19 17 16 16 16 14 13 14 14 13 12 12 13 12 11 11 10 10 10 10 9 9 9 9 8 8 8 8 8 8 7 7 7 8 9 9 6
23 22 21 20 19 18 18 18 17 17 16 15 14 14 14 14 14 13 13 12 12 12 11 11 11 10 9 10 9 8 9 9 9 9 8 8 7 7 7 7 9 10
22 23 22 21 21 19 19 19 18 18 17 16 15 15 16 16 15 13 13 14 13 13 13 11 11 11 10 10 10 9 10 9 8 8 8 8 8 7 7 7 8 10
20 22 23 23 22 21 21 21 20 19 18 17 17 16 16 17 16 14 13 14 13 13 13 12 12 12 12 11 11 11 11 10 9 10 9 9 9 8 8 9 9 9
21 21 23 24 24 23 22 21 21 21 19 18 18 17 17 17 17 16 15 14 14 13 13 13 13 13 13 13 12 12 12 11 11 11 10 10 10 10 10 10 9 9
22 22 22 23 24 23 23 21 21 21 21 20 19 18 19 18 18 17 17 16 15 15 15 15 14 15 14 14 14 13 13 12 11 11 11 11 11 10 10 10 11 10
22 24 23 23 24 23 24 22 21 21 21 21 20 19 19 20 19 18 19 19 18 18 17 17 16 16 15 15 15 15 14 14 13 13 13 12 12 11 11 11 11 11
23 25 24 23 23 22 23 23 21 21 21 21 21 19 19 20 20 20 19 20 20 21 20 19 19 18 17 16 16 16 15 15 15 15 14 13 13 12 12 12 12 12
25 25 25 23 23 22 21 21 22 21 21 21 21 21 20 19 20 21 21 21 21 21 21 21 21 20 19 17 16 16 16 16 15 15 15 14 13 13 12 12 12 12
24 25 23 19 19 22 21 20 20 20 20 21 21 21 21 20 19 20 21 22 22 22 21 21 22 22 21 20 18 17 16 16 16 15 15 15 14 13 13 13 12 12
22 24 23 18 16 20 21 20 20 20 20 21 21 20 20 21 20 20 21 22 23 23 22 22 22 22 22 22 21 20 19 18 17 17 16 16 15 15 14 14 13 13
21 22 23 22 20 22 22 22 20 19 19 20 21 20 20 20 20 20 21 21 22 23 23 23 23 23 24 24 23 22 21 21 20 19 19 18 17 17 16 15 15 16
15 17 20 22 23 23 22 22 22 22 21 19 19 20 19 19 20 20 21 21 21 22 23 23 24 24 24 25 24 24 23 23 23 22 21 21 20 20 19 18 18 18
8 11 13 15 18 19 20 20 21 24 24 23 20 19 19 19 19 21 22 21 21 22 23 23 23 24 25 26 26 25 25 25 25 25 24 24 23 23 23 23 22 21
6 9 11 12 13 14 17 20 22 24 25 26 24 22 22 22 21 22 23 23 23 22 23 24 24 24 25 26 27 27 26 26 26 27 27 27 27 26 26 26 26 25
9 10 10 11 11 12 15 17 18 21 23 25 24 23 25 26 25 25 26 27 27 26 24 24 25 25 26 27 28 28 28 27 27 28 29 29 29 28 28 28 28 27
12 11 10 9 10 12 14 14 14 15 19 21 22 22 23 24 26 28 29 29 30 30 29 28 26 26 26 28 29 30 30 30 29 29 30 30 30 29 28 28 28 28
12 14 14 12 12 13 14 14 13 14 16 19 21 22 23 23 24 27 28 28 29 31 32 32 31 29 28 27 28 30 31 32 32 31 31 32 32 31 30 30 29 29
9 11 12 13 15 17 17 16 15 15 17 20 21 22 23 23 24 25 27 28 30 30 30 32 34 33 32 30 29 28 29 30 32 33 34 33 34 34 34 34 34 33
6 6 7 9 13 16 18 18 16 16 17 18 19 20 21 23 24 26 27 27 29 30 30 31 32 33 33 34 34 33 31 31 31 32 33 34 35 35 35 36 37 37
6 6 5 6 8 10 12 15 16 16 16 16 17 19 21 23 24 25 27 26 26 27 30 32 33 32 32 33 35 36 36 36 35 34 34 35 37 37 37 36 36 37
8 7 7 6 5 7 9 11 13 15 16 17 18 19 20 21 22 23 25 25 24 25 28 30 32 32 32 33 34 34 35 37 37 38 39 39 40 40 40 38 37 37
10 8 8 8 5 4 8 10 12 13 15 18 20 20 20 19 20 21 23 24 24 27 29 29 30 32 34 35 34 33 34 36 37 38 40 41 41 40 40 39 39 38

ECMWFNIL_850_spd_087.txt.gz
Wind_Speed
20 21 22 19 18 18 17 16 15 12 11 10 10 10 9 10 11 10 10 10 10 10 11 10 10 11 12 12 13 12 10 10 11 10 10 10 11 10 10 13 14 12
21 21 22 21 20 19 18 16 16 15 13 12 11 10 10 10 11 11 11 11 10 10 11 10 11 12 12 12 13 11 10 11 10 10 10 9 11 11 10 13 14 12
22 21 21 22 22 20 18 16 15 15 14 12 11 11 11 11 11 11 12 12 11 11 10 11 11 11 11 12 12 10 10 11 10 10 10 9 10 12 11 11 11 11
22 22 21 21 22 20 19 17 15 15 15 13 12 12 11 11 12 12 13 13 12 12 11 11 11 11 11 11 12 11 10 11 11 10 10 9 9 11 12 12 10 9
22 22 21 21 21 20 20 19 17 16 16 14 14 13 12 12 12 13 14 13 12 13 12 12 11 12 12 11 12 12 11 11 11 10 10 9 9 9 9 11 11 10
23 23 21 21 20 20 20 20 18 17 17 16 15 15 15 14 13 13 13 13 14 13 13 13 13 13 12 12 12 12 12 12 11 10 10 9 9 9 8 8 9 11
24 23 22 21 20 20 19 19 19 18 17 17 16 16 17 16 15 14 14 14 15 14 14 13 14 14 13 13 13 12 12 13 11 10 10 10 10 10 9 8 7 9
22 22 23 22 20 20 19 18 19 18 17 18 18 18 18 18 18 17 16 15 16 16 15 14 14 14 15 14 14 13 13 13 12 12 11 11 11 11 10 10 9 10
20 19 22 23 22 21 21 19 19 19 18 18 19 18 18 18 20 20 18 16 16 16 16 15 15 15 15 15 15 15 14 13 13 13 12 12 12 12 11 12 12 12
22 20 21 23 23 23 22 21 20 20 20 19 19 19 18 18 19 20 19 18 17 17 17 16 16 16 15 15 15 15 15 15 15 14 13 12 12 12 12 12 13 13
25 24 23 24 24 24 23 22 21 21 21 20 20 20 20 19 19 19 19 19 19 18 18 17 17 17 17 16 16 16 15 15 15 15 14 13 13 14 14 13 14 14
28 27 25 24 25 25 24 23 22 21 21 20 20 21 21 21 20 19 19 19 19 19 19 19 19 19 18 17 16 16 16 16 15 16 16 15 14 15 15 14 14 14
28 28 27 26 25 25 25 24 23 22 22 21 20 20 22 23 22 21 20 19 19 19 19 19 20 21 21 20 18 17 17 17 16 16 17 17 16 15 15 15 15 14
27 28 28 27 24 24 25 24 21 22 23 24 23 21 20 22 25 24 22 20 19 18 18 18 20 22 22 22 21 19 18 18 17 16 17 18 18 17 16 16 15 15
26 28 29 27 25 23 25 24 21 21 23 23 25 26 22 19 23 25 24 23 21 20 19 18 19 20 22 23 22 21 20 19 19 19 18 18 19 18 18 17 16 16
24 26 26 26 25 23 23 23 22 22 22 21 22 27 28 23 22 24 26 25 24 22 21 20 20 19 20 21 22 21 21 20 21 21 21 20 20 20 19 18 17 16
20 21 23 23 24 24 24 24 23 23 23 21 19 23 29 28 25 25 26 26 25 25 24 22 21 21 20 20 21 22 22 22 22 22 23 23 23 22 22 21 20 19
15 17 19 22 24 25 25 25 25 25 25 23 19 19 24 28 28 27 27 26 24 25 26 25 23 21 21 21 21 21 23 23 23 23 24 25 26 26 25 24 23 22
10 11 14 17 20 22 23 24 25 26 27 25 23 20 21 26 28 28 28 27 25 23 25 27 26 24 23 22 21 20 21 22 24 24 25 25 27 28 28 28 27 26
11 11 12 15 16 17 19 20 22 26 28 27 26 24 23 25 27 28 29 28 27 25 24 24 24 23 23 23 22 21 21 22 24 25 25 26 26 27 28 29 30 30
15 14 13 14 15 16 17 18 19 23 26 28 28 28 27 26 27 28 29 29 29 29 28 27 25 22 20 19 19 20 22 25 27 29 29 29 28 28 28 29 29 30
11 14 13 14 16 18 18 19 19 20 23 26 27 28 28 27 27 27 28 29 29 30 30 31 30 28 26 24 22 21 21 22 25 29 33 34 34 32 31 30 29 30
5 10 12 14 17 18 18 19 20 20 21 22 23 24 25 25 25 25 26 27 28 29 29 29 29 31 32 32 31 29 28 26 26 27 31 34 36 36 35 34 33 32
3 4 5 8 14 16 17 19 20 19 19 18 19 20 22 22 23 23 24 25 25 26 26 25 26 29 32 33 34 34 33 33 33 34 33 34 35 35 36 36 36 35
6 4 3 1 5 9 13 15 16 18 18 18 18 18 19 21 22 22 22 23 24 24 23 23 25 28 30 31 32 32 31 31 34 36 36 35 35 35 35 36 36 37
5 5 4 3 2 2 5 8 10 13 15 16 17 18 18 19 20 21 21 21 21 21 20 21 25 28 29 29 29 29 28 27 28 31 32 32 32 33 34 36 36 37

ECMWFNIL_850_spd_090.txt.gz
Wind_Speed
25 23 21 19 16 14 14 13 12 11 10 9 9 9 9 9 10 10 11 11 10 11 11 12 13 13 12 11 11 11 11 11 11 10 11 11 10 10 10 9 10 12
25 24 22 21 18 16 15 14 13 12 10 9 9 8 8 9 10 10 11 11 11 11 11 11 12 12 11 11 11 10 10 11 11 10 10 10 10 11 10 10 12 13
24 24 23 22 20 18 17 16 14 13 12 11 9 9 9 10 10 10 11 11 10 10 9 9 10 10 10 11 11 10 9 10 10 9 10 10 10 11 11 11 14 15
23 23 23 23 22 19 18 17 16 14 14 13 11 11 11 11 11 10 11 11 10 10 9 8 9 9 9 10 10 10 10 9 8 9 9 10 10 11 11 12 15 17
23 23 23 23 23 21 19 18 17 15 15 14 12 12 12 12 11 11 11 11 10 10 10 9 9 9 9 9 9 10 11 9 8 9 10 9 9 9 10 11 13 15
23 23 22 22 22 22 20 18 17 16 15 14 13 13 13 12 12 12 11 11 10 11 11 10 10 10 9 9 9 10 11 10 10 10 10 9 9 9 8 9 11 12
22 23 23 22 22 22 21 19 17 17 15 14 15 14 13 13 13 13 12 11 11 12 11 11 11 11 10 10 11 10 11 11 11 11 11 9 9 10 9 8 9 10
22 22 22 22 22 22 22 20 19 18 17 16 16 15 15 14 14 13 13 12 12 13 13 12 13 13 12 12 12 11 12 12 12 12 12 10 10 10 9 9 9 10
22 21 22 22 22 22 22 21 20 19 19 18 17 17 17 17 15 14 13 13 13 13 14 13 13 13 13 13 12 12 12 12 12 13 12 11 11 11 10 10 11 11
22 21 20 21 23 22 21 20 20 19 20 19 18 18 19 19 18 16 15 14 14 14 14 14 14 13 13 14 13 13 13 13 13 14 13 12 12 12 11 11 12 12
23 21 21 21 22 22 22 20 19 18 19 19 19 19 20 20 20 19 18 17 16 15 15 16 15 15 14 14 14 14 15 15 14 15 14 13 13 13 13 12 13 13
24 23 22 21 21 22 22 21 20 19 19 20 20 20 21 21 21 20 19 19 18 17 17 17 16 16 15 15 14 15 15 15 16 16 15 14 14 14 14 13 13 14
26 23 22 22 23 23 23 23 22 21 21 21 21 22 22 22 22 22 21 19 18 17 17 17 17 17 17 16 15 15 15 15 16 16 16 16 15 14 14 14 14 14
26 24 22 22 22 23 23 24 25 24 23 23 23 23 23 23 22 22 23 21 18 16 15 15 16 17 18 18 18 17 16 16 16 16 16 16 16 15 15 14 14 14
25 24 23 22 22 23 23 24 25 26 26 25 24 24 24 24 23 22 22 23 21 19 17 16 15 16 16 17 18 19 19 19 18 18 17 17 17 17 16 16 16 15
27 26 24 23 24 25 24 23 26 27 27 26 26 25 24 25 26 25 23 23 23 22 21 19 18 16 15 14 15 16 18 19 20 20 20 19 19 18 18 18 18 18
27 27 26 25 25 26 25 24 26 28 28 27 26 25 24 24 27 29 27 25 24 24 24 22 21 19 16 15 14 13 13 15 17 19 20 21 21 22 21 20 20 20
24 26 26 26 26 26 26 26 26 28 29 29 27 24 21 22 24 29 31 29 27 26 25 24 23 22 21 20 19 17 16 15 15 16 17 18 19 21 22 22 22 22
20 21 23 24 24 25 26 27 27 28 29 29 28 26 22 19 21 27 31 31 30 29 27 26 25 25 25 24 23 22 21 20 19 18 17 16 16 17 18 19 20 21
17 17 18 19 21 22 23 24 25 27 28 28 29 28 25 21 21 24 29 31 30 29 27 27 26 26 25 25 24 23 23 22 22 21 20 19 18 18 18 18 18 19
14 15 15 16 17 18 20 21 22 23 25 26 27 28 28 25 23 23 27 29 30 29 28 27 26 26 26 24 23 23 24 24 24 24 24 24 24 24 24 24 23 24
11 12 12 12 14 15 17 18 19 19 20 22 23 25 25 25 24 24 25 28 29 30 30 29 27 25 24 23 23 23 24 24 24 24 25 26 27 27 27 28 28 28
7 9 10 9 10 12 14 15 17 17 17 18 19 21 21 21 21 22 23 25 26 26 27 29 30 28 26 24 24 24 25 25 25 25 26 27 28 28 28 28 28 29
4 5 7 6 7 9 11 13 15 16 16 16 17 18 18 19 19 19 20 20 20 19 19 22 25 26 25 25 26 26 28 29 29 30 31 33 34 33 33 33 32 31
8 7 6 3 2 4 6 8 10 12 14 16 16 15 16 17 19 18 17 18 19 22 23 24 24 23 22 22 24 27 30 32 34 35 37 38 38 38 37 36 36 36
8 8 7 5 4 2 0 1 3 5 8 11 12 12 13 15 18 17 15 14 18 22 24 25 26 25 24 24 26 28 30 32 34 36 38 39 40 39 38 37 37 38

ECMWFNIL_850_spd_093.txt.gz
Wind_Speed
22 20 19 17 15 14 13 12 11 11 11 11 9 9 9 9 10 11 11 11 11 11 11 11 12 12 12 11 10 10 10 10 9 9 9 9 9 9 9 10 10 8
23 22 20 19 17 15 14 13 11 11 11 10 9 8 9 9 11 11 11 11 11 11 11 11 12 12 11 10 10 10 9 9 9 9 9 9 9 9 9 10 10 10
24 23 22 21 18 16 15 13 12 11 11 11 10 9 10 10 11 11 10 10 10 11 11 11 11 11 11 10 10 10 8 8 8 8 9 10 10 10 10 10 11 11
24 24 24 23 20 18 16 14 13 13 12 12 11 11 11 11 11 11 10 10 10 10 11 10 11 11 10 10 10 9 8 8 8 9 9 9 8 9 10 11 11 12
24 23 23 23 22 20 19 17 15 14 14 13 12 12 12 12 11 11 11 11 11 10 10 10 10 10 10 9 9 9 9 8 8 9 9 8 8 7 8 10 12 12
22 23 23 23 23 22 21 19 17 15 15 13 12 12 12 12 12 11 11 11 11 11 10 9 10 10 9 9 9 9 9 8 8 9 9 8 7 7 7 8 10 12
22 22 23 22 22 23 23 21 19 17 16 14 13 13 13 13 13 12 12 11 11 11 10 10 10 10 10 10 9 9 8 8 8 9 8 7 7 8 8 7 8 9
22 22 23 22 22 23 23 22 20 19 17 15 14 14 14 14 13 13 13 12 11 12 11 11 11 11 11 11 10 9 9 9 9 8 8 8 8 8 8 8 8 8
23 22 22 22 22 22 22 22 21 20 18 17 16 14 14 15 14 13 13 13 12 12 13 13 12 12 12 11 11 10 10 9 9 9 8 8 9 9 8 9 9 9
24 23 23 23 23 22 22 21 21 20 20 19 18 16 15 15 15 14 14 14 14 14 13 13 13 13 13 12 12 12 11 10 10 10 10 9 9 9 9 10 10 10
25 24 24 24 24 23 22 21 20 20 20 19 18 17 16 15 15 15 14 15 15 15 15 14 13 13 13 13 13 13 12 11 11 12 12 12 11 10 9 10 11 11
25 25 24 24 24 23 22 21 20 20 19 18 18 17 15 14 14 15 16 16 16 16 15 15 14 14 14 14 14 14 14 13 13 13 14 14 13 12 11 11 12 12
24 24 24 23 23 22 21 21 21 21 20 19 18 16 15 14 14 14 15 16 16 16 15 15 15 14 14 15 15 15 15 15 14 14 14 15 15 15 14 14 13 13
25 24 24 23 22 21 20 20 21 22 21 20 19 18 16 15 15 14 14 15 16 16 15 14 14 14 13 14 14 15 15 15 14 14 15 15 16 16 16 16 15 14
26 26 25 24 23 22 21 20 20 21 22 21 20 19 18 17 16 15 15 15 16 16 16 15 14 14 13 12 12 13 14 14 14 14 14 15 15 16 16 17 17 17
29 28 27 25 24 23 22 21 21 21 21 22 22 21 20 19 18 17 17 16 17 17 18 18 17 16 14 13 13 12 13 13 13 13 13 14 15 16 16 17 17 18
31 29 28 27 25 24 23 22 21 20 21 22 23 23 22 21 21 20 19 19 18 19 20 20 20 18 17 16 15 15 15 15 15 15 15 15 16 16 16 17 17 18
30 29 28 27 25 24 23 22 22 21 20 21 23 24 24 24 23 23 22 21 21 21 22 22 22 21 20 19 18 18 19 19 19 18 17 17 16 16 15 15 15 16
27 26 25 25 25 24 23 23 22 22 22 22 23 24 24 25 25 25 23 23 23 23 23 23 23 22 22 22 22 21 21 22 22 22 21 19 18 17 16 15 15 15
19 19 20 21 22 23 24 25 25 25 25 25 25 25 26 27 28 26 24 22 22 22 22 23 24 24 24 24 24 23 22 23 24 24 23 22 21 20 19 18 17 17
15 16 17 18 18 19 20 22 23 24 24 24 24 24 25 26 27 27 25 23 22 22 22 23 23 24 25 26 26 24 23 23 24 24 24 24 24 23 22 21 20 20
11 13 14 15 16 16 16 17 18 18 19 19 19 18 18 19 22 25 26 26 25 23 22 22 23 23 23 24 25 25 24 24 24 24 25 25 25 25 24 23 22 22
5 6 8 10 11 13 12 12 13 14 15 16 16 15 13 13 16 19 21 23 23 22 22 22 22 22 22 22 22 22 23 23 24 25 25 26 26 25 25 25 24 24
4 4 5 7 8 9 8 8 9 10 12 13 15 16 15 14 14 16 18 18 18 19 22 23 23 23 23 23 22 22 22 23 24 25 27 27 28 27 27 27 27 27
5 4 4 5 6 7 5 5 6 7 8 10 13 15 16 14 13 16 19 18 15 17 21 24 24 24 23 22 22 22 23 24 25 27 28 29 29 29 29 29 29 29
5 5 4 5 4 4 3 2 2 3 4 7 10 12 13 14 13 15 18 18 16 16 19 20 22 23 23 23 23 23 23 24 25 27 29 30 31 32 33 33 33 33

ECMWFNIL_850_spd_096.txt.gz
Wind_Speed
18 18 17 15 13 12 11 10 10 10 9 8 8 8 8 8 9 9 9 8 9 9 10 10 10 10 11 10 8 8 8 8 8 9 9 9 7 7 7 8 9 8
19 19 18 17 15 13 12 11 11 10 9 8 7 7 8 9 9 9 8 9 9 9 9 10 10 11 11 10 9 8 8 7 8 8 8 8 8 8 8 8 8 8
20 20 19 18 17 15 13 12 11 10 8 8 8 7 8 9 9 9 9 9 9 9 9 9 10 10 10 10 9 9 8 7 7 8 8 8 8 8 8 8 8 8
21 20 20 19 17 16 14 13 13 11 9 9 9 9 9 9 10 10 10 10 9 9 10 10 9 10 10 10 10 9 8 7 7 8 8 8 8 8 8 9 9 9
21 20 19 18 18 17 16 16 14 13 12 10 9 9 10 10 10 11 11 11 11 10 10 10 9 9 9 10 9 9 8 7 7 7 7 7 7 8 8 9 9 9
20 20 19 19 18 18 18 18 16 15 13 12 10 10 10 11 11 12 12 12 12 11 11 10 10 10 9 9 8 8 7 7 7 7 7 7 6 7 7 8 8 8
20 20 19 19 19 19 19 19 18 16 15 13 12 11 11 12 12 12 12 12 12 12 11 11 11 10 10 9 8 8 7 6 7 8 7 6 5 6 6 7 7 7
20 20 19 20 20 21 20 20 19 18 16 15 13 12 12 12 13 13 13 12 12 11 11 11 11 10 10 10 9 8 7 7 7 7 6 5 5 5 5 6 6 6
20 20 20 20 21 22 21 20 19 18 18 17 15 13 13 13 13 13 13 13 12 11 10 11 11 11 11 11 10 9 9 8 7 7 6 5 5 4 5 5 5 5
20 20 21 21 21 22 22 21 20 19 19 18 16 15 15 14 14 14 13 13 13 11 10 10 10 10 11 11 11 10 10 9 8 8 7 7 6 5 5 5 5 5
20 20 21 22 22 22 23 22 21 20 19 19 18 17 16 15 15 15 15 14 13 12 11 10 9 9 9 10 10 10 11 11 10 9 9 8 7 7 7 7 7 7
22 21 21 22 23 22 22 22 21 21 20 20 19 18 17 17 16 16 16 16 15 13 12 11 10 9 9 9 9 9 11 12 12 11 11 10 9 8 8 9 9 9
23 22 20 21 22 22 22 22 22 21 21 20 19 19 18 18 17 16 16 15 15 14 12 11 10 9 9 9 9 9 10 11 12 12 12 12 11 10 10 10 10 11
22 22 20 20 21 21 21 22 22 22 21 20 20 19 19 18 17 17 15 14 14 13 12 10 10 9 9 8 8 8 9 9 10 11 12 12 12 11 10 10 10 11
24 22 20 20 21 21 20 20 21 21 21 21 21 20 19 18 17 16 15 14 14 13 11 11 10 10 9 8 7 7 7 8 8 9 10 10 10 10 10 10 11 11
27 23 21 20 21 21 21 20 19 20 20 20 21 21 20 19 18 17 16 15 14 13 13 12 12 11 10 9 8 7 7 8 9 9 10 9 9 9 9 9 9 10
28 24 22 22 21 22 22 20 20 19 19 19 19 19 19 20 19 18 17 15 15 14 14 14 13 12 11 11 10 10 10 10 11 11 11 11 10 10 9 9 9 9
29 26 24 23 22 22 21 21 21 20 20 20 20 19 19 19 19 19 17 16 15 15 15 15 14 13 12 12 12 12 12 12 13 13 13 13 12 12 11 11 10 11
29 27 25 24 25 24 22 21 22 22 21 22 22 22 21 20 20 20 19 18 16 15 15 15 14 14 13 13 13 13 13 14 14 14 14 14 14 14 14 13 13 13
24 24 24 25 26 25 23 22 22 22 21 21 21 22 20 20 20 21 21 20 19 18 17 16 15 15 15 15 15 15 15 16 16 15 15 15 15 15 15 15 15 15
15 17 20 23 24 24 24 22 21 21 21 21 21 21 20 19 20 21 22 22 21 20 19 18 17 16 16 16 16 17 17 18 18 17 17 17 16 16 17 17 17 18
13 13 15 17 19 21 22 21 20 19 20 20 20 20 21 22 22 22 23 23 22 21 20 20 19 18 17 17 17 18 18 19 19 19 19 19 18 18 19 19 20 20
8 8 10 13 16 16 17 17 17 17 18 18 18 19 20 20 21 22 22 22 21 20 19 19 19 18 18 18 18 18 19 19 19 20 20 20 20 20 21 21 21 21
2 2 4 8 10 11 11 12 13 13 14 17 19 19 17 15 16 18 19 19 19 20 20 19 18 18 17 17 18 19 19 20 20 20 21 21 21 21 21 22 22 22
3 3 3 5 6 7 7 7 7 7 9 13 16 16 15 14 14 14 15 16 16 17 19 18 18 18 17 17 17 18 19 20 21 21 21 22 22 22 23 23 23 23
6 6 4 3 3 3 3 2 3 5 7 8 10 11 12 13 13 13 15 15 14 15 16 15 15 16 16 17 18 19 20 20 21 22 23 23 24 24 24 25 25 25

ECMWFNIL_850_spd_099.txt.gz
Wind_Speed
13 12 12 12 11 10 8 7 6 6 6 5 5 5 5 5 6 7 8 8 8 8 9 9 8 8 8 8 7 8 8 7 7 7 7 7 7 6 7 7 7 6
14 14 13 13 13 11 10 8 7 6 6 5 5 4 5 6 7 7 8 8 8 7 8 8 8 8 8 8 7 8 8 7 6 6 7 7 7 7 7 7 7 7
15 15 14 14 13 12 11 9 8 7 6 6 6 5 5 6 7 8 8 8 8 8 8 8 8 8 8 8 8 8 8 8 7 7 7 7 7 8 8 8 8 7
16 15 15 15 14 13 12 11 9 8 8 7 6 6 6 6 7 8 8 8 8 8 9 9 8 8 8 8 8 8 8 8 8 8 8 8 8 8 8 8 8 8
16 16 16 15 15 14 13 13 11 10 9 8 8 7 7 7 8 8 8 9 9 9 9 9 9 8 9 9 8 8 8 8 9 9 8 8 8 8 8 8 8 8
17 16 17 16 15 15 15 14 13 11 10 10 9 9 9 8 8 8 9 9 9 9 9 9 9 9 9 9 9 9 9 9 9 9 9 8 8 8 8 8 8 8
17 16 17 17 16 16 16 16 15 13 12 11 10 10 10 9 9 9 9 9 9 9 9 10 10 9 9 9 9 9 8 9 9 9 9 8 7 8 7 7 7 7
18 16 16 17 17 17 17 17 16 15 14 13 11 11 10 10 10 9 10 10 10 10 10 10 10 10 9 10 9 9 9 9 9 8 8 7 7 7 7 7 7 7
19 18 17 17 17 18 18 18 17 16 15 14 13 12 11 11 10 10 10 10 10 10 10 10 10 11 11 10 10 9 9 9 9 8 8 8 7 7 7 7 7 7
19 18 18 18 18 18 17 18 18 17 16 16 15 14 12 11 10 11 11 11 11 11 10 10 10 11 11 11 10 10 10 9 9 9 9 8 8 7 7 7 8 7
19 18 17 17 18 18 17 17 17 18 17 17 16 15 14 12 11 11 12 12 12 11 11 10 10 10 11 11 11 10 9 9 9 9 9 9 9 8 7 7 7 7
21 20 19 17 17 17 18 18 18 18 18 17 17 16 15 14 13 12 12 13 13 12 12 11 10 10 10 10 10 9 9 9 9 9 10 10 10 9 8 8 7 7
22 21 20 19 17 17 18 19 19 18 18 18 17 17 16 16 15 14 13 13 13 14 13 12 12 11 11 10 10 9 9 9 9 9 10 10 10 10 9 9 8 8
23 21 21 21 20 18 18 19 19 19 19 18 18 17 17 17 16 15 15 14 15 15 15 14 13 12 12 11 11 10 10 9 9 9 9 10 10 10 10 10 10 9
23 21 20 20 20 19 18 19 20 20 19 19 18 17 17 17 17 16 16 16 16 16 16 15 15 14 13 12 11 10 10 9 9 8 8 9 9 9 10 10 10 9
25 23 21 20 19 18 18 19 20 20 20 20 20 19 18 18 17 17 16 16 16 16 16 16 16 15 14 13 12 11 10 10 9 8 8 8 8 9 9 9 9 9
28 26 25 23 21 19 18 19 20 20 20 21 21 20 19 19 19 18 17 16 16 16 16 16 16 16 14 13 13 13 12 11 11 10 10 10 10 10 9 9 9 9
28 28 27 26 25 23 20 19 20 21 21 22 22 21 20 19 19 19 19 18 18 17 17 17 17 16 14 13 14 15 15 14 13 13 12 12 12 11 11 10 10 10
27 27 27 26 26 26 23 20 20 21 22 22 21 21 20 19 19 19 19 19 19 18 18 17 16 16 15 15 15 16 17 17 16 15 14 13 13 12 12 12 12 12
27 27 27 26 27 27 25 23 22 22 22 21 20 20 20 19 18 18 18 18 18 18 16 16 16 16 15 15 16 16 17 18 18 17 16 15 14 14 14 14 14 14
25 25 26 27 28 28 27 25 23 22 20 20 19 18 18 18 18 18 18 18 17 16 15 16 17 17 16 16 16 16 16 17 18 18 18 17 16 16 16 16 16 16
20 21 22 23 26 27 27 26 25 23 21 19 17 17 17 18 18 18 19 20 19 18 17 17 18 18 18 17 16 16 16 16 16 17 18 19 19 18 18 18 18 18
10 14 17 19 22 24 24 25 25 23 21 19 18 17 18 18 19 20 20 20 19 18 18 18 17 17 17 17 17 17 17 16 16 16 17 18 19 19 19 19 19 19
6 7 10 12 14 16 19 21 21 21 20 18 18 17 16 16 18 20 19 17 16 17 18 18 17 16 16 17 17 18 18 18 18 17 17 17 17 18 19 19 19 19
7 6 5 5 6 8 11 13 16 17 17 16 16 16 16 15 16 16 15 15 15 17 18 18 17 17 17 18 18 19 18 19 18 18 18 18 18 18 19 20 20 21
9 8 6 5 5 5 6 7 10 13 14 13 13 14 15 16 15 13 12 13 14 14 15 16 16 17 17 18 19 20 19 19 19 19 19 19 19 19 20 20 20 21

ECMWFNIL_850_spd_102.txt.gz
Wind_Speed
14 13 13 12 11 10 9 8 6 6 5 5 5 5 5 7 8 8 8 8 8 8 8 8 8 8 8 7 8 7 7 7 6 6 5 5 4 4 4 4 5 5
15 14 14 13 12 12 10 8 8 7 6 6 6 6 6 6 7 8 8 8 8 8 8 8 8 8 8 8 8 8 7 8 7 6 6 6 5 4 5 5 5 6
15 15 14 13 12 11 10 9 9 8 7 6 6 6 5 5 7 7 8 8 8 8 8 9 8 8 8 8 8 8 8 8 7 7 7 7 5 5 5 5 5 5
16 15 14 13 12 11 10 10 10 8 7 7 6 6 6 7 7 7 8 8 8 8 8 9 9 9 9 9 9 8 8 8 9 9 8 7 6 6 5 5 6 5
15 16 15 14 13 12 11 11 10 9 8 8 7 7 8 8 7 7 7 8 8 8 8 8 8 8 9 9 9 8 7 7 8 9 8 7 7 6 5 6 7 6
15 15 15 15 15 14 13 12 11 9 9 8 8 7 7 7 7 7 8 7 7 7 7 8 8 8 8 8 8 8 7 7 7 8 8 7 7 6 6 7 8 7
16 15 15 15 15 15 14 13 12 11 10 9 8 8 8 8 8 8 8 8 8 8 8 9 9 9 9 8 8 8 8 8 8 9 9 7 8 8 7 8 8 7
16 15 15 15 15 15 15 14 13 12 11 10 9 9 9 8 8 8 9 9 8 9 9 10 10 9 9 9 8 8 8 7 7 8 8 8 8 9 8 8 8 7
16 16 16 15 15 15 15 15 14 13 13 12 11 10 9 10 9 9 10 10 9 10 10 10 10 9 9 9 9 8 8 8 7 8 8 7 7 8 8 7 8 7
16 16 16 15 15 15 15 15 14 14 14 14 13 11 10 11 10 10 12 12 10 11 11 10 10 10 9 9 9 9 8 8 9 9 8 8 7 7 7 7 7 7
16 16 16 16 15 15 15 15 15 15 14 14 14 13 12 12 12 12 13 13 12 11 11 11 11 10 10 10 9 9 9 8 9 9 9 8 8 8 8 8 8 7
18 16 16 16 16 15 15 15 15 15 15 15 15 15 14 13 13 13 13 13 13 12 11 11 11 11 12 11 10 9 9 9 9 9 9 9 8 8 9 9 8 8
20 19 17 16 15 15 15 15 15 15 15 15 15 15 15 15 15 14 14 14 13 13 12 12 12 12 13 13 12 11 10 10 9 9 9 9 9 9 9 9 9 8
21 20 19 18 16 16 16 15 15 15 15 15 15 15 16 16 16 15 15 14 14 13 13 13 14 14 13 13 13 12 11 11 10 10 9 9 9 9 9 9 9 9
22 21 20 19 18 18 18 18 17 17 17 17 16 16 16 16 16 16 15 14 14 15 14 14 14 13 13 14 13 12 12 11 11 10 10 10 10 9 9 10 10 10
23 24 23 20 19 19 19 20 19 19 18 18 18 17 17 17 17 17 16 15 15 16 16 16 14 14 15 16 15 13 12 11 11 11 11 11 10 10 10 9 10 10
24 25 25 23 21 19 19 20 21 19 19 19 19 19 18 18 19 18 17 16 15 16 16 16 14 14 17 17 16 15 14 12 12 12 12 12 11 11 10 10 10 10
25 26 27 26 23 21 20 20 20 20 20 19 20 20 19 19 20 20 19 17 15 15 15 15 14 16 18 17 16 16 16 15 14 12 12 12 12 11 11 11 11 11
26 27 29 30 29 26 24 22 21 21 21 20 21 20 19 19 20 20 21 19 16 15 14 14 15 17 18 17 16 16 17 18 17 15 13 12 12 12 12 12 12 12
24 25 27 29 30 29 28 27 25 23 21 20 20 20 19 19 19 18 19 19 19 18 16 15 17 18 19 18 18 17 17 18 19 18 16 14 14 13 12 12 13 14
23 23 24 26 28 28 27 27 26 26 23 21 20 19 19 18 17 16 17 18 19 19 17 18 21 21 20 19 18 18 17 17 18 19 18 16 15 16 16 15 15 15
23 22 21 21 23 24 25 26 25 25 24 22 21 21 20 19 18 17 16 17 17 15 15 20 24 23 21 20 20 19 17 16 16 17 18 17 16 18 19 18 18 18
20 22 23 22 22 21 23 25 26 26 27 26 23 21 21 21 20 18 17 19 18 16 17 22 24 21 20 20 20 19 17 16 15 15 16 17 17 19 21 20 21 21
8 13 18 20 21 21 21 23 26 27 28 28 27 24 22 21 20 20 22 24 23 20 20 22 21 19 19 19 19 19 18 16 16 16 15 15 14 17 18 18 20 22
7 6 6 8 11 14 16 19 22 24 25 27 29 27 24 21 20 22 23 22 19 18 18 20 19 18 18 18 18 19 17 17 16 15 13 12 11 12 11 11 15 18
8 7 7 6 5 6 8 11 14 17 20 24 27 28 26 23 22 23 22 16 13 14 18 20 19 18 18 18 19 19 18 18 16 14 12 11 10 12 12 9 11 14

ECMWFNIL_850_spd_105.txt.gz
Wind_Speed
11 10 9 9 8 8 8 8 7 7 7 7 6 7 8 8 9 10 10 10 10 10 10 9 9 9 8 7 8 8 7 7 6 5 6 5 4 4 4 4 4 4
12 11 11 10 10 11 10 9 8 7 8 9 7 7 7 8 9 10 10 10 9 9 10 9 9 9 8 7 8 9 8 8 7 5 6 6 5 4 5 4 5 5
14 13 12 11 11 11 10 9 9 8 7 8 8 7 6 7 8 9 10 10 9 8 9 9 9 9 9 9 10 9 7 9 8 5 7 8 6 5 5 5 5 5
14 13 12 12 10 9 9 9 9 8 8 7 8 7 7 7 8 9 9 10 10 10 10 10 9 10 10 11 10 9 8 9 8 8 9 9 6 6 5 5 5 5
15 14 13 13 11 10 10 10 9 8 8 8 8 8 8 9 9 9 9 9 10 11 10 10 10 10 10 10 10 10 9 8 8 9 9 7 6 6 5 6 6 5
14 15 14 14 13 12 11 11 10 10 9 9 9 9 9 9 9 9 9 9 9 9 9 10 10 10 10 10 10 11 10 9 9 9 8 7 7 6 5 6 7 7
14 15 15 14 13 13 13 12 12 11 10 11 11 10 9 9 9 9 10 10 9 9 10 10 10 10 10 10 10 11 10 10 10 10 9 8 7 7 7 6 8 9
14 14 14 15 14 14 14 14 13 13 12 12 11 11 11 10 10 10 10 10 10 10 10 10 11 12 10 9 9 10 10 9 10 10 9 8 8 9 8 8 9 9
14 14 14 15 15 15 15 15 15 14 14 13 12 12 12 11 11 10 11 11 10 11 11 11 12 12 10 10 10 10 9 9 9 9 9 8 8 8 8 8 9 9
14 15 15 15 16 16 15 16 15 15 14 14 14 13 12 12 12 11 12 13 11 11 13 12 12 12 10 11 12 11 10 10 10 10 9 9 8 8 8 8 9 9
14 14 16 16 16 16 16 16 16 15 15 15 15 14 13 12 12 12 13 15 13 12 12 12 12 12 11 11 12 11 10 10 10 11 11 10 9 9 9 9 9 9
15 15 15 16 16 16 16 16 16 16 16 16 15 15 14 13 13 13 13 15 13 12 12 12 12 12 12 12 12 11 10 10 10 10 10 9 9 9 10 9 9 9
18 16 15 16 16 17 16 16 16 16 16 16 15 15 15 15 14 13 13 14 13 13 13 13 13 13 13 13 12 11 11 10 10 10 9 10 10 10 9 9 9 9
17 17 17 16 16 16 17 16 15 16 16 15 15 15 15 16 15 14 14 13 13 13 13 13 14 13 13 14 13 12 12 11 10 10 10 10 10 10 10 10 10 10
15 16 18 18 18 17 17 17 16 15 15 15 15 15 15 15 15 15 15 14 14 14 14 14 14 14 14 14 13 12 12 11 11 11 11 10 10 10 10 11 11 11
17 19 20 21 21 20 19 18 17 15 15 15 15 15 15 15 15 15 15 15 15 15 15 15 15 15 14 15 14 13 12 11 11 11 11 11 11 11 11 11 11 12
19 20 21 22 23 23 22 20 19 17 16 15 16 16 15 15 15 15 16 16 15 15 16 15 15 15 15 16 17 15 13 12 11 11 12 12 12 12 12 11 12 11
23 22 21 21 22 23 24 23 22 20 18 16 16 16 16 16 16 16 17 16 15 16 16 16 16 17 16 17 18 17 16 15 12 11 12 12 12 12 12 12 12 12
29 27 24 22 21 22 24 24 23 22 21 19 16 14 14 15 16 17 17 17 17 16 15 15 17 18 17 17 18 18 18 18 16 13 12 12 12 12 12 13 13 12
25 26 25 25 23 23 24 24 23 22 22 22 20 17 17 17 17 16 16 16 17 17 16 17 18 18 18 20 20 18 18 19 19 16 13 13 13 12 13 13 13 13
21 21 23 26 27 26 26 27 27 25 23 22 22 21 21 21 20 19 17 16 17 17 15 16 16 16 18 20 21 19 18 18 19 18 16 15 15 15 15 15 14 13
21 21 22 23 25 27 27 27 29 30 27 25 24 23 23 22 21 20 19 20 22 20 16 14 14 14 16 19 19 19 19 18 19 19 18 17 16 16 15 15 15 14
22 24 24 24 23 23 24 25 26 27 27 26 26 26 24 22 21 20 20 22 24 22 20 18 17 17 17 19 19 19 19 18 19 19 17 16 17 16 15 17 18 17
14 19 22 24 23 22 22 21 20 21 24 26 28 27 24 23 22 21 22 23 22 21 21 20 18 19 20 21 22 22 20 19 20 19 15 15 17 15 13 16 18 15
4 8 11 13 16 20 22 21 19 19 21 24 26 26 24 23 24 23 23 23 22 21 21 20 19 19 20 20 21 21 20 19 20 19 17 17 18 14 10 12 13 13
4 3 2 2 4 9 13 16 17 18 20 21 22 23 23 23 25 25 22 20 20 21 21 21 21 20 20 21 21 20 19 18 18 19 20 20 19 15 12 12 11 11

ECMWFNIL_850_spd_108.txt.gz
Wind_Speed
12 12 10 9 9 9 8 9 8 7 7 7 7 8 9 10 9 10 10 10 10 11 10 9 9 9 8 8 9 9 7 7 7 4 4 5 3 2 2 3 3 2
12 11 10 9 9 10 9 8 7 8 9 8 7 9 10 10 9 11 11 11 10 10 10 10 10 10 9 9 9 10 9 7 7 6 6 6 4 3 3 4 3 2
12 11 11 11 10 10 9 9 9 10 11 11 9 9 9 10 10 11 12 12 10 9 10 10 10 10 10 10 9 8 8 7 8 8 8 7 6 5 4 4 4 4
13 12 12 12 11 9 9 11 12 11 11 11 11 10 9 9 10 10 10 11 10 10 10 10 10 10 10 10 8 8 9 8 8 9 9 7 6 6 6 4 4 5
15 14 13 13 12 10 12 14 13 12 12 12 11 11 9 9 10 9 9 10 10 11 10 10 10 10 10 9 9 10 11 10 9 10 9 8 7 7 6 4 6 7
15 15 14 14 13 12 13 14 12 11 12 11 10 10 9 9 9 9 8 9 9 10 10 10 9 9 10 9 9 10 11 10 10 10 9 8 8 8 6 5 8 9
15 15 15 15 14 13 12 12 11 11 11 10 10 10 10 10 9 8 9 9 9 10 11 10 10 9 9 9 9 10 11 11 10 10 10 9 8 9 8 7 9 9
15 15 15 15 14 14 13 12 12 11 10 11 11 11 11 11 10 10 10 9 9 10 10 11 10 9 9 10 10 10 10 10 10 9 9 9 9 10 9 8 9 9
15 15 15 15 14 14 14 13 13 11 11 11 12 12 13 12 11 11 11 10 10 10 11 12 11 10 10 10 10 10 10 9 10 10 9 9 10 10 8 9 9 8
15 15 14 14 14 14 14 14 13 13 12 12 13 13 13 12 11 11 12 12 12 12 12 13 12 10 10 10 10 10 9 9 11 11 9 8 9 9 8 7 8 8
14 14 14 13 13 13 14 13 13 13 13 13 14 13 12 11 11 12 13 13 12 13 13 13 12 11 11 10 9 9 9 10 11 12 10 9 8 8 8 8 9 9
13 13 13 13 13 13 13 13 13 13 14 13 13 14 13 13 13 13 14 14 13 13 13 13 12 12 12 11 10 10 11 11 10 11 11 10 10 10 9 10 10 9
15 14 14 13 13 13 12 13 13 13 14 15 14 14 14 14 14 14 14 14 13 13 13 13 12 12 12 12 11 12 12 11 10 11 11 10 9 9 9 9 10 9
15 16 16 14 12 12 12 13 13 13 13 14 15 15 14 15 14 13 14 15 14 13 13 13 13 13 13 13 12 12 12 11 11 12 11 10 9 9 9 10 11 10
13 14 15 15 14 13 12 12 13 13 13 13 14 15 14 14 15 14 15 15 14 13 13 13 13 14 14 14 13 13 13 12 11 12 12 11 11 11 12 10 10 11
16 15 15 17 18 17 16 14 13 13 13 13 14 15 15 14 15 15 15 15 15 13 12 12 15 15 15 14 13 13 13 12 12 13 12 12 12 13 12 10 10 10
19 18 18 19 18 19 19 18 17 16 14 13 13 14 15 14 14 14 14 14 14 14 13 14 16 16 16 14 11 12 13 12 13 14 12 12 14 13 13 12 11 10
19 20 21 21 20 20 20 20 21 21 19 18 15 13 14 14 14 15 15 14 13 13 15 17 17 16 15 14 12 12 12 11 12 13 11 11 12 13 13 12 10 10
21 21 21 21 19 20 20 21 22 23 23 23 22 18 15 15 16 17 17 15 13 13 14 16 16 15 16 15 13 13 13 12 13 13 12 11 11 11 11 11 11 12
23 23 23 22 20 20 21 21 22 22 22 25 26 24 20 17 17 18 18 18 17 14 14 14 14 13 14 16 14 14 15 15 14 13 13 13 11 11 12 13 13 13
21 22 23 23 23 24 24 23 22 22 22 23 25 25 24 21 19 18 19 19 18 17 17 17 14 12 12 14 14 15 16 16 15 14 14 12 12 14 15 15 14 14
18 19 19 19 19 22 24 24 22 22 22 23 23 23 24 24 21 19 20 20 19 18 19 18 16 14 13 13 13 15 16 17 17 16 14 12 13 16 17 15 14 14
17 18 18 18 17 18 21 22 23 24 25 25 24 24 24 24 21 20 20 20 19 18 19 19 18 16 15 14 15 16 17 18 17 15 13 13 15 17 17 16 15 14
9 12 14 16 18 19 19 20 22 24 26 26 26 26 26 26 24 22 21 20 20 20 21 22 20 18 16 15 16 18 18 18 17 16 15 15 16 17 16 17 15 13
1 2 4 8 13 16 18 20 21 22 23 24 24 24 26 27 27 26 24 22 21 22 23 23 23 21 20 18 18 20 19 19 19 20 19 18 18 17 16 16 15 12
6 6 5 3 1 5 10 14 18 19 19 21 22 20 21 23 25 26 26 24 23 23 24 25 24 24 23 21 20 20 19 19 21 22 20 19 18 17 16 16 15 14

ECMWFNIL_850_spd_111.txt.gz
Wind_Speed
15 15 14 13 13 13 13 12 13 13 13 12 11 9 8 8 8 7 7 8 8 9 9 8 9 9 8 7 8 7 8 7 6 5 4 5 7 6 6 6 5 4
15 15 14 13 13 13 13 13 13 13 13 12 10 10 10 9 9 9 9 9 8 9 10 9 9 9 9 9 8 8 9 8 7 7 6 6 6 6 6 6 6 6
15 15 15 14 13 13 12 12 13 13 12 11 10 10 11 10 9 11 11 11 9 8 9 10 10 10 10 10 9 9 10 9 8 8 7 6 6 6 7 7 6 5
15 15 14 14 13 12 12 12 13 13 12 11 10 10 10 10 9 10 12 12 11 9 9 9 10 10 10 10 9 9 9 9 9 9 8 7 7 6 6 6 5 5
15 14 14 13 13 12 12 13 12 11 11 10 11 11 9 8 8 9 11 12 11 10 9 9 9 9 9 9 9 9 10 10 10 10 9 8 7 7 6 6 5 5
16 15 13 13 13 12 11 12 12 10 10 10 11 11 9 8 8 8 10 10 9 10 10 9 8 9 9 9 9 10 10 10 10 10 10 9 8 8 8 8 6 6
17 16 14 13 13 12 11 9 10 10 10 10 10 9 9 10 9 8 8 8 8 9 10 10 9 8 9 9 9 10 11 10 11 10 10 9 9 9 9 10 9 9
15 16 15 15 14 13 10 8 9 10 10 10 10 9 9 9 8 8 8 8 7 8 9 9 8 8 8 8 9 10 10 10 11 11 9 9 9 9 9 10 11 11
13 14 15 15 15 12 11 10 9 9 10 10 9 8 9 8 7 8 9 8 8 8 8 9 9 8 8 9 9 10 9 9 10 11 10 9 9 9 8 9 11 11
14 13 13 14 15 12 10 10 9 9 9 9 8 8 9 8 7 10 10 9 9 10 10 10 10 9 10 10 10 9 9 9 10 11 10 9 8 8 8 9 9 9
17 16 14 14 14 14 12 11 10 9 9 9 9 9 10 8 9 12 12 11 11 11 11 11 10 10 11 10 9 9 9 9 10 11 10 9 9 8 7 7 7 7
17 17 16 14 13 13 15 14 13 12 10 10 10 10 10 9 10 12 12 12 12 12 11 12 11 10 11 12 10 9 9 9 9 10 9 10 10 9 7 8 8 8
19 19 19 16 13 11 13 14 14 13 12 12 12 11 10 11 11 12 11 11 11 12 12 12 11 12 12 12 11 10 10 9 9 9 9 10 9 8 8 8 8 6
19 20 21 19 18 16 15 16 16 15 15 14 15 14 13 12 11 12 12 11 11 12 12 12 12 13 13 12 12 12 12 12 12 11 10 10 7 6 7 7 6 8
16 19 21 21 21 21 20 19 18 17 17 17 16 15 15 15 13 12 12 13 13 12 12 12 12 13 14 14 13 13 14 14 14 13 11 11 9 9 9 8 9 11
20 22 22 22 22 22 21 21 21 19 18 17 17 17 17 18 17 16 15 14 14 14 13 12 12 13 14 14 14 13 13 14 15 14 12 11 11 12 12 12 13 12
24 23 23 23 23 24 23 22 22 22 20 19 19 19 18 17 17 18 18 15 13 15 16 14 14 14 13 13 14 13 11 12 14 15 14 12 13 14 14 14 13 10
22 22 22 23 23 24 24 23 23 23 22 21 20 20 20 19 18 18 18 17 14 13 15 15 15 14 12 13 14 14 12 12 12 14 14 13 14 15 15 15 14 10
21 21 22 22 23 23 22 22 22 22 23 23 21 20 20 20 20 19 18 18 16 13 13 14 14 12 11 13 14 14 14 13 12 14 14 12 12 14 13 13 14 11
23 22 21 22 22 22 21 21 21 22 23 23 22 22 22 21 20 20 18 16 16 16 15 15 13 11 11 12 13 14 14 13 14 17 16 10 9 12 13 12 11 10
24 23 23 23 22 23 23 22 22 22 22 22 22 22 22 22 21 20 19 17 17 19 19 18 16 13 12 11 11 13 14 15 17 20 18 13 10 12 14 12 9 9
20 21 23 23 23 24 24 23 22 22 21 21 22 22 22 21 21 21 21 20 20 20 19 19 18 16 14 13 13 13 14 15 18 19 19 17 14 14 15 13 12 12
15 16 18 20 21 22 23 22 22 23 23 22 22 22 22 22 22 22 22 22 23 22 20 20 19 18 18 17 16 14 14 15 17 18 17 16 16 16 16 15 15 15
11 13 14 16 17 18 18 19 19 20 22 22 22 21 21 22 22 21 21 22 24 24 23 22 21 20 19 18 17 16 15 16 17 17 15 15 15 16 16 15 15 15
4 6 8 10 13 15 16 17 17 17 17 19 21 22 22 23 23 22 22 22 22 23 23 22 22 21 20 19 18 17 17 17 18 18 17 17 17 17 17 17 17 15
5 4 2 2 4 7 10 12 15 16 17 19 20 21 21 22 22 22 23 24 25 25 24 23 22 22 22 22 21 19 19 18 19 20 20 20 19 18 18 19 19 18

ECMWFNIL_850_spd_114.txt.gz
Wind_Speed
21 20 20 19 19 18 17 17 16 15 14 13 13 12 11 11 12 12 11 11 11 10 10 9 8 8 8 7 7 7 7 6 5 6 7 9 9 10 10 9 7 6
21 19 19 19 18 18 17 17 16 15 13 14 13 12 11 10 12 12 10 11 11 10 10 9 9 9 8 8 8 8 8 7 6 6 6 7 8 9 9 9 8 7
21 19 20 19 18 18 17 16 16 15 15 15 15 14 13 11 11 12 10 10 11 10 10 10 10 10 9 9 9 9 9 9 7 7 6 6 7 8 8 8 8 8
20 18 19 19 18 17 17 16 16 16 16 17 16 15 14 13 12 12 11 11 10 10 10 10 10 11 10 10 9 9 9 9 9 8 7 6 7 7 7 7 7 8
18 18 18 18 17 17 17 18 17 17 17 17 16 15 13 13 13 12 12 12 11 11 10 9 11 11 11 10 10 10 10 10 10 10 8 8 8 8 8 8 8 9
19 18 18 18 17 18 18 17 16 16 16 16 15 14 13 12 12 11 12 13 12 12 10 9 10 11 11 10 10 10 11 11 11 11 10 9 9 9 9 9 10 10
20 19 19 18 17 18 17 16 15 15 15 15 15 14 13 13 12 11 12 12 12 12 10 10 9 9 10 10 10 10 11 11 11 11 11 10 9 10 10 10 11 12
20 19 19 18 18 18 17 15 15 15 14 14 14 13 13 13 12 11 11 11 11 11 11 11 10 9 9 10 10 10 10 11 11 11 10 9 9 10 10 10 11 13
20 19 19 19 18 18 17 15 14 15 14 14 14 13 13 13 12 11 11 10 10 11 11 11 11 10 9 9 8 9 9 10 10 10 10 9 9 10 10 10 11 12
20 19 19 19 19 19 18 16 14 14 14 14 13 13 12 12 12 11 11 11 11 11 10 10 10 10 9 8 8 8 8 9 9 10 10 10 10 10 9 10 11 11
21 19 18 19 20 20 18 16 14 14 14 13 13 12 12 11 11 11 11 11 11 11 11 10 9 9 9 9 9 9 9 9 10 10 10 9 9 10 9 9 10 11
23 20 19 18 18 19 18 16 14 13 13 13 13 12 11 11 11 10 10 10 11 11 11 10 9 9 9 10 10 10 9 10 10 10 9 8 8 10 9 8 9 9
24 22 20 18 15 15 16 16 14 13 13 13 13 12 11 11 10 10 9 9 9 10 10 10 10 10 10 11 11 10 10 10 10 10 9 8 8 8 8 8 9 9
25 21 19 19 17 14 15 16 16 16 15 14 13 14 13 11 11 11 10 10 9 9 9 10 10 11 11 11 11 11 11 11 12 11 10 8 8 8 7 8 9 10
26 22 20 21 21 18 18 19 21 20 19 17 16 16 16 15 14 13 12 12 12 11 10 10 11 11 10 11 12 12 12 12 12 12 12 11 10 10 10 11 10 10
25 23 22 23 22 21 21 20 21 22 20 19 19 18 18 18 17 16 15 15 15 14 13 13 13 12 12 12 13 14 13 13 12 14 16 15 13 12 12 12 11 11
24 23 24 24 23 22 23 22 21 22 21 18 19 19 19 18 18 19 18 18 18 17 16 17 16 15 13 13 13 14 14 13 13 16 18 17 15 14 13 13 11 10
24 25 26 25 24 24 25 25 24 24 23 20 19 19 19 18 18 19 20 20 19 19 19 19 18 16 14 13 13 13 14 14 14 16 16 16 17 16 14 12 11 11
22 25 27 26 26 26 28 28 26 25 24 23 21 20 20 20 19 20 20 20 20 20 21 21 20 18 16 14 14 14 15 16 15 15 15 16 18 16 14 12 10 11
21 22 24 24 24 24 25 27 27 25 24 24 23 22 22 22 21 21 21 20 20 20 21 21 20 18 17 17 16 16 16 16 15 15 15 16 18 16 14 13 10 9
23 23 25 26 26 25 25 26 28 28 26 25 25 25 24 23 23 22 21 20 20 21 21 21 20 19 18 18 17 16 16 15 16 16 16 17 18 16 15 14 12 11
25 25 26 27 26 26 27 27 27 27 27 27 27 27 27 27 25 23 22 21 21 21 21 21 21 20 20 19 18 17 16 15 16 17 18 19 19 18 17 15 13 12
24 25 26 27 26 26 27 26 23 23 25 26 27 28 28 27 26 24 23 22 21 21 21 21 22 21 21 21 19 18 17 16 16 16 18 19 20 21 20 18 16 14
20 20 21 24 27 28 28 28 26 26 27 27 27 28 27 25 25 24 23 23 23 22 21 22 22 22 22 22 20 20 19 18 17 17 17 18 20 21 21 20 18 16
17 15 14 18 23 25 25 26 26 27 27 27 28 28 26 24 24 24 23 24 26 27 26 24 23 23 24 23 22 21 20 20 19 19 18 18 19 20 20 19 17 15
9 8 7 10 15 18 19 21 22 23 24 24 24 24 24 23 24 23 22 23 24 26 27 26 24 23 24 24 23 22 21 20 20 19 19 19 19 19 18 17 17 16

ECMWFNIL_850_spd_117.txt.gz
Wind_Speed
23 22 20 19 19 17 17 16 16 15 15 16 16 15 14 12 12 13 13 12 13 12 12 12 11 10 10 9 8 7 8 8 7 7 8 10 10 11 11 10 8 7
23 22 22 21 21 19 18 18 17 16 16 15 15 14 12 12 12 14 14 13 13 13 13 12 11 10 9 9 9 8 8 8 8 7 8 8 9 10 11 11 10 9
23 23 23 23 22 21 20 18 18 18 17 16 15 15 14 13 12 14 14 14 13 13 13 12 11 10 10 10 10 9 9 9 8 8 8 8 8 8 9 10 10 10
23 23 23 23 22 21 20 19 19 19 18 18 17 16 15 15 13 14 14 14 14 13 13 12 10 10 11 11 11 10 10 9 9 9 9 8 8 8 8 9 9 9
23 23 22 21 20 20 20 20 19 19 19 19 18 16 16 16 15 15 15 15 15 14 13 12 10 10 12 12 12 11 11 11 11 11 10 9 8 8 8 9 9 9
23 22 22 21 20 20 20 20 19 19 19 18 17 16 16 16 16 16 15 15 14 13 13 12 11 10 12 13 13 12 11 12 12 12 11 10 9 9 9 9 9 9
23 21 21 20 20 20 20 20 19 19 19 18 17 17 17 17 17 16 15 14 13 13 13 12 12 11 12 13 13 12 12 12 12 12 11 10 10 9 9 10 10 10
23 21 21 20 20 21 21 20 19 18 18 18 17 17 17 17 16 15 14 13 13 13 13 13 13 12 12 13 13 12 12 12 12 12 11 10 10 9 10 10 11 11
24 22 22 21 20 21 20 19 18 17 17 18 18 17 17 17 16 15 14 13 13 13 13 13 13 12 12 12 12 11 12 12 12 11 11 10 10 10 10 11 11 11
25 23 23 22 22 21 20 19 18 17 18 18 17 16 17 17 16 16 15 14 14 14 13 13 13 13 13 12 11 11 10 11 11 11 11 10 10 10 10 10 11 11
25 24 24 23 23 22 21 19 19 18 18 17 16 16 17 16 16 16 15 15 15 15 14 13 12 12 13 13 12 10 9 9 10 10 10 10 10 10 9 9 10 10
26 25 25 24 24 23 21 21 20 18 18 17 16 16 16 16 15 15 14 14 14 14 14 13 12 12 12 13 12 11 9 9 9 10 10 10 9 8 8 9 9 9
26 26 25 24 23 22 21 21 20 19 18 17 16 15 15 15 15 15 14 13 12 12 13 12 12 12 12 12 11 11 10 10 10 10 10 10 9 8 8 9 10 10
26 26 25 23 22 21 21 22 21 20 19 17 16 16 15 15 15 15 15 14 13 12 12 12 12 12 11 11 11 11 11 11 11 11 11 12 12 10 10 10 11 10
27 26 26 24 22 20 20 22 22 21 20 18 17 17 16 16 15 15 15 15 15 14 13 13 13 12 11 11 11 12 12 12 12 12 13 14 14 13 12 12 12 11
28 27 27 27 25 24 23 21 21 22 21 20 19 18 17 16 16 16 17 16 16 15 15 15 14 13 13 12 12 12 13 13 14 15 15 15 15 14 13 13 13 13
28 27 27 27 27 28 27 24 21 21 21 20 20 19 19 18 18 18 18 18 17 16 16 16 16 15 14 14 14 14 14 15 16 16 16 16 16 16 15 14 15 15
27 26 27 27 26 25 24 24 23 21 21 21 21 21 21 20 20 20 20 19 19 18 18 18 17 17 16 16 16 15 15 15 16 16 16 16 17 17 16 15 16 16
27 27 27 26 24 23 22 22 22 22 22 22 21 21 22 22 21 21 21 20 20 20 20 19 19 19 19 18 18 17 16 16 16 17 17 17 17 18 17 16 16 16
27 28 27 25 23 23 23 21 20 21 22 22 22 21 21 22 22 21 21 20 20 20 21 22 22 21 21 21 20 20 18 18 17 17 18 18 18 19 19 18 16 16
25 25 24 23 22 22 23 23 22 23 23 24 25 24 21 20 21 21 21 21 20 21 22 23 23 22 22 22 22 22 21 20 19 19 19 19 19 19 19 18 16 16
23 22 22 23 23 22 23 24 25 25 24 24 27 28 26 23 20 18 19 20 21 21 22 23 23 22 22 22 23 23 22 21 20 20 20 20 20 20 19 18 17 16
23 22 21 22 23 23 23 24 26 27 26 26 26 26 26 26 23 19 19 21 22 22 22 23 23 23 23 23 24 24 23 21 21 21 21 21 21 20 20 19 18 17
23 22 21 21 24 25 26 27 27 28 28 28 28 24 22 23 24 23 23 23 23 23 23 24 24 24 25 24 24 24 23 22 22 22 22 21 21 20 21 21 20 20
21 22 22 23 24 27 28 30 30 29 28 28 28 25 23 21 22 23 23 23 23 24 25 25 26 26 26 25 24 24 24 23 23 23 23 22 21 21 21 21 22 22
20 22 23 23 24 25 28 29 30 29 27 25 25 26 26 25 23 23 24 23 23 24 25 26 27 26 26 26 26 26 26 26 25 24 24 23 22 22 21 21 22 23

ECMWFNIL_850_spd_123.txt.gz
Wind_Speed
19 18 17 15 13 11 11 11 10 10 11 11 13 13 12 11 11 11 11 10 10 10 10 9 9 9 9 9 9 8 8 7 7 8 8 9 9 9 9 9 9 9
20 19 17 16 14 13 12 11 10 10 10 10 11 12 12 11 11 11 11 11 11 11 11 11 10 10 10 10 10 9 9 9 9 9 9 9 9 9 9 10 10 10
21 20 19 17 17 15 13 12 11 10 10 10 10 10 11 11 11 11 11 11 12 12 12 12 12 11 11 11 10 10 11 11 10 10 10 10 10 9 9 10 10 11
22 21 19 19 18 17 15 14 13 12 12 11 10 10 11 11 11 11 11 12 12 13 13 14 13 12 11 11 11 11 12 12 12 11 11 10 10 10 9 10 10 11
22 21 20 19 19 18 17 16 15 14 14 13 12 12 12 12 11 12 12 12 13 14 14 14 14 13 12 12 11 12 12 12 12 12 12 11 11 11 10 10 10 11
22 21 20 20 20 19 18 17 17 16 15 14 13 13 13 13 13 13 13 14 14 14 14 14 14 14 13 12 12 13 13 13 13 13 13 12 12 12 12 11 11 11
22 22 21 21 20 19 19 18 18 17 16 15 14 14 14 14 14 14 14 15 15 15 15 15 15 15 14 13 13 13 13 13 13 13 13 13 13 13 13 12 12 12
22 22 22 22 21 20 19 18 18 18 16 15 14 14 14 15 15 15 15 15 16 16 16 16 16 15 15 14 14 14 13 13 13 13 13 14 14 13 13 13 13 13
23 23 22 22 21 21 20 19 18 17 16 16 15 15 15 15 15 15 15 15 15 16 16 16 16 15 15 15 14 14 13 13 13 13 14 14 14 14 13 13 14 14
24 23 23 22 22 21 20 19 18 17 16 16 16 16 16 16 15 15 15 15 15 15 15 15 14 14 14 15 15 15 14 14 14 14 14 14 14 13 13 14 14 15
25 24 23 22 22 21 20 18 18 17 17 17 17 16 16 15 15 15 15 15 15 14 14 14 13 13 14 15 15 15 15 14 14 14 14 14 14 13 13 14 15 15
25 25 24 23 22 21 20 19 18 18 18 18 17 17 16 15 15 15 15 15 14 14 14 14 13 14 15 15 15 16 15 15 15 15 14 14 14 13 13 14 15 15
25 24 24 23 22 21 21 20 19 19 19 18 18 17 16 16 16 16 15 15 15 15 15 15 15 15 15 16 16 16 16 16 16 15 14 14 14 14 14 15 15 15
25 24 23 23 23 22 22 22 21 20 20 19 19 18 17 17 16 16 15 15 15 15 15 15 15 15 16 16 16 16 16 16 16 16 15 15 15 15 15 15 16 16
25 24 23 23 23 24 24 24 23 21 20 20 19 18 18 17 17 16 16 15 15 15 15 15 15 16 15 15 15 16 16 16 16 16 16 15 15 15 15 14 15 16
27 25 23 23 24 24 24 23 23 21 20 20 19 19 19 18 18 18 17 16 15 15 15 15 15 15 15 14 15 16 16 16 15 16 15 14 14 15 14 14 15 16
28 26 24 23 24 24 23 23 23 22 21 20 19 19 20 19 19 19 18 17 16 15 15 15 16 15 15 15 16 15 15 15 15 15 14 13 14 14 14 14 15 15
27 26 24 23 23 24 23 23 23 22 20 20 19 20 20 20 20 20 19 18 17 16 15 15 16 16 15 16 16 15 14 14 15 15 15 14 14 15 15 15 15 15
26 24 23 22 23 24 23 23 23 22 21 20 20 20 21 22 22 21 20 19 17 16 15 15 16 16 15 16 15 15 15 16 16 16 16 16 16 16 16 16 16 16
27 25 24 24 23 23 23 22 22 22 22 22 22 21 21 22 23 22 22 20 18 17 16 16 17 17 17 17 17 17 17 18 18 18 18 17 17 17 17 17 17 17
28 26 26 26 25 23 23 22 22 22 22 22 22 22 22 22 22 22 23 22 20 19 18 18 18 18 18 18 19 19 19 19 19 19 20 19 19 19 19 19 20 19
31 27 24 24 23 21 21 21 21 22 22 21 20 21 21 22 21 21 22 22 21 20 20 20 19 19 19 19 20 20 20 20 20 20 20 20 21 21 20 21 21 21
30 27 24 23 22 20 21 20 19 19 19 19 18 18 19 21 21 20 20 19 19 19 19 19 20 20 20 21 21 22 22 21 21 21 21 22 22 22 22 22 22 22
23 22 21 20 18 17 18 18 17 17 16 16 16 16 17 18 18 18 17 16 17 18 18 19 20 21 22 23 23 23 23 23 23 22 22 22 23 23 24 23 23 23
13 13 14 14 14 14 15 15 16 17 17 17 16 14 14 15 16 15 15 16 17 18 19 20 21 23 24 24 24 24 24 24 23 23 23 23 24 24 25 25 26 26
11 9 10 10 10 11 13 13 14 15 15 16 15 13 11 12 13 14 15 16 18 19 20 21 22 23 23 24 24 24 24 25 24 24 24 25 25 26 27 27 27 28

ECMWFNIL_850_spd_126.txt.gz
Wind_Speed
21 20 18 17 16 15 14 13 12 12 12 11 11 11 11 11 11 11 10 10 11 10 9 10 9 9 8 8 8 7 7 7 6 6 8 7 6 6 7 7 7 7
22 21 20 18 17 17 16 14 13 12 12 12 11 11 11 12 11 12 12 12 11 10 10 10 10 10 9 8 9 8 8 9 7 6 8 8 7 7 7 7 8 8
23 22 21 20 18 17 16 14 14 13 12 12 12 12 11 11 11 12 13 13 12 10 10 11 10 10 10 10 11 9 8 10 8 7 8 9 8 7 8 7 8 8
23 22 22 20 18 16 15 15 14 14 13 12 12 12 12 12 11 12 13 13 13 13 12 11 11 10 10 11 12 11 10 11 10 10 11 11 10 10 9 8 8 8
23 23 22 21 19 17 16 15 15 14 14 13 13 12 13 14 13 11 12 13 14 13 12 12 12 11 11 12 12 12 11 10 10 11 12 12 11 11 10 9 9 9
22 23 23 22 20 19 17 16 16 15 14 14 14 13 13 15 14 13 12 13 13 12 12 11 11 11 11 11 13 13 12 10 9 11 13 12 12 11 10 10 10 11
22 23 23 23 21 19 18 17 16 16 15 15 14 14 14 14 15 15 14 14 13 13 12 12 12 13 12 12 13 14 14 13 12 13 14 13 12 12 11 11 12 13
21 21 22 22 21 20 19 18 18 17 16 16 16 16 16 16 15 15 15 15 14 14 14 13 14 15 14 13 13 13 13 13 12 13 14 13 13 14 13 12 13 14
21 20 21 22 21 20 19 19 18 17 18 18 17 17 17 17 17 16 16 17 17 16 17 16 16 16 15 14 14 15 14 13 12 12 12 12 13 13 13 12 12 13
21 20 21 21 22 21 20 19 18 18 18 18 18 17 17 17 18 17 17 19 19 19 19 18 17 17 16 15 15 15 14 14 13 13 13 12 12 12 12 12 12 12
21 21 21 22 22 21 20 20 19 18 18 18 18 18 17 16 17 17 17 19 19 18 19 19 18 17 17 15 14 13 13 13 13 13 13 12 12 12 13 13 13 13
22 22 22 22 22 22 21 20 20 19 18 18 17 18 17 16 16 16 17 18 18 17 16 17 17 17 17 16 14 13 13 13 12 13 13 13 13 12 13 13 13 13
23 23 23 22 22 22 21 20 20 19 19 18 17 17 17 16 16 16 16 16 17 17 16 16 17 17 17 17 15 13 13 13 13 13 13 13 13 13 14 14 14 13
24 23 24 24 23 22 22 21 20 19 19 17 17 17 17 16 16 15 15 15 15 16 16 16 17 17 17 17 16 14 13 14 15 15 15 15 15 16 16 15 16 16
25 23 23 25 25 24 24 23 20 19 19 18 17 17 17 16 16 15 15 15 15 15 15 16 16 16 16 17 16 15 14 15 16 17 18 18 18 18 17 16 16 16
25 25 24 25 26 25 25 25 23 21 20 20 20 20 18 17 17 16 16 15 15 16 16 17 17 16 17 18 17 16 15 15 16 17 18 18 18 18 18 16 16 15
24 24 24 24 24 25 25 24 23 22 22 23 23 21 20 19 19 18 17 16 16 16 16 17 16 16 18 19 16 15 16 16 17 17 17 17 17 17 17 16 15 15
25 25 24 23 22 24 23 21 21 23 24 24 23 21 20 20 20 19 19 17 16 16 17 17 17 18 19 17 15 16 17 17 17 16 16 16 16 16 16 15 14 14
29 29 27 24 21 20 20 19 19 22 24 23 22 21 21 21 20 20 20 20 19 17 16 17 18 18 17 15 15 17 17 17 17 17 17 16 16 16 16 16 15 14
30 32 30 26 21 19 19 19 18 19 21 21 19 18 19 20 20 19 20 22 21 20 18 18 18 18 17 16 16 17 16 17 17 17 18 19 18 18 18 17 17 16
29 31 30 28 26 23 22 21 19 19 21 20 18 16 17 17 16 16 18 20 22 22 20 19 19 19 18 17 16 17 17 18 18 18 20 20 20 20 20 20 20 19
28 29 30 31 31 28 25 22 21 21 23 24 21 18 18 18 16 15 16 16 18 19 18 18 20 21 19 18 18 18 18 18 18 19 20 21 21 22 23 21 20 19
25 26 28 31 31 29 26 24 22 21 23 24 22 18 18 19 18 17 18 16 14 13 12 15 20 21 20 20 19 18 18 17 17 18 19 19 19 19 18 16 16 17
23 24 26 29 31 30 26 24 21 19 21 23 22 19 18 18 16 18 21 20 16 13 12 15 20 20 19 20 19 18 17 17 16 16 17 17 17 17 17 18 18 19
21 21 21 23 26 26 24 22 20 18 19 21 20 19 20 19 16 17 20 20 18 17 17 20 23 20 16 16 17 18 18 18 18 18 17 15 15 15 15 17 17 17
15 17 16 15 15 18 19 18 17 16 17 17 17 18 19 17 15 15 17 18 18 17 17 19 20 18 16 16 17 18 18 19 19 20 19 18 17 16 16 16 15 16

ECMWFNIL_850_spd_129.txt.gz
Wind_Speed
18 18 18 17 15 14 13 13 13 12 12 12 11 11 11 11 11 11 10 10 11 11 10 10 9 8 8 8 8 8 9 9 7 7 7 8 9 8 9 9 8 9
19 18 17 16 15 15 14 14 13 12 13 13 11 11 11 12 12 12 12 11 11 11 11 11 10 9 9 8 9 9 9 10 9 7 7 8 8 8 9 9 9 10
19 18 17 16 15 15 14 14 14 13 13 13 12 12 11 11 12 13 13 13 11 11 11 11 11 10 10 10 11 10 9 11 11 8 8 9 10 9 9 10 9 9
20 19 18 17 15 15 14 14 14 14 13 12 13 13 12 12 12 13 14 14 14 13 13 13 12 11 11 11 12 11 10 11 12 10 10 12 11 10 9 10 10 9
20 20 18 17 16 15 15 15 15 14 13 13 13 13 13 14 13 13 13 14 15 15 14 14 13 12 12 13 12 11 11 11 11 11 12 12 11 10 10 10 10 10
19 20 19 19 18 17 16 15 15 15 14 14 14 14 14 15 15 14 14 14 14 14 14 15 14 13 13 13 13 12 12 11 10 11 13 13 11 10 9 10 10 10
19 20 20 19 19 18 17 16 16 15 15 14 14 14 14 15 15 15 15 15 14 14 15 15 15 15 14 13 14 14 13 13 13 13 15 14 12 11 11 10 11 12
19 19 20 20 20 19 19 18 17 16 16 16 15 15 15 15 15 15 15 16 15 15 15 15 16 16 16 14 14 15 14 13 14 15 16 14 13 13 12 11 12 13
19 18 19 20 20 20 20 19 18 17 17 17 16 16 16 16 16 15 15 15 16 16 16 16 16 16 16 15 16 16 15 14 13 14 13 13 13 13 12 12 12 12
19 18 18 19 20 20 20 20 19 18 18 18 17 17 16 16 16 16 15 15 16 16 16 16 17 17 17 17 16 17 17 16 15 15 14 13 12 12 11 12 12 12
18 18 19 19 19 19 20 20 19 19 18 18 18 18 17 17 16 16 16 16 16 16 16 16 17 17 18 18 17 17 17 17 16 15 15 15 14 14 13 13 13 13
18 18 21 22 20 19 19 19 19 19 19 18 18 18 18 18 17 17 16 16 16 17 17 17 17 18 18 18 18 17 17 16 15 14 14 14 14 14 14 14 13 13
20 20 23 24 23 21 19 18 19 18 18 19 19 19 19 19 18 18 17 16 17 17 18 18 17 18 18 19 19 17 17 16 15 14 14 14 14 14 13 13 13 12
21 22 22 22 23 23 21 20 21 21 21 20 19 19 19 19 19 19 18 17 17 18 18 18 18 18 18 19 19 17 17 16 15 15 15 14 13 13 13 13 13 12
23 24 22 21 23 24 23 23 23 24 24 21 17 17 19 19 19 19 18 18 18 18 18 18 19 19 18 19 19 17 16 16 15 15 15 15 15 13 13 13 14 14
24 24 22 22 24 24 25 25 25 25 25 23 19 15 15 17 18 18 19 18 18 19 19 17 18 20 21 21 20 17 16 16 15 14 15 18 17 15 15 15 14 14
23 22 21 22 24 24 24 25 26 26 26 25 22 18 16 17 16 16 18 18 18 18 18 18 20 22 23 22 21 19 18 17 18 17 17 18 16 16 16 15 14 13
23 21 20 22 23 23 23 22 23 25 25 26 25 22 21 21 18 16 17 18 18 18 18 19 21 22 21 19 19 19 18 17 19 19 16 15 14 15 15 14 14 13
23 22 21 21 22 23 22 21 21 23 23 25 27 25 24 25 23 20 19 18 18 18 16 17 18 18 18 17 17 16 15 16 19 17 15 14 14 13 13 13 13 13
23 23 22 22 22 23 23 22 22 22 22 23 25 26 26 25 23 22 22 20 19 18 16 16 16 15 15 16 16 16 15 16 19 19 17 16 14 12 12 13 14 15
21 22 23 23 23 25 25 25 23 22 22 23 25 25 25 23 22 22 22 21 21 19 19 20 19 16 14 14 14 16 17 17 19 20 20 18 16 14 15 16 17 17
20 21 22 22 23 25 25 27 26 24 22 22 23 24 23 23 22 22 22 21 19 17 16 18 19 18 18 18 17 17 18 19 21 22 21 20 19 19 18 18 18 18
17 19 19 21 23 25 25 26 27 26 24 22 21 22 22 23 24 24 22 20 19 17 16 16 15 16 18 20 20 20 20 21 22 21 19 19 20 21 21 19 18 18
16 16 18 20 22 23 24 26 26 26 25 23 20 21 22 22 24 25 22 19 19 19 19 18 17 15 15 17 19 19 20 21 20 17 15 16 16 17 17 18 17 16
13 13 15 17 19 21 23 26 28 28 27 24 20 20 21 20 21 21 21 20 20 21 21 21 21 19 19 19 19 19 20 21 20 17 15 15 14 11 11 13 14 15
11 11 12 13 16 17 18 18 21 26 27 24 21 19 18 18 17 18 19 19 20 21 21 23 23 21 20 20 19 18 20 20 17 15 16 17 18 15 13 12 13 14